GFSSGP_500_rhum_000.txt.gz
RH
18 23 22 22 23 24 23 16 12 15 18 18 16 11 20 30 40 29 18 11 14 13 11 10 15 18 23 28 28 28 26 18 20 22 21 23 16 18 22 15 10 9 8 9 11 12 11 11 12
20 21 24 24 25 28 23 19 13 11 17 20 17 13 9 10 15 17 16 14 14 13 12 14 19 22 28 33 28 29 28 21 26 31 31 28 21 14 7 7 10 10 9 11 12 12 13 13 13
27 24 24 25 27 30 26 22 18 15 15 19 18 15 11 9 8 12 16 15 13 13 15 20 25 33 36 38 31 33 30 32 25 28 34 33 30 21 4 4 8 11 12 13 14 13 13 13 14
24 28 26 26 29 28 27 25 23 18 19 25 22 16 13 9 7 11 13 18 14 14 17 22 25 30 41 37 41 34 39 32 39 35 27 28 30 31 23 14 6 10 13 13 13 13 14 13 12
16 22 29 31 34 32 29 28 27 22 22 25 22 17 14 13 12 12 19 16 14 18 19 22 28 44 48 36 37 44 40 35 35 31 34 32 30 30 30 30 28 20 14 12 13 14 14 13 10
17 16 19 30 40 34 29 27 29 26 18 20 22 20 18 17 15 16 16 17 18 20 20 21 43 56 51 34 35 48 39 39 40 36 34 34 34 34 33 33 31 30 30 27 26 25 25 26 26
18 17 17 24 41 37 34 30 30 30 24 20 23 22 21 22 21 22 21 22 25 22 18 23 36 52 50 34 41 47 39 39 37 27 27 28 28 30 32 33 34 36 38 39 39 36 34 32 30
18 15 13 17 39 53 41 32 38 35 30 24 23 22 24 26 27 28 26 29 29 25 19 19 44 53 46 39 44 52 42 37 32 28 33 34 32 30 29 31 33 34 35 35 37 40 41 39 36
16 11 8 13 20 46 54 40 34 38 31 29 28 24 24 25 27 27 27 32 29 26 20 20 54 54 44 44 43 48 43 35 30 32 34 36 37 38 36 32 30 30 27 24 23 24 24 25 26
17 11 7 14 18 25 50 46 35 30 33 36 30 25 17 26 28 28 30 30 29 29 22 20 21 55 46 45 45 43 48 34 32 36 37 39 42 44 44 42 39 33 30 32 31 28 26 25 22
18 10 12 11 12 18 25 30 39 34 37 38 36 30 23 19 28 29 29 34 37 30 25 19 27 36 44 45 47 41 46 35 35 36 33 36 35 36 46 45 40 39 37 32 31 31 31 33 31
15 16 15 14 13 12 15 23 20 35 41 43 38 33 26 24 27 30 27 30 33 30 26 20 36 32 46 49 52 50 54 42 37 39 44 46 47 46 48 47 44 41 38 36 33 32 33 28 20
12 12 17 18 14 12 12 11 14 15 35 51 43 38 33 28 26 21 30 24 27 30 28 24 39 53 51 59 58 54 53 51 46 49 49 46 47 50 45 42 44 46 42 40 38 38 24 12 9
12 13 19 20 21 17 14 11 9 12 21 42 43 40 37 35 31 19 25 30 24 27 27 27 36 58 62 66 62 63 58 62 59 56 49 51 48 50 33 33 47 48 43 40 35 22 14 11 15
16 22 26 24 26 27 22 14 11 12 20 26 39 39 38 35 32 24 19 28 20 22 23 28 39 52 68 62 63 62 59 63 62 52 52 50 53 45 42 46 52 48 42 39 33 32 20 12 13
32 30 24 23 22 24 28 9 15 13 16 22 32 41 37 34 33 29 21 26 16 17 24 31 38 38 69 62 59 60 62 63 50 48 48 47 40 42 51 53 50 44 46 48 44 32 16 11 21
36 30 26 24 29 28 24 12 18 16 14 17 31 40 41 36 36 32 20 26 14 15 24 32 36 43 62 63 76 71 62 50 41 40 46 51 42 50 50 49 52 50 50 44 31 18 10 12 36
31 33 38 34 42 39 31 19 21 27 18 17 21 25 38 40 32 34 21 23 27 22 22 33 39 51 60 68 70 64 58 48 46 46 48 54 50 46 48 51 56 52 42 26 18 10 10 19 41
52 42 38 45 48 50 34 26 23 26 25 14 18 21 34 46 35 36 27 18 30 30 24 33 44 55 60 67 66 61 52 48 49 45 36 35 53 50 51 53 51 38 20 12 11 11 21 36 40
51 42 36 36 48 48 44 31 30 26 22 14 16 23 32 49 39 38 33 22 22 30 27 31 45 50 65 69 66 61 52 51 48 26 22 41 46 48 48 45 30 13 11 11 16 44 44 40 36
50 44 46 44 60 44 46 29 27 32 27 16 14 22 31 51 40 39 35 30 24 27 34 32 39 47 62 69 66 62 52 49 48 37 39 43 42 37 29 15 10 11 17 42 52 43 33 30 28
44 63 69 69 68 48 73 32 34 42 38 25 18 20 27 52 42 38 34 30 24 22 34 40 35 46 57 61 59 55 50 51 56 52 49 36 22 15 12 12 16 34 57 46 38 35 28 28 31
60 94 85 80 77 71 61 48 27 35 38 25 22 25 31 55 44 41 31 28 24 26 32 24 24 40 48 53 53 48 52 54 57 58 49 25 15 13 14 21 48 62 43 38 32 29 30 32 34
90 95 99 87 89 66 47 54 27 35 26 40 30 31 36 57 42 36 30 27 23 27 29 20 22 36 48 48 46 53 56 54 59 45 22 16 12 17 29 60 59 41 32 32 36 37 37 37 37
100 99 100 98 81 56 58 53 21 33 41 45 32 31 41 57 42 36 30 27 24 24 29 28 12 26 45 44 48 56 55 54 42 20 15 13 20 36 65 58 39 33 38 40 40 40 41 44 43
100 100 100 96 85 72 69 43 25 27 78 55 56 39 41 59 41 35 32 27 23 24 31 33 9 11 34 43 50 52 46 34 18 13 15 20 41 67 58 37 36 41 42 42 44 44 49 48 43
93 98 87 100 98 86 57 41 41 46 87 62 50 38 38 50 35 33 32 30 30 30 37 28 6 7 25 31 32 30 19 17 12 16 22 43 69 55 39 37 43 43 47 47 51 52 54 48 40
75 81 100 93 85 74 56 40 40 44 66 58 55 62 59 54 38 31 29 29 32 36 44 27 7 5 9 14 14 15 15 14 17 22 54 76 64 47 47 48 45 50 47 53 58 60 52 41 38
67 76 78 75 69 73 51 37 24 28 87 71 72 73 61 50 41 37 34 37 40 46 46 39 33 25 20 22 21 15 17 17 31 75 85 64 62 62 51 45 49 44 50 67 62 55 43 39 35
79 66 65 66 50 64 72 51 29 94 96 86 95 74 56 48 41 44 50 50 51 46 36 29 26 23 25 17 18 18 19 48 88 87 58 59 65 49 42 51 43 53 72 62 57 45 40 34 22

GFSSGP_500_rhum_003.txt.gz
RH
19 15 16 21 20 21 20 18 14 13 15 20 20 18 15 20 23 34 32 19 16 19 20 14 12 11 10 11 14 19 20 20 17 16 20 19 22 14 17 21 23 17 11 9 8 9 10 10 11
24 23 18 19 22 24 25 22 20 16 12 14 18 19 20 30 30 23 23 17 14 13 14 14 13 12 11 13 21 25 22 21 19 18 25 26 26 23 19 12 14 13 12 10 9 10 12 12 12
22 26 28 20 23 26 26 23 24 20 16 14 16 20 22 26 26 18 18 17 12 15 17 13 12 12 13 16 25 28 23 20 23 28 24 25 28 30 27 18 4 7 10 12 12 12 13 13 13
10 21 26 26 26 29 27 24 25 24 20 15 14 16 18 20 18 19 12 14 13 18 17 16 14 15 16 19 34 32 26 24 29 26 27 29 29 26 29 30 28 22 12 11 14 14 13 13 14
15 13 17 25 33 34 30 26 24 26 25 17 16 16 19 17 16 14 12 19 21 18 18 18 18 20 20 28 37 34 32 33 31 34 38 34 30 32 31 29 29 30 29 29 24 20 18 17 16
16 16 14 14 39 41 31 28 25 26 26 22 18 15 18 20 15 15 16 21 20 22 24 21 20 21 31 38 40 34 41 37 35 39 33 32 33 34 34 35 36 36 36 35 34 32 31 30 29
18 18 16 15 19 38 44 32 30 28 25 25 21 19 19 20 18 18 21 24 24 28 27 21 19 21 34 42 41 35 44 38 38 37 29 31 33 30 29 28 31 34 34 34 34 36 39 41 42
20 16 12 12 17 22 44 43 39 33 28 27 24 21 21 19 20 21 24 29 30 30 29 27 22 22 33 45 48 43 44 47 40 38 30 34 36 37 38 38 37 33 31 31 28 27 26 27 29
15 11 10 12 16 22 32 52 49 38 30 28 25 23 20 20 22 25 28 32 33 30 29 28 24 22 42 54 52 45 46 54 42 36 32 34 36 38 40 42 44 43 41 37 33 32 32 31 27
15 11 10 16 18 22 25 25 49 47 39 34 30 25 24 22 25 26 29 34 35 33 35 32 26 21 23 50 52 46 50 51 49 37 34 37 40 37 38 40 39 41 44 42 36 33 32 31 31
15 9 14 17 20 18 20 18 22 41 45 46 35 28 24 23 23 29 31 33 36 36 37 31 27 21 26 29 52 46 51 48 53 38 35 41 37 34 42 47 48 48 47 46 42 38 35 35 32
14 14 15 18 21 18 14 16 14 18 34 47 43 35 25 25 25 24 31 33 32 34 34 30 29 23 26 33 36 49 53 55 52 47 41 43 39 43 46 46 52 46 38 40 46 44 36 34 31
13 14 13 16 20 20 16 11 9 8 17 31 46 43 37 28 30 28 24 30 33 28 28 31 30 27 26 45 44 53 64 62 58 61 60 46 48 50 49 50 46 36 40 46 50 46 42 38 28
18 13 13 12 14 16 18 16 11 9 11 17 29 45 44 42 31 31 30 26 33 32 26 25 27 28 28 49 72 77 78 78 68 61 62 59 57 52 50 49 42 46 48 48 46 43 43 45 44
24 18 13 12 12 15 22 17 17 14 14 13 15 32 49 47 42 33 30 29 26 32 29 23 23 26 28 45 76 84 77 72 69 65 66 62 54 51 50 41 45 48 46 47 49 51 54 49 31
31 25 18 16 20 22 34 12 18 20 20 17 14 17 31 51 49 40 34 30 24 27 26 20 21 23 31 49 73 79 64 73 69 66 60 51 50 49 50 47 51 51 49 52 53 51 43 31 23
40 35 36 23 30 28 31 17 22 26 23 20 18 15 15 29 50 45 39 31 29 25 26 16 18 26 34 45 67 69 74 75 63 58 50 45 48 48 53 56 53 46 48 48 43 39 32 25 21
51 50 48 43 45 47 31 18 24 29 22 20 20 17 15 15 37 49 41 33 29 23 26 14 15 28 35 41 65 67 75 67 60 58 48 49 48 37 32 52 49 47 46 44 37 23 13 10 11
30 42 42 41 39 38 37 27 21 22 23 19 17 17 14 16 17 47 42 37 32 22 27 27 21 25 42 45 61 68 70 63 61 52 51 51 34 22 41 43 42 39 31 18 11 11 10 15 46
46 37 32 28 29 32 37 23 22 19 20 20 21 19 15 12 15 31 48 39 34 23 20 33 31 24 42 53 62 69 71 68 63 56 53 48 36 39 45 38 27 18 13 15 19 15 35 51 49
46 51 50 44 53 52 43 27 26 24 26 29 26 21 17 12 11 22 52 42 33 26 22 24 34 27 35 48 60 70 74 68 64 57 49 55 54 51 48 39 21 15 18 21 20 50 55 47 43
58 66 68 64 62 53 55 23 30 25 24 27 28 25 20 16 11 18 50 42 37 32 29 24 31 41 41 40 49 60 68 65 60 52 50 55 57 54 43 22 16 18 24 23 49 58 43 35 38
52 68 64 62 61 53 48 43 18 30 23 22 24 26 21 20 12 16 51 42 37 34 33 29 28 36 46 39 43 50 57 56 53 48 53 55 58 48 26 15 16 22 25 53 59 40 36 44 44
62 65 69 72 72 42 45 50 19 24 26 24 24 26 27 23 16 19 54 42 33 33 32 32 34 34 22 23 31 42 46 47 45 44 52 52 48 29 14 15 24 37 64 56 41 40 46 45 50
53 81 97 100 82 47 44 55 20 23 25 27 30 32 32 29 18 25 51 38 35 34 32 30 33 33 15 16 21 34 42 44 41 45 48 45 30 16 15 26 47 63 56 44 48 49 48 54 53
100 100 100 100 91 86 86 35 23 20 26 33 37 40 35 30 21 29 49 37 35 32 30 30 34 33 23 9 8 24 35 36 39 41 38 26 17 17 30 52 68 67 49 54 55 51 53 49 46
96 93 84 100 100 100 68 42 35 33 29 37 41 40 37 36 24 24 50 39 34 31 30 36 42 42 25 9 4 11 25 30 33 31 27 17 20 30 57 75 72 65 63 56 48 50 50 50 66
81 90 100 100 97 100 66 46 40 32 38 40 47 38 45 40 28 26 46 35 32 33 35 42 50 52 42 12 6 9 15 19 24 25 16 20 29 63 80 71 64 63 54 46 54 53 50 69 66
92 92 93 90 87 71 53 54 44 48 47 41 82 64 58 51 35 47 45 32 32 35 38 44 52 56 42 20 17 22 21 23 22 19 21 32 68 80 76 63 63 54 48 59 69 49 64 68 70
95 100 99 94 59 56 57 59 67 53 46 52 66 65 73 61 54 57 43 38 38 43 45 53 55 49 42 36 26 21 22 19 22 21 44 73 85 80 66 64 63 59 75 76 40 61 71 76 67

GFSSGP_500_rhum_006.txt.gz
RH
13 17 18 16 18 18 17 17 15 14 16 21 22 21 26 19 16 24 26 25 22 17 20 18 15 12 10 8 8 10 13 16 15 14 12 14 16 17 18 12 19 21 22 15 10 8 9 10 11
7 16 21 18 17 19 20 19 19 18 15 15 17 22 24 25 24 22 27 29 20 17 15 15 15 13 11 10 12 16 16 21 20 19 17 18 18 22 25 20 12 7 13 14 13 10 10 11 12
9 8 18 19 18 22 23 22 22 25 24 20 16 18 23 23 26 26 31 35 22 18 19 18 16 15 12 13 16 23 24 26 24 23 27 25 20 18 23 29 28 23 12 7 11 13 13 13 13
13 10 8 13 21 26 28 26 25 24 24 23 19 16 22 26 31 45 38 41 26 20 23 27 21 17 16 18 24 30 30 26 25 29 28 25 23 22 27 27 27 30 30 26 21 15 13 13 13
15 13 11 8 21 38 32 28 30 27 26 24 22 18 18 22 28 28 27 23 25 24 30 33 23 19 19 23 26 37 35 34 36 32 36 35 34 33 32 30 31 32 30 29 30 30 30 29 27
15 15 12 13 15 26 41 38 30 30 30 28 23 20 19 22 22 25 24 21 20 22 29 29 27 22 22 27 39 45 39 38 38 37 38 31 31 31 31 31 32 33 34 35 35 36 36 37 37
14 15 14 15 16 17 28 39 42 37 34 30 24 22 22 23 24 22 19 17 22 28 33 32 30 26 25 33 46 54 44 42 44 38 38 31 34 35 35 38 39 38 38 33 32 32 32 30 28
16 14 14 16 18 20 22 24 46 47 40 33 26 25 25 24 26 26 21 20 29 34 34 35 37 34 30 38 48 59 54 43 51 42 41 32 34 37 37 38 39 40 39 41 42 40 35 32 32
10 9 12 16 17 19 24 20 22 45 49 40 33 32 30 27 24 24 25 24 31 34 34 36 38 31 30 29 52 71 62 53 55 54 42 37 35 37 38 38 37 35 36 35 34 38 40 38 32
10 9 13 13 16 20 21 18 19 22 44 46 41 37 30 27 24 23 26 28 36 38 34 33 40 38 29 25 29 71 72 59 53 55 52 40 39 42 42 38 35 38 42 46 47 43 40 39 37
12 10 15 15 17 20 22 22 19 19 26 54 46 40 31 26 26 24 25 29 35 38 39 39 37 33 34 26 26 32 75 63 53 53 54 47 40 47 44 38 38 45 45 46 41 38 37 37 44
14 14 14 15 15 18 21 19 13 11 17 27 50 45 38 31 29 29 27 28 32 35 38 39 36 33 32 29 25 37 38 64 63 56 52 58 54 52 51 41 47 51 48 44 37 39 43 45 37
10 16 18 14 14 15 20 19 13 7 10 17 24 47 44 38 32 34 30 29 31 34 34 34 34 34 32 30 27 42 42 49 68 64 59 59 65 63 57 49 52 50 47 39 40 46 47 44 44
15 16 16 21 14 15 16 18 18 13 12 11 14 22 47 44 40 32 34 33 30 31 36 31 29 32 31 30 29 33 65 71 84 78 71 68 64 64 58 53 53 49 42 36 42 45 54 56 54
17 17 19 21 24 15 16 14 16 19 21 18 13 13 19 41 47 37 34 37 35 33 30 33 31 26 25 28 28 30 62 82 83 75 78 73 64 60 60 53 51 50 46 51 51 54 53 49 43
14 16 21 28 24 21 18 10 13 12 19 20 20 14 13 15 34 45 38 38 36 40 31 26 31 29 24 25 26 47 70 80 75 76 72 67 63 58 49 51 50 50 55 54 48 48 45 43 42
17 17 20 31 34 26 20 12 14 17 20 23 21 20 17 15 15 23 47 42 41 38 38 28 28 27 19 22 31 51 62 83 78 77 63 58 56 49 49 49 47 40 47 53 47 46 40 26 13
18 15 18 18 32 39 23 14 15 16 19 19 24 20 18 17 16 15 19 44 45 39 37 30 28 28 15 18 25 43 57 75 75 72 59 56 54 51 49 50 28 39 44 44 38 26 15 13 18
15 15 15 23 27 30 35 20 19 15 18 19 21 20 18 18 19 15 13 26 50 43 39 31 26 29 16 20 29 42 49 68 74 69 58 59 55 52 53 36 27 40 45 40 30 15 18 25 22
18 17 17 21 35 33 31 25 25 17 14 17 18 22 18 16 19 17 12 14 44 46 40 36 26 30 37 30 24 43 50 65 75 70 66 64 59 55 51 52 50 52 47 33 16 16 26 25 33
19 18 19 25 37 36 34 16 30 30 21 21 20 22 19 17 17 21 16 17 22 47 43 40 29 25 40 36 25 40 60 68 76 76 73 66 62 54 50 55 59 56 42 23 15 23 24 26 39
23 24 25 23 27 28 50 17 17 22 21 21 22 20 23 20 20 23 21 19 17 47 45 37 35 24 27 36 29 32 48 56 67 72 72 66 61 53 49 52 58 54 34 14 19 24 28 44 59
30 31 35 33 37 38 35 41 12 21 17 15 17 25 27 27 24 26 24 20 19 35 49 37 36 27 25 30 38 42 43 45 50 60 63 60 54 49 44 50 54 42 16 15 25 36 56 62 58
71 65 61 60 59 43 34 48 14 23 21 22 27 26 29 31 28 33 27 19 17 30 48 41 40 34 31 28 28 43 42 38 42 47 48 48 47 42 41 50 43 21 15 25 45 62 66 58 61
60 62 74 78 68 47 45 45 20 24 32 26 32 31 29 29 26 32 30 20 18 38 49 42 40 37 33 32 35 24 19 23 28 36 40 43 44 36 41 41 24 15 26 50 69 69 66 64 58
99 100 99 71 63 52 45 30 23 30 34 32 33 40 35 32 30 34 31 20 28 46 47 43 40 36 32 33 35 22 7 10 16 30 41 40 33 34 34 22 17 25 46 71 68 67 67 59 45
100 100 97 100 100 97 50 22 19 25 33 39 34 40 34 35 35 38 33 24 40 56 45 43 38 36 32 32 34 24 8 3 5 8 19 28 31 26 22 19 23 52 71 76 65 65 62 50 67
74 96 92 94 95 86 69 43 27 34 45 43 36 29 34 34 34 41 38 28 61 55 45 40 36 36 36 37 43 37 18 8 9 12 16 20 28 24 20 25 55 74 78 65 65 67 62 79 85
100 84 92 100 99 80 55 38 48 38 35 38 35 30 31 31 39 51 41 39 65 58 45 40 37 38 42 50 52 51 43 20 16 23 24 31 23 22 30 58 72 77 67 65 76 76 82 89 65
64 60 65 58 51 66 63 29 55 63 49 34 41 38 38 42 44 50 42 61 60 54 44 37 39 43 48 50 58 57 43 32 28 22 30 26 23 36 60 67 71 69 72 79 83 92 82 59 71

GFSSGP_500_rhum_012.txt.gz
RH
7 6 5 5 10 10 13 12 13 13 13 11 13 19 22 23 25 35 25 20 14 12 17 22 21 17 13 10 10 9 8 8 10 11 11 10 9 10 10 11 11 10 11 15 18 19 19 16 12
9 8 8 6 7 9 13 14 16 15 15 14 14 15 19 20 22 27 27 25 19 17 14 14 13 11 11 10 9 9 9 9 11 12 12 12 11 11 11 13 15 15 14 11 15 19 19 16 14
10 10 10 8 7 6 15 17 15 17 18 17 17 17 17 17 21 28 55 40 27 28 31 24 14 12 10 11 11 11 10 13 16 17 16 16 16 14 13 13 16 20 23 24 20 17 13 11 11
12 11 9 8 9 9 8 14 17 19 21 20 20 21 21 21 24 34 98 69 95 77 35 55 69 23 10 12 11 12 13 16 21 23 20 19 19 19 18 17 18 20 23 26 26 28 29 29 29
12 11 10 9 11 12 10 12 20 21 22 23 23 23 25 24 25 26 31 48 57 38 35 66 63 31 18 18 14 15 17 19 26 30 30 28 28 28 29 28 29 28 29 31 32 34 35 35 35
10 12 10 10 15 14 13 10 13 24 25 27 28 27 27 27 26 27 27 28 54 30 31 35 26 25 19 20 22 21 22 29 36 36 38 35 35 32 32 31 32 32 33 35 37 37 36 36 35
7 10 8 12 16 15 15 12 10 13 30 29 27 30 27 29 29 30 37 36 40 37 31 35 34 25 22 22 25 25 25 39 46 42 43 42 40 32 33 32 32 37 39 38 37 35 33 32 31
9 8 9 11 17 16 16 14 14 12 14 28 31 32 32 29 28 29 34 43 52 41 42 36 35 28 26 28 29 26 24 28 42 52 46 52 44 38 35 37 38 39 40 38 36 35 34 37 39
10 8 8 11 16 16 17 16 14 14 14 15 22 35 33 32 30 29 30 34 34 32 38 30 47 42 36 30 33 34 27 28 40 61 54 52 53 45 40 37 39 41 43 39 38 37 38 44 32
8 8 12 11 13 15 17 16 15 14 13 14 15 17 27 36 35 33 32 33 32 30 36 28 26 36 41 36 43 34 28 25 30 55 64 54 54 56 50 42 40 43 45 43 44 39 40 46 28
8 10 12 12 10 9 12 13 14 12 10 15 15 14 15 34 40 39 37 33 30 30 36 32 29 54 90 90 71 43 40 31 26 28 50 62 55 51 54 54 45 41 48 51 49 43 39 48 33
8 11 12 13 12 10 9 9 10 11 10 11 11 11 12 14 32 44 43 39 32 30 31 33 32 42 45 62 44 51 40 36 28 31 36 52 61 54 52 55 57 53 52 59 55 48 39 48 37
8 12 12 13 14 12 11 11 11 10 13 11 12 12 12 13 16 33 46 43 37 34 33 30 32 36 42 74 37 46 38 38 33 31 41 40 52 58 63 62 59 60 60 65 56 50 46 48 44
9 11 13 14 14 12 12 13 10 14 15 11 11 12 13 12 14 19 45 49 44 38 33 31 31 34 36 37 37 37 34 34 34 33 37 53 48 52 56 65 68 63 58 58 54 50 50 50 50
9 12 12 16 16 12 12 11 10 15 15 12 11 11 13 10 11 14 20 44 50 44 34 33 32 33 35 36 36 35 33 33 33 34 40 47 65 67 71 74 75 70 64 57 52 49 50 49 41
10 10 12 17 14 12 12 12 13 16 16 15 15 12 12 14 15 12 15 20 30 46 45 40 38 35 35 34 34 34 33 31 32 38 48 48 57 78 76 76 72 69 62 50 49 50 50 46 30
11 9 10 12 12 10 10 9 14 14 14 14 14 14 10 14 17 18 15 15 18 22 40 45 44 40 35 34 33 29 32 34 42 38 48 49 63 82 76 75 66 59 50 49 51 52 45 27 41
9 7 7 9 10 10 10 6 11 13 12 13 13 13 13 10 13 18 17 17 14 13 17 45 50 44 42 40 37 40 39 36 41 32 38 48 60 80 78 73 57 52 50 53 54 52 51 41 47
11 10 9 10 12 10 10 6 8 11 12 11 12 15 14 13 11 13 16 19 19 14 13 14 46 53 48 45 42 43 45 43 32 29 34 39 52 75 80 75 55 55 58 57 55 52 51 55 59
14 14 14 14 14 14 11 7 9 10 13 15 14 13 17 19 19 14 17 19 26 20 16 15 16 38 56 55 48 52 54 54 34 35 22 32 47 62 76 77 68 61 64 64 60 56 51 50 51
18 17 18 18 17 16 16 8 13 13 13 15 16 14 16 19 23 20 22 19 26 25 22 20 17 19 28 56 56 52 52 50 40 41 27 31 46 56 72 79 76 71 72 72 68 58 52 50 50
15 16 14 14 14 15 14 12 12 13 13 16 18 18 17 20 24 26 23 22 25 26 27 24 21 19 17 35 52 55 57 52 44 47 36 31 46 60 66 78 81 70 67 74 66 54 48 48 48
12 14 20 28 31 27 21 22 14 14 12 12 15 20 22 19 22 28 27 26 27 28 29 27 24 19 19 22 54 58 62 55 38 41 46 26 32 48 56 60 56 54 54 52 47 44 45 48 44
27 30 36 34 20 18 20 16 14 13 16 17 17 18 21 22 20 26 34 26 25 24 26 28 23 19 16 16 34 54 58 50 42 33 38 45 42 47 48 46 43 43 42 39 36 38 39 37 33
36 38 38 30 32 32 24 14 10 8 7 13 23 26 22 23 22 26 30 33 29 31 30 29 24 23 19 18 20 51 53 49 48 43 37 41 47 47 42 36 33 30 31 31 37 35 32 30 24
42 40 40 58 50 38 22 17 22 14 12 18 44 40 30 25 27 27 30 32 30 30 35 31 27 27 24 20 20 42 54 55 51 49 44 39 35 31 25 18 16 16 25 33 36 36 31 25 20
42 52 70 68 60 61 41 31 47 23 28 63 84 91 47 32 32 33 38 27 27 28 41 39 35 32 28 24 21 29 54 56 52 49 45 41 36 27 16 13 14 22 32 36 40 38 22 24 24
67 62 81 99 98 97 69 80 46 34 57 100 87 72 69 47 37 33 38 31 26 32 45 43 40 37 32 25 22 28 53 57 48 46 44 41 32 27 26 28 30 35 41 42 37 26 26 26 40
52 75 78 99 100 100 97 75 95 42 52 95 62 54 50 48 40 40 39 38 33 39 40 38 37 36 33 26 29 40 59 53 48 49 52 57 62 64 61 51 42 45 46 37 30 25 40 64 72
68 88 100 100 100 93 99 35 100 92 78 69 84 59 44 39 38 44 43 40 42 44 41 35 34 34 33 35 40 52 60 51 53 58 62 72 80 76 64 52 49 49 40 31 29 58 79 76 70

GFSSGP_500_rhum_015.txt.gz
RH
7 7 6 6 6 6 9 11 11 11 13 11 10 14 14 16 29 52 30 27 16 10 8 10 8 9 11 10 8 8 8 7 7 6 6 8 8 8 9 9 10 10 10 12 15 16 17 17 18
9 9 8 7 6 5 8 9 9 12 13 13 13 14 15 20 15 21 26 27 23 19 16 14 14 16 13 10 9 8 8 8 8 7 8 9 9 10 10 11 11 12 13 12 12 13 15 18 19
11 10 9 8 7 7 7 9 9 9 13 15 15 16 15 16 15 16 23 27 29 25 17 19 18 19 11 10 9 8 8 8 8 10 10 11 11 11 11 11 12 13 16 17 18 16 16 16 16
13 12 10 9 8 10 8 6 7 11 14 16 17 18 17 16 17 19 22 26 59 44 40 37 24 23 26 24 10 9 8 9 10 12 13 14 13 13 13 14 14 15 14 17 22 22 23 27 30
12 11 10 8 9 12 10 9 7 7 13 17 18 20 20 18 20 22 24 25 88 65 60 67 30 25 32 28 13 12 12 12 12 16 18 18 19 20 20 20 21 21 20 21 22 27 31 33 34
12 11 9 8 10 14 13 11 9 7 9 18 22 23 25 22 22 23 24 27 33 49 33 34 26 24 22 18 13 12 14 16 18 25 27 29 28 26 27 27 28 28 30 31 32 35 36 36 34
14 11 9 8 10 13 14 12 9 10 9 14 22 23 27 23 23 23 25 26 27 28 31 35 24 22 23 23 16 15 15 18 21 35 36 37 39 36 32 31 31 32 32 36 37 37 36 35 33
14 9 8 8 11 13 17 12 12 11 11 9 12 29 32 18 27 28 27 25 24 25 26 26 26 30 28 26 21 19 20 22 22 29 43 39 42 45 43 35 34 34 38 40 40 38 36 35 32
13 8 7 10 13 15 14 11 14 12 12 12 14 23 20 27 32 32 30 28 26 24 22 24 26 29 30 53 20 21 25 26 25 25 32 48 46 50 52 44 38 40 40 42 43 40 38 38 33
11 8 10 14 13 11 11 12 13 9 12 12 14 15 16 21 32 33 35 34 30 28 24 25 28 28 28 37 24 26 30 31 28 25 30 43 52 50 57 58 48 41 40 41 44 43 43 42 36
9 8 13 10 13 11 9 10 11 10 11 13 14 16 15 15 18 36 39 36 36 33 30 28 29 27 25 24 31 49 33 55 37 31 26 31 53 66 57 56 58 56 50 43 43 50 51 44 39
7 9 10 11 11 12 11 10 10 8 10 10 12 13 10 16 14 15 34 42 40 39 36 31 32 31 26 25 50 92 90 42 36 34 32 26 27 39 62 63 54 51 54 56 52 49 51 49 44
7 9 8 10 11 12 11 10 9 8 11 10 9 9 10 11 12 13 15 30 48 46 39 35 32 32 29 25 29 40 62 52 50 44 33 31 28 35 41 51 56 53 53 53 57 55 59 56 45
7 8 9 10 11 11 10 11 8 10 12 10 9 9 10 10 12 14 15 16 30 51 46 40 35 33 30 28 28 34 85 57 36 36 45 34 35 34 46 50 49 53 57 62 59 56 58 54 47
8 11 11 11 12 11 10 10 9 13 11 10 10 10 10 9 11 11 12 15 18 34 54 49 41 38 34 32 29 32 36 37 37 37 36 35 37 37 35 56 60 66 73 76 74 66 61 54 50
11 10 12 11 13 11 10 10 11 12 11 11 10 11 11 11 11 14 14 13 16 16 24 46 49 44 36 34 34 32 32 35 34 34 33 32 34 44 45 48 65 81 76 76 72 70 62 48 50
14 14 15 14 14 10 10 9 13 11 14 11 12 11 12 11 11 11 14 16 14 12 14 15 33 47 44 41 38 36 37 42 39 32 35 34 41 42 49 54 69 83 76 75 66 58 49 50 52
17 16 18 18 16 13 9 7 11 11 14 12 12 13 12 12 12 12 12 16 19 15 13 10 11 25 46 48 43 40 39 42 42 34 37 36 40 35 38 50 60 75 79 75 57 50 51 55 54
15 16 16 16 16 12 8 6 6 8 9 13 13 14 14 13 16 14 11 12 18 21 19 16 13 14 21 39 49 50 46 43 49 48 49 43 36 32 38 52 50 71 82 79 59 55 59 60 59
13 14 13 13 13 11 11 7 8 9 9 10 10 12 12 13 16 16 15 12 12 15 20 24 19 15 13 15 33 50 51 50 51 57 59 64 40 38 30 34 44 59 80 80 73 69 69 71 74
15 13 13 13 12 13 12 7 13 8 9 11 13 13 14 16 15 15 18 18 15 13 14 19 21 22 18 15 15 17 33 55 56 59 60 56 44 41 30 25 42 55 73 79 80 81 78 74 81
16 16 16 16 15 14 13 9 9 10 10 10 12 16 15 16 16 16 16 17 18 16 15 15 18 24 24 18 18 16 17 27 59 58 59 58 52 53 42 31 41 56 64 69 81 84 78 67 60
17 17 15 12 11 12 14 18 8 15 16 17 15 13 12 15 18 17 17 17 19 20 16 18 15 25 25 23 22 20 16 16 56 62 62 61 52 45 51 31 28 45 55 59 58 50 46 45 41
12 14 21 25 25 21 22 33 12 16 20 17 16 15 15 16 14 15 17 19 18 18 18 20 17 21 26 26 26 22 19 20 46 61 65 59 50 37 42 53 52 44 47 50 49 44 38 29 24
26 26 27 26 27 22 35 40 15 18 31 34 30 25 22 17 14 14 15 17 20 19 18 23 24 20 28 28 27 24 20 23 33 51 64 57 50 46 42 44 49 51 48 40 30 24 22 21 20
26 24 34 36 34 31 43 42 32 38 31 35 30 18 16 12 13 11 11 16 17 19 18 28 32 29 33 32 27 23 22 26 38 45 63 59 57 52 48 45 42 38 33 23 17 23 33 32 28
26 35 40 41 50 58 38 44 43 47 47 61 56 46 34 23 12 10 9 18 19 19 20 30 39 35 36 30 25 25 26 35 27 46 61 63 57 56 53 49 44 35 27 25 31 38 40 41 41
31 34 56 65 52 69 34 40 47 81 63 80 45 46 39 29 15 22 40 28 23 21 23 33 39 35 39 31 27 29 32 27 26 49 61 66 60 57 52 47 43 45 62 64 58 51 50 46 34
48 53 58 74 78 78 51 22 75 77 70 76 85 82 75 83 95 85 85 48 26 23 32 36 35 32 36 34 32 33 36 33 39 51 72 70 61 60 61 64 76 81 79 71 57 54 51 38 33
56 59 67 75 87 74 60 27 52 78 95 99 65 58 67 81 98 92 83 60 34 29 44 42 32 31 40 42 41 39 38 38 35 65 72 66 65 68 72 81 91 94 85 59 66 68 44 43 84

GFSSGP_500_rhum_018.txt.gz
RH
5 5 5 5 6 6 9 12 9 11 13 12 9 11 21 26 23 26 28 22 25 17 9 8 6 5 7 9 8 7 7 8 7 6 6 6 5 5 6 6 8 9 10 9 11 12 14 16 17
7 7 6 6 5 4 5 7 7 11 10 11 14 12 13 19 16 19 22 20 24 24 19 14 12 10 8 8 8 8 8 7 7 7 7 6 6 6 7 8 10 10 11 11 12 12 12 13 15
9 8 7 6 5 6 6 6 9 4 7 12 14 14 14 13 9 13 20 18 17 22 22 20 16 14 10 10 8 7 6 6 6 6 7 7 7 8 9 9 10 11 11 13 14 14 14 17 18
12 10 9 8 8 9 7 8 5 5 8 10 13 17 17 13 14 19 17 17 17 17 19 23 22 20 18 17 10 7 6 6 6 6 7 7 9 10 12 12 12 12 13 14 14 15 20 21 22
12 11 10 8 9 11 10 9 7 7 6 6 13 20 16 15 15 16 17 17 19 17 30 34 29 33 31 20 18 16 10 7 7 7 7 9 11 13 15 18 20 19 18 18 18 20 23 26 27
11 12 10 9 11 12 13 12 10 9 8 6 7 20 17 14 17 19 19 20 20 20 22 32 33 27 26 20 20 19 16 10 10 10 10 14 16 20 21 21 24 25 27 29 30 30 31 32 34
11 12 11 11 10 11 13 14 11 11 10 9 8 14 22 9 18 21 22 22 22 20 22 19 20 18 19 17 17 19 17 14 13 13 13 18 23 27 32 32 30 31 32 32 33 34 35 36 36
13 12 10 11 10 11 12 13 9 10 11 11 9 11 24 9 16 24 26 26 25 24 21 20 18 18 17 17 21 19 16 15 15 16 17 18 25 32 35 40 37 34 33 34 38 40 40 39 37
12 10 10 12 12 11 14 13 9 9 10 11 10 14 12 10 14 26 29 30 28 26 24 24 21 18 18 19 21 20 23 17 19 22 22 20 22 30 34 41 42 39 36 36 38 41 44 42 40
12 10 10 13 11 10 11 10 8 8 11 10 10 14 10 12 17 25 28 29 30 31 29 26 23 22 21 21 22 19 24 20 23 25 25 24 23 28 35 42 44 46 45 39 38 40 41 44 45
12 9 12 13 10 9 12 11 10 10 8 9 11 11 11 12 12 13 19 24 31 32 32 30 26 25 25 24 24 23 20 22 28 26 35 33 27 24 32 50 51 48 50 55 52 46 43 42 44
10 9 13 13 9 8 10 12 8 9 9 9 10 10 10 10 10 14 16 16 16 26 34 34 33 30 31 27 28 24 22 23 48 65 55 35 35 31 28 28 36 59 60 58 54 54 55 55 53
7 7 13 13 8 7 10 10 10 8 8 12 11 10 10 7 12 13 13 14 14 12 24 36 37 36 34 31 32 30 30 28 51 64 57 38 38 35 35 31 30 38 39 44 43 44 46 48 54
6 6 11 12 10 10 8 9 8 8 11 10 9 8 8 8 10 9 9 10 12 13 12 18 40 44 36 34 35 34 30 28 33 45 86 49 37 37 38 38 34 30 36 38 37 41 46 54 59
8 11 13 11 11 9 9 8 8 10 10 9 8 8 8 9 10 8 8 8 9 11 10 11 13 38 44 40 38 40 37 30 36 34 40 40 38 45 36 35 38 38 36 37 46 65 67 72 71
15 12 14 12 10 9 9 8 11 8 10 8 8 8 9 10 10 11 10 9 9 10 9 8 11 12 36 46 44 43 39 35 37 35 34 36 38 40 35 32 38 39 40 45 51 65 75 74 72
21 16 16 11 10 10 10 8 12 9 10 8 8 9 9 10 10 11 12 11 12 12 10 7 7 10 12 32 42 45 42 36 36 40 45 45 43 39 34 35 39 40 37 41 51 61 76 76 66
23 18 14 12 9 13 10 8 10 10 9 10 10 10 10 10 10 13 15 14 13 14 14 12 10 9 9 13 27 35 46 46 47 46 44 48 45 36 42 41 37 34 32 39 46 49 76 79 69
21 17 15 13 12 12 13 9 10 11 9 12 11 10 12 12 12 12 12 14 14 14 14 13 14 13 13 12 11 15 27 41 46 47 50 50 52 56 52 55 41 34 30 36 40 49 72 82 78
23 20 21 24 22 12 15 12 11 10 9 8 10 12 13 11 13 15 11 11 14 14 13 13 14 17 17 12 14 18 14 14 24 44 50 58 59 58 61 60 56 38 36 26 32 48 61 78 81
27 23 22 18 18 14 12 9 10 8 7 9 9 9 9 10 11 11 12 12 12 14 14 14 12 15 18 14 15 19 24 17 14 22 33 46 60 59 62 62 55 45 46 27 30 49 58 71 76
22 17 18 18 16 13 12 8 9 9 10 10 12 14 11 10 11 12 13 13 15 14 16 15 15 14 14 14 12 14 21 18 16 16 22 37 40 63 62 63 59 53 53 37 32 37 52 63 67
19 18 18 17 16 13 13 11 6 7 8 10 12 11 13 15 13 14 14 14 14 15 16 17 14 16 16 15 21 18 17 21 19 19 20 31 36 60 64 70 68 53 45 50 47 36 33 39 46
18 17 18 16 14 11 13 15 5 7 13 16 17 17 15 16 15 15 16 15 15 17 17 16 16 16 15 18 19 16 16 22 23 23 23 35 39 52 70 70 63 58 42 38 41 49 52 51 43
18 17 14 15 16 13 20 12 7 13 20 20 21 19 21 25 28 22 15 12 14 15 16 18 16 17 17 19 20 18 20 26 27 27 30 40 42 44 67 64 62 61 51 47 45 43 41 37 28
16 18 29 22 16 12 19 10 12 15 17 24 29 24 22 21 24 29 28 23 18 16 16 15 15 18 20 19 26 23 16 29 30 30 37 41 42 42 56 62 65 56 54 54 51 47 38 30 39
24 27 27 26 25 17 14 17 21 32 45 33 24 28 27 28 53 45 38 31 26 21 17 17 13 18 22 21 32 23 26 35 34 36 41 45 38 39 54 67 65 61 60 54 48 46 56 75 72
26 27 29 29 28 21 17 26 36 65 69 53 35 38 37 32 47 59 45 43 29 18 16 13 13 16 20 22 28 29 43 38 32 36 39 48 41 44 57 68 70 63 56 59 66 82 91 90 75
32 30 33 37 36 42 25 27 55 76 69 50 46 50 51 51 45 62 49 33 29 20 13 12 11 15 17 23 28 41 46 37 31 33 42 44 42 52 57 74 69 63 66 75 90 99 97 78 56
29 41 47 46 61 51 56 21 58 78 64 75 71 89 86 72 50 56 55 39 29 36 29 40 22 28 16 29 42 42 44 37 33 34 37 46 54 53 73 72 67 69 81 99 98 98 83 61 81

GFSSGP_500_rhum_021.txt.gz
RH
14 14 12 10 10 10 11 12 10 10 11 10 11 10 15 19 21 29 24 18 21 26 20 12 8 6 6 5 5 6 6 5 5 6 7 6 6 5 5 5 5 6 8 9 9 10 12 12 13
14 11 9 7 8 8 11 12 10 9 10 11 14 14 13 10 12 13 18 21 20 23 25 20 17 13 8 6 6 6 8 7 7 6 6 7 6 6 6 6 6 6 8 9 10 12 12 12 11
10 6 5 4 4 5 6 5 5 4 5 11 12 12 11 8 10 11 12 17 15 16 17 19 21 24 17 10 8 7 8 7 7 6 6 6 6 6 6 6 7 8 8 10 11 14 15 14 14
7 6 6 6 6 8 8 6 5 4 4 8 8 14 9 8 11 12 13 15 14 13 14 14 16 22 23 16 14 11 8 6 6 5 6 6 6 7 7 8 9 9 10 11 12 14 15 15 16
8 7 7 6 8 10 10 10 7 5 6 8 13 10 8 8 13 11 12 13 14 15 14 14 14 16 21 26 28 22 16 13 9 7 5 6 8 8 9 10 12 14 15 16 17 17 17 19 21
10 9 7 7 10 11 12 13 10 7 7 6 7 7 5 7 9 12 11 12 15 16 16 16 15 19 20 16 19 20 18 18 18 11 9 7 8 9 12 14 17 22 24 24 26 28 29 30 31
12 11 9 10 10 11 13 13 11 9 8 10 7 7 4 4 8 9 9 10 15 18 19 20 18 16 16 14 14 14 14 15 17 15 12 10 10 11 14 18 22 27 29 32 33 33 33 36 36
16 12 10 8 10 11 12 12 13 10 8 11 8 8 6 6 6 12 12 11 18 20 22 20 20 19 18 16 16 17 18 17 17 15 15 16 15 15 18 24 27 29 31 32 33 35 37 40 40
17 11 10 11 11 14 13 10 10 8 7 11 11 10 8 7 6 7 14 11 15 22 24 24 24 23 21 20 19 19 18 17 22 20 17 18 21 21 23 29 33 34 36 37 35 36 39 42 43
14 12 12 14 14 13 11 9 8 6 6 13 11 11 10 10 9 8 10 12 8 16 20 23 25 26 24 23 21 20 21 19 19 22 22 23 23 24 25 26 30 35 41 44 44 38 38 40 42
13 10 13 14 13 12 10 10 7 7 7 11 12 11 10 9 10 9 8 8 8 7 16 19 23 26 27 26 25 24 24 22 20 20 23 26 35 33 32 31 26 28 35 42 45 46 51 50 49
13 12 13 14 12 10 11 10 7 8 9 8 12 10 8 10 8 8 9 10 9 9 8 9 17 24 26 30 30 28 26 26 25 22 22 41 53 58 37 44 40 33 28 28 33 44 50 52 49
12 12 12 13 11 9 10 9 7 8 8 11 10 10 9 8 9 11 13 14 9 8 9 9 8 12 18 32 31 35 32 30 31 30 26 36 49 51 56 40 41 37 34 31 29 33 34 35 34
12 11 10 10 10 7 10 10 6 7 10 9 10 8 9 8 8 11 15 15 10 7 6 7 6 5 7 16 27 36 38 36 33 34 30 29 35 72 64 38 42 40 35 34 33 31 31 32 40
11 12 12 11 11 8 11 9 6 10 8 7 8 9 8 8 7 8 12 12 8 7 5 6 7 5 5 9 15 32 40 40 39 36 34 34 36 38 38 36 38 37 34 31 31 31 33 37 44
10 10 10 16 10 9 9 8 8 8 7 7 8 7 8 7 7 8 10 10 10 8 6 6 6 6 4 6 12 15 28 42 44 40 37 38 42 38 37 41 45 36 35 35 38 37 34 34 43
9 10 11 13 14 10 8 8 8 7 7 7 8 7 7 8 8 9 10 11 12 12 10 8 7 8 8 7 11 12 18 26 47 46 44 41 43 48 46 48 46 37 39 37 34 35 32 34 42
13 11 10 12 13 10 9 7 8 7 7 8 8 8 7 8 9 10 10 12 12 13 13 11 9 9 9 10 11 13 19 25 37 46 48 52 48 44 45 49 54 54 50 51 44 32 30 33 37
12 12 14 22 17 15 14 9 7 8 7 9 8 9 10 10 10 10 10 11 12 14 14 12 10 9 10 23 18 12 13 15 10 16 29 49 53 52 56 52 53 58 58 60 56 42 34 29 29
13 16 23 26 21 10 12 10 8 8 9 10 12 11 12 11 11 11 10 10 11 12 14 14 11 9 8 11 17 19 17 25 24 33 29 20 23 36 50 54 57 58 64 61 55 50 43 35 26
23 18 22 22 22 17 12 9 9 9 10 13 13 13 12 11 11 12 12 11 11 11 14 16 14 10 9 12 27 31 31 31 42 41 35 27 18 21 24 36 40 61 60 59 59 55 52 49 33
26 25 26 24 22 17 12 8 9 10 11 12 12 10 9 9 9 10 11 10 10 10 13 13 14 13 11 14 18 14 22 20 24 28 28 25 17 19 22 23 34 46 59 61 64 64 51 52 54
28 25 25 21 17 14 13 10 6 10 11 12 10 9 10 11 11 11 11 10 10 11 12 14 15 14 13 12 12 14 16 19 23 35 36 33 29 22 22 24 32 36 59 70 68 60 56 43 44
26 23 22 18 15 12 12 10 6 7 8 11 11 11 11 12 12 12 13 13 14 14 13 14 15 16 14 13 13 13 18 22 22 35 39 31 29 28 32 29 48 49 50 66 67 65 61 55 52
22 21 19 16 14 10 9 7 6 11 14 13 14 15 17 17 15 14 12 11 11 14 16 17 18 18 16 15 15 14 17 21 26 38 47 30 33 40 44 43 41 39 43 61 62 64 60 58 56
18 21 20 16 13 10 10 8 9 13 18 25 23 22 20 21 28 29 19 15 12 12 15 16 20 20 18 15 16 16 16 19 41 53 41 26 34 44 49 46 45 45 43 54 63 67 62 56 54
25 22 22 20 18 13 14 13 12 19 37 43 38 39 49 49 52 46 37 30 22 24 20 14 17 25 21 16 16 18 18 24 39 52 36 32 35 39 54 52 54 43 42 57 67 67 60 60 69
23 25 23 23 19 16 13 15 22 50 41 38 46 56 57 65 72 65 49 43 47 37 19 16 20 25 29 22 19 15 20 30 42 44 38 40 40 53 54 55 54 45 55 56 69 67 65 74 79
30 28 23 23 24 27 22 26 68 45 43 46 55 73 84 99 100 93 85 69 48 43 29 21 39 43 32 25 26 16 18 33 40 39 41 45 52 60 51 57 54 60 57 68 74 69 71 73 78
24 25 27 38 41 36 42 35 52 56 45 33 38 64 94 100 99 98 92 69 30 37 42 34 46 32 32 36 39 22 18 27 37 42 49 54 51 47 58 63 52 59 66 77 72 66 72 84 89

GFSSGP_500_rhum_024.txt.gz
RH
14 12 11 10 11 11 12 13 11 12 12 13 15 12 13 20 29 31 21 22 21 19 25 21 14 11 9 6 4 4 5 6 6 5 6 6 6 6 6 6 6 5 6 6 7 8 8 9 11
15 14 13 12 12 12 13 12 11 10 10 10 11 10 11 12 18 18 16 16 18 20 17 19 21 20 16 10 6 5 5 6 7 8 7 6 6 6 7 6 6 6 6 7 8 10 10 10 12
15 13 12 10 10 12 13 12 10 11 11 11 9 8 7 8 10 11 12 15 14 15 16 16 15 20 22 18 15 11 7 6 6 6 7 7 7 7 7 7 6 6 8 8 10 11 12 13 14
14 14 11 10 9 7 6 5 5 6 6 8 8 8 7 7 9 12 13 15 13 11 11 12 11 12 15 20 20 17 15 12 9 8 7 5 6 6 7 8 8 8 9 10 11 11 13 15 16
18 13 11 10 8 8 7 5 5 5 6 5 8 6 4 5 6 10 12 12 13 12 14 14 12 12 12 13 17 24 25 25 17 13 12 10 6 6 6 8 9 10 11 12 13 14 15 17 18
18 14 10 9 8 10 10 8 6 6 5 5 7 6 5 4 4 5 8 12 12 12 13 14 15 15 14 13 13 14 17 18 18 16 17 15 11 9 9 9 10 12 14 18 21 24 25 26 29
18 11 8 8 10 9 13 11 8 6 6 6 7 5 4 5 4 5 6 11 11 12 15 16 17 17 17 16 14 14 15 15 15 15 14 16 14 12 11 11 15 17 22 24 26 29 31 31 34
12 8 7 8 11 12 13 12 11 8 7 8 7 6 5 5 4 4 5 8 13 17 21 20 20 21 20 19 17 16 16 17 17 19 19 16 14 15 15 15 21 26 32 33 33 34 34 35 38
10 7 7 10 13 14 14 12 12 9 7 7 8 6 6 6 5 4 4 5 8 13 25 29 29 23 22 21 20 19 17 17 16 17 20 20 20 20 18 18 21 30 35 39 42 39 38 37 39
10 6 10 14 16 14 14 10 10 9 8 7 6 8 6 6 7 5 5 6 5 8 14 24 22 24 25 24 23 22 21 20 18 17 19 22 21 22 26 26 24 25 30 39 44 50 46 40 39
12 8 14 16 19 16 12 11 9 8 8 7 6 8 6 6 6 7 6 6 9 10 8 12 16 22 27 30 30 28 26 24 23 21 19 22 21 26 35 44 35 32 32 29 28 35 45 46 45
12 13 15 16 17 15 12 11 11 9 10 8 8 8 6 6 8 9 7 7 8 12 12 9 11 16 23 24 27 29 28 27 26 25 23 20 21 23 42 72 50 46 42 36 33 32 29 29 33
15 15 15 16 14 12 11 11 11 11 10 9 7 7 6 6 7 8 8 8 10 10 13 12 11 12 12 22 21 25 30 33 31 32 31 29 27 26 35 41 46 48 38 39 37 34 33 32 31
14 16 14 15 13 12 12 11 10 11 14 9 8 7 7 7 6 7 8 9 10 11 8 8 8 10 12 11 12 16 19 30 36 36 37 36 34 32 28 33 61 67 39 35 38 35 32 31 31
17 16 15 15 16 14 13 10 6 10 12 8 7 7 7 7 6 6 8 10 9 8 6 8 11 6 8 6 8 10 12 23 31 35 38 38 36 34 34 36 36 35 36 40 41 36 35 36 37
14 14 14 17 16 15 13 7 8 8 10 7 7 8 7 7 7 6 7 8 10 7 6 6 15 15 16 7 6 9 16 19 16 26 40 44 42 42 43 40 35 41 46 44 42 33 34 33 35
11 10 11 14 13 13 11 8 9 6 7 9 8 7 7 8 7 7 8 7 8 8 6 7 12 31 14 16 18 20 17 22 21 25 44 54 49 45 42 40 42 45 45 44 47 49 50 52 40
16 13 10 10 10 11 10 8 9 8 8 8 8 7 7 7 9 8 7 7 8 8 8 7 6 9 33 29 31 37 40 30 20 30 32 38 44 46 48 47 47 46 45 46 49 55 59 56 52
19 17 14 11 10 8 9 8 8 13 8 10 10 8 8 8 11 8 8 8 8 10 9 8 7 7 18 40 37 34 36 39 20 22 21 18 19 32 39 47 49 48 50 51 54 54 53 56 54
21 19 16 13 10 8 8 7 8 10 10 9 9 8 9 11 13 12 10 10 10 10 11 11 10 9 8 16 32 26 24 26 21 25 18 26 30 42 34 23 22 24 30 37 47 58 61 59 58
48 27 17 14 12 10 8 7 9 12 12 11 9 9 10 13 14 14 14 14 14 14 14 14 14 12 10 10 15 34 47 44 46 53 47 44 40 41 37 37 23 20 36 33 32 39 58 63 63
26 18 17 17 16 11 11 9 10 12 10 11 11 11 14 16 16 16 15 14 13 13 14 15 16 14 12 12 16 22 19 40 45 43 50 48 50 44 31 32 27 20 24 25 31 38 59 64 68
22 21 20 18 16 12 15 10 9 12 12 12 13 13 13 13 13 12 12 11 10 10 10 12 13 12 10 12 12 19 24 28 34 35 33 34 43 61 57 50 44 35 33 25 36 46 48 57 66
28 30 26 22 20 13 16 11 9 10 10 11 12 11 11 10 10 10 10 10 10 10 10 10 10 12 12 10 9 11 13 16 23 24 26 28 33 46 58 58 45 42 41 40 46 47 44 46 58
35 36 28 22 18 14 13 11 10 11 13 13 13 12 11 11 11 11 11 11 13 14 13 14 14 15 17 13 10 9 9 12 14 18 24 30 38 44 54 63 55 47 48 56 49 40 42 42 52
30 25 22 17 14 13 12 9 11 18 20 15 13 13 14 14 12 12 14 15 15 17 20 21 17 15 16 17 15 14 12 10 13 25 24 36 39 43 57 69 64 48 59 58 54 61 44 42 47
28 22 19 18 15 11 14 14 16 30 25 21 22 20 22 24 28 31 34 34 33 36 39 39 34 21 19 15 15 16 15 15 14 18 24 27 54 52 68 75 40 48 53 62 63 57 48 54 48
22 21 23 22 18 16 14 15 50 44 38 32 29 33 34 31 29 35 37 35 50 56 59 60 45 34 26 19 14 15 15 19 19 22 35 35 46 58 62 66 42 52 58 65 71 57 54 54 57
24 22 25 26 22 20 24 37 34 34 26 33 40 34 34 39 36 30 28 28 37 65 77 84 66 42 33 25 19 14 14 19 28 31 43 49 54 54 67 56 50 62 64 68 60 58 82 54 62
31 28 23 23 24 38 44 47 50 31 44 46 42 34 39 40 25 25 28 32 94 93 97 92 84 68 52 40 28 22 16 20 34 41 45 45 46 53 66 55 61 70 63 97 68 95 62 58 71

GFSSGP_500_rhum_027.txt.gz
RH
18 17 16 15 15 13 14 13 14 14 14 16 18 23 24 24 23 25 21 22 25 22 23 19 18 18 16 10 8 5 3 3 4 5 4 4 5 5 6 6 6 6 6 5 6 6 7 9 10
19 17 16 14 13 13 14 13 11 12 13 13 13 13 14 17 20 20 17 18 17 19 18 16 16 19 21 17 13 10 6 4 4 5 5 6 6 6 6 6 7 7 6 6 7 7 9 10 11
18 17 14 11 11 12 13 11 10 10 10 11 12 12 12 12 15 15 12 12 14 14 14 15 14 14 17 18 18 18 15 11 8 6 6 6 6 6 6 6 7 8 8 8 8 9 9 11 13
22 18 16 12 12 17 17 13 12 11 10 10 9 8 8 9 10 10 10 12 10 10 11 11 11 10 12 13 12 17 20 19 16 13 10 9 8 6 6 6 6 7 8 8 9 10 11 13 16
22 19 15 12 14 19 15 12 9 9 9 9 9 8 9 8 9 10 9 10 10 10 11 11 11 10 11 12 11 11 13 17 19 21 20 16 13 12 10 8 7 8 10 11 12 13 14 14 16
23 18 15 13 17 17 12 9 7 6 4 4 4 4 4 5 6 7 8 9 10 11 11 12 13 14 13 12 12 11 14 19 16 14 14 14 14 16 15 12 10 11 13 17 18 20 22 23 23
21 20 16 17 20 14 11 8 6 5 4 5 4 4 4 4 6 5 6 8 9 10 12 14 14 14 15 16 16 15 13 15 16 16 16 16 16 16 15 14 14 12 15 19 20 24 27 28 31
23 21 16 16 19 12 11 7 6 5 6 6 5 6 5 6 5 5 6 8 9 10 11 12 14 16 18 18 19 19 17 15 16 17 18 17 18 18 16 16 16 15 17 22 27 30 31 32 34
25 18 13 17 18 14 13 9 8 7 6 6 6 6 7 6 6 6 6 6 7 9 10 13 20 28 24 22 22 21 20 18 17 16 17 18 18 19 20 22 22 21 20 21 27 33 40 40 37
21 16 15 21 15 15 13 10 9 8 7 8 7 7 7 6 6 6 7 7 7 7 7 13 23 25 29 22 20 22 23 22 21 21 19 19 18 18 20 21 23 27 28 26 26 29 34 41 44
12 12 13 18 14 15 14 11 10 9 9 8 8 7 6 6 5 6 6 7 8 6 6 9 18 19 30 19 20 23 24 24 24 24 23 20 19 20 19 20 27 36 37 33 35 34 33 30 28
10 9 12 16 17 16 13 12 9 10 10 10 10 7 6 5 5 5 6 7 8 8 8 7 13 13 13 14 17 24 23 22 26 25 26 25 23 23 24 24 25 45 55 44 38 36 36 35 34
13 13 16 17 19 15 14 12 12 10 11 10 10 9 6 5 5 5 6 6 7 10 11 11 12 13 11 12 15 21 21 21 19 25 30 32 31 30 30 29 30 30 34 53 54 42 36 35 33
15 16 16 18 18 16 15 14 13 12 13 13 12 11 7 5 5 5 6 6 7 11 20 15 12 13 13 12 12 12 12 14 16 22 31 34 35 36 36 34 32 30 31 38 44 35 36 38 34
18 19 19 17 19 17 17 13 10 11 13 11 10 10 8 5 5 6 6 6 7 8 9 16 21 19 12 10 9 8 9 9 12 21 32 34 34 38 40 39 40 37 35 39 37 41 41 39 34
20 18 18 19 19 18 16 9 12 12 12 9 7 8 9 7 7 6 7 7 7 7 7 8 8 21 25 26 24 11 8 10 16 13 23 29 35 44 45 46 44 41 40 37 43 45 45 43 42
14 16 17 20 18 17 14 9 13 12 11 10 8 7 8 9 8 8 8 8 8 7 6 6 6 6 10 21 40 43 28 23 14 21 25 28 32 43 54 52 46 48 45 45 44 43 44 44 45
15 14 14 15 16 15 13 10 13 13 11 9 8 8 8 9 8 10 8 8 8 8 7 6 5 6 7 9 31 47 49 35 39 38 34 25 24 32 39 46 50 48 50 50 47 46 45 47 51
19 15 12 12 12 11 11 9 10 12 10 10 9 8 8 10 11 8 8 8 8 8 7 8 7 7 8 11 18 40 57 61 51 57 46 29 26 28 32 37 37 41 42 41 43 38 38 38 45
21 17 17 18 15 10 9 8 9 10 10 9 9 8 10 10 11 10 8 8 9 9 10 10 9 7 7 9 11 11 18 43 57 55 54 45 28 22 23 31 30 30 27 19 19 18 24 30 29
20 20 20 20 18 15 15 13 10 9 9 9 9 8 9 11 11 10 9 9 10 11 12 12 11 10 8 8 12 16 24 22 29 46 63 59 50 43 33 37 36 45 47 37 22 19 23 22 28
53 45 36 28 22 18 18 15 15 12 11 10 11 11 12 12 10 11 11 12 13 13 13 13 14 13 12 10 10 19 21 23 28 40 52 65 75 70 63 51 52 56 46 38 34 25 27 24 26
70 68 59 34 26 20 16 15 14 17 15 14 13 11 11 10 10 11 12 14 16 16 15 15 14 14 14 14 13 14 21 20 19 23 27 36 52 73 69 72 72 61 62 63 55 42 38 31 31
33 42 25 19 16 15 16 14 14 15 15 15 14 13 11 11 10 11 12 12 12 13 13 13 13 13 12 12 11 10 13 20 22 27 29 35 44 51 52 58 56 61 63 62 72 58 44 48 46
23 21 19 19 17 16 17 13 16 15 14 11 11 12 12 11 12 12 11 11 10 10 10 11 12 12 11 11 10 10 10 10 16 23 33 31 29 40 40 41 52 56 74 68 69 77 57 51 60
24 25 22 20 20 19 15 13 15 15 17 11 10 9 9 9 9 9 10 10 11 13 16 16 15 15 14 15 14 12 10 9 8 11 14 38 30 19 30 46 66 73 72 73 72 83 74 58 58
45 36 33 25 18 15 14 14 17 17 14 13 11 11 12 13 15 19 23 22 22 25 29 32 36 36 32 25 24 20 17 14 12 10 9 11 31 43 35 40 54 65 67 71 81 84 69 56 55
41 33 26 20 15 15 13 16 22 16 16 17 25 24 24 24 24 27 28 28 29 29 33 36 37 38 42 49 49 34 25 21 17 15 14 13 28 22 37 32 56 69 69 70 80 69 65 54 55
27 24 22 21 19 15 14 27 31 26 30 29 24 22 22 29 34 31 37 33 25 24 25 26 26 23 30 68 63 53 46 32 24 19 16 16 21 28 32 46 56 61 62 70 70 60 59 60 98
24 23 24 24 20 19 21 45 50 41 33 28 24 25 30 37 35 27 23 21 19 21 22 32 39 29 45 85 92 82 60 39 32 24 20 16 24 40 41 49 61 55 56 58 65 57 57 59 77

GFSSGP_500_rhum_030.txt.gz
RH
30 26 27 27 31 29 31 31 29 29 28 29 30 29 25 23 20 19 19 20 20 21 19 19 18 17 17 12 10 9 8 6 4 3 3 4 4 4 4 5 5 6 6 6 6 6 6 7 8
29 25 22 24 24 21 19 18 18 18 19 17 19 23 22 23 22 19 19 19 21 18 18 18 16 15 15 15 15 14 13 10 6 5 4 4 4 4 5 5 5 5 6 6 7 7 7 8 9
28 26 21 20 18 18 16 15 14 13 13 14 13 13 14 14 14 13 13 13 13 13 14 13 12 12 12 13 13 15 16 16 16 13 10 7 6 6 5 5 6 6 6 6 7 8 8 10 12
26 26 22 20 17 18 17 15 13 12 12 12 11 12 12 12 12 13 11 10 11 11 10 9 8 7 7 10 10 10 10 11 13 14 16 17 15 12 10 8 6 6 6 7 8 10 11 12 13
27 23 20 17 17 19 18 14 12 11 10 10 9 9 9 10 11 11 10 9 8 8 8 8 8 8 8 10 9 8 10 10 11 12 11 13 13 16 16 16 13 11 10 8 8 9 13 15 17
26 21 16 14 16 26 22 18 15 12 11 10 9 9 9 10 10 10 11 10 10 10 9 9 10 10 10 10 10 11 11 12 12 13 13 13 12 12 12 13 14 14 13 12 12 13 15 19 23
27 22 18 18 22 22 23 20 15 13 11 10 8 6 6 6 5 5 6 8 10 11 9 9 10 11 11 12 12 13 12 13 14 15 15 16 16 16 16 16 15 15 15 14 16 18 21 27 30
32 26 20 18 22 25 22 16 14 12 10 7 6 5 6 6 6 5 6 6 8 8 8 8 9 10 12 13 14 15 15 14 15 15 16 16 16 16 17 19 20 21 20 18 18 21 24 31 34
33 26 17 17 21 28 24 17 13 11 10 7 6 6 8 7 6 6 6 6 8 7 8 8 9 10 10 15 19 20 20 18 17 18 17 17 18 18 17 16 18 19 21 23 23 23 25 27 33
34 22 19 21 28 34 26 17 13 11 9 8 7 7 8 9 8 8 7 8 8 8 7 7 7 8 11 17 25 32 26 21 22 20 21 20 20 20 18 17 17 18 21 23 23 26 29 28 28
30 21 22 30 35 37 27 19 14 11 9 9 8 7 8 8 8 10 8 8 10 12 8 9 9 10 14 24 26 33 26 21 23 23 24 24 24 23 23 22 22 20 19 20 24 30 33 32 33
30 26 25 31 32 34 26 19 13 10 9 9 10 8 8 8 9 8 8 6 6 7 9 14 12 9 11 15 16 19 19 18 22 26 25 27 28 27 25 26 26 26 24 27 33 34 33 37 36
20 20 19 20 20 21 21 16 11 9 10 10 11 10 9 8 9 8 7 6 7 7 7 8 9 10 10 16 18 15 13 13 16 24 27 30 30 30 28 28 29 29 28 28 28 28 41 63 45
19 16 19 19 17 16 14 12 9 10 13 12 12 10 9 8 9 8 7 7 6 7 8 8 9 9 9 11 12 16 11 10 11 14 19 21 23 25 30 32 33 32 31 32 31 32 35 32 32
21 19 20 19 20 14 12 9 7 14 15 14 12 11 9 8 8 9 8 8 9 9 8 8 14 19 16 18 13 18 26 19 11 9 10 11 12 18 29 33 37 37 36 35 36 36 36 35 40
18 19 18 20 22 16 14 9 10 14 15 15 14 12 10 9 8 10 10 8 10 9 8 8 15 23 20 18 27 30 27 25 18 16 13 12 12 13 21 26 31 40 45 43 42 40 39 40 41
16 15 17 21 22 19 13 10 13 14 14 13 13 12 10 9 8 8 12 9 8 9 9 9 10 13 17 9 10 23 35 47 56 44 24 20 18 22 24 18 26 38 48 50 47 44 43 43 42
16 15 16 19 21 19 13 8 14 15 14 12 12 14 13 11 10 9 9 10 8 8 8 8 8 8 8 9 9 17 24 30 44 57 58 43 40 32 25 19 22 35 46 51 47 48 45 44 37
23 18 15 14 16 17 14 11 13 16 15 14 13 13 12 12 11 9 8 10 9 7 7 8 9 10 9 9 10 9 12 39 42 51 67 62 64 50 38 36 59 34 32 32 39 41 28 22 21
24 22 21 19 15 13 13 11 14 15 14 13 13 13 12 12 12 10 8 8 9 9 7 7 8 9 9 9 10 11 12 13 21 42 50 72 70 70 78 49 30 37 29 27 26 30 29 21 18
28 24 25 22 18 12 11 10 11 10 10 9 9 9 10 10 10 10 8 6 6 8 9 8 8 9 8 8 10 9 12 12 13 13 21 34 73 72 72 68 51 26 27 31 36 46 51 43 29
31 29 26 24 19 14 13 9 12 14 15 13 11 9 8 8 8 8 8 8 8 8 8 8 8 10 11 10 10 11 12 12 14 24 36 39 38 49 70 79 79 72 58 61 51 56 60 48 44
36 27 24 21 17 14 14 11 19 20 19 18 16 14 11 9 8 8 8 8 8 9 9 9 8 8 10 12 12 12 13 15 15 16 26 33 40 39 58 86 96 93 95 97 92 81 66 73 71
100 71 68 54 38 23 26 22 23 21 18 17 16 15 14 12 11 10 9 9 10 10 10 10 11 12 12 12 12 11 11 12 12 18 19 30 37 35 41 45 62 75 80 90 89 90 78 72 80
65 81 67 43 40 25 23 19 19 19 18 17 15 14 13 12 11 10 10 10 9 9 10 10 11 11 12 12 12 13 13 12 12 12 24 30 36 44 54 56 57 52 57 71 72 71 72 77 78
32 26 29 28 25 22 20 19 19 18 17 14 13 12 12 11 10 10 10 10 9 10 10 10 10 10 10 9 10 10 10 11 12 12 13 25 47 33 42 52 58 62 51 49 60 71 80 81 79
32 24 29 24 21 22 22 22 17 15 13 12 11 10 9 10 10 9 9 10 12 17 22 24 26 25 24 22 21 19 19 15 12 11 12 12 15 45 39 42 56 71 63 50 54 65 77 72 73
32 35 37 27 26 27 22 19 16 14 12 11 10 18 26 21 19 18 18 18 18 19 24 30 33 36 40 45 49 47 40 32 28 23 18 17 17 21 56 58 51 63 98 72 74 56 58 65 66
44 46 40 33 23 19 18 22 17 13 13 16 25 29 23 20 18 16 16 20 22 23 22 22 21 22 22 23 30 40 60 69 63 51 36 27 25 24 29 46 54 68 67 66 62 57 57 65 57
40 34 27 24 23 21 22 24 16 23 39 40 32 27 25 21 21 20 22 24 22 19 13 21 32 35 31 26 37 34 36 58 89 86 69 55 36 28 26 31 31 46 61 60 54 59 56 57 72

GFSSGP_500_rhum_033.txt.gz
RH
51 48 38 37 40 35 38 39 37 35 32 29 26 23 20 18 16 14 14 15 16 16 17 16 15 14 13 12 11 10 9 8 8 6 4 3 3 3 4 4 4 4 5 6 6 6 6 7 7
40 43 40 33 34 36 37 38 38 36 35 34 34 32 30 27 25 23 22 22 21 19 19 17 16 15 15 14 13 13 13 12 12 11 8 6 5 4 4 4 4 5 5 5 6 7 7 7 7
32 32 37 35 31 34 36 35 32 33 31 29 28 25 25 26 23 19 19 19 17 15 15 15 14 13 12 13 12 11 12 12 12 13 13 13 12 9 7 5 5 5 6 6 7 8 8 9 10
29 28 34 34 30 31 27 24 24 21 19 18 18 15 14 14 14 14 13 13 13 12 11 11 10 8 8 7 7 6 6 7 6 8 8 9 11 13 14 13 12 10 8 7 7 7 7 8 10
30 28 28 34 28 24 23 20 17 16 15 14 13 13 13 13 12 12 11 10 9 9 9 9 9 7 6 7 8 7 7 7 7 7 8 7 8 8 9 10 12 14 15 14 12 10 10 10 10
31 27 25 27 28 23 23 20 17 16 14 13 12 11 10 11 12 11 10 10 9 9 10 10 10 9 9 8 8 8 8 8 8 7 8 8 9 10 9 10 12 11 12 13 14 13 13 13 13
29 27 23 25 26 24 24 21 17 15 14 12 11 10 12 15 13 11 11 10 11 11 10 10 10 10 9 7 8 9 8 8 9 10 11 11 12 12 14 13 14 15 14 14 15 15 16 18 20
35 30 23 22 24 24 24 21 18 16 16 15 14 13 13 12 11 9 8 7 7 7 9 10 10 10 10 10 10 11 11 12 13 12 12 13 14 14 14 14 13 14 18 21 21 21 21 19 19
36 32 21 20 22 26 28 27 21 17 16 14 13 11 8 8 6 6 6 6 7 8 9 10 10 9 10 10 10 11 14 21 21 20 15 15 16 15 15 15 14 12 12 15 18 19 21 21 22
39 28 23 22 29 31 30 26 22 18 16 14 12 11 7 7 7 7 8 8 8 7 7 6 6 7 8 9 10 12 17 27 33 25 17 17 17 16 17 18 18 15 15 16 17 15 18 21 25
46 30 28 29 38 35 28 27 22 18 16 14 12 10 8 8 8 8 11 10 9 9 8 7 7 6 7 8 8 12 25 30 36 27 20 19 20 20 22 22 22 21 20 19 17 19 18 22 24
56 38 33 39 40 35 29 26 23 19 18 14 12 10 8 8 10 13 12 12 11 10 9 10 11 8 8 8 9 12 20 22 27 20 16 17 22 23 24 25 24 24 25 25 26 24 23 27 26
59 46 45 49 42 36 30 24 22 21 20 16 13 10 8 8 10 11 11 9 8 10 9 10 8 7 9 18 13 11 16 18 17 13 11 14 23 23 20 19 20 22 25 25 28 29 28 26 30
64 66 63 47 45 37 30 26 20 20 22 18 13 11 10 9 10 11 12 11 8 7 8 8 8 8 8 8 8 26 10 15 14 10 9 9 12 12 13 14 14 18 20 22 26 29 30 30 32
35 62 51 33 29 26 24 22 17 23 20 17 14 12 11 10 10 10 11 11 10 8 8 10 8 9 9 9 11 10 9 10 14 27 26 16 9 9 9 8 10 19 18 21 26 31 33 35 38
29 28 42 43 20 18 16 14 13 15 17 17 14 13 12 11 10 10 11 11 11 10 9 10 10 9 8 10 17 18 19 25 22 18 25 33 13 15 10 12 11 17 19 20 26 32 37 40 40
26 24 24 25 20 17 14 14 13 14 14 15 14 15 15 15 14 14 12 10 10 10 9 9 9 9 8 11 15 20 21 28 31 38 44 56 46 26 13 16 17 20 19 17 21 28 34 42 42
23 22 21 21 22 21 15 11 15 17 14 15 17 18 18 16 16 13 10 8 8 8 8 7 8 9 10 9 17 21 24 23 20 22 29 46 62 68 54 34 30 25 20 16 19 19 24 30 31
22 20 18 18 18 17 16 10 14 17 18 18 16 17 17 16 15 12 10 9 8 8 7 7 8 9 9 9 9 9 10 14 12 12 22 32 43 60 72 62 63 43 39 46 39 24 22 20 22
28 23 20 17 16 15 15 13 18 19 17 16 15 15 15 16 15 14 12 11 10 9 8 7 6 8 8 9 9 10 10 9 11 12 20 24 45 56 73 80 74 80 79 49 53 35 28 25 25
30 27 25 21 17 14 14 13 16 17 17 14 13 14 14 15 14 13 12 11 10 9 9 7 6 6 8 8 8 9 10 10 12 14 13 25 30 31 49 66 82 79 82 76 50 36 27 30 33
32 30 29 26 20 18 15 13 16 13 12 12 12 12 11 10 9 9 8 8 8 8 8 8 7 7 7 8 8 8 8 10 12 13 15 15 21 19 26 32 42 80 90 84 74 69 56 49 54
43 37 31 25 22 19 17 15 17 14 13 11 10 10 10 10 11 11 9 8 8 7 7 7 7 7 7 7 8 8 8 8 10 13 14 16 19 28 34 43 46 49 66 81 92 95 94 96 92
51 43 35 28 23 18 18 16 21 17 16 15 15 16 16 16 16 15 14 13 12 11 10 9 9 8 8 8 8 8 8 11 11 13 14 15 17 19 24 37 45 52 61 77 93 96 92 97 99
63 49 43 36 26 21 32 32 27 22 20 20 19 18 18 17 15 14 13 13 12 11 10 10 9 9 9 8 8 8 8 8 9 12 14 16 18 22 28 39 44 45 55 53 66 76 73 81 89
100 100 92 62 64 53 46 34 23 21 19 18 17 17 15 15 14 13 12 11 10 9 8 8 8 8 9 9 10 10 12 12 12 10 11 14 15 16 48 49 46 47 58 62 62 72 78 78 74
91 81 52 50 47 35 30 25 24 22 21 19 17 14 14 12 11 10 10 9 9 11 13 15 17 19 21 24 26 28 30 30 28 24 20 18 15 18 19 31 47 53 62 71 81 77 79 81 73
51 47 43 36 32 28 30 24 23 20 17 16 14 12 11 10 11 15 17 18 16 15 14 15 16 19 23 25 25 24 25 27 31 36 40 45 38 25 22 22 27 58 68 70 75 84 89 79 77
32 30 33 40 34 34 30 24 20 17 15 13 12 12 13 20 25 22 18 16 15 12 15 17 19 17 15 13 14 20 25 28 32 30 29 44 66 60 41 30 30 30 73 84 74 72 82 87 98
31 34 38 41 38 27 22 21 17 14 13 16 21 27 31 27 21 17 14 15 20 22 21 18 15 16 16 17 21 32 52 50 52 47 39 67 100 90 77 61 41 33 33 35 54 81 81 80 88

GFSSGP_500_rhum_036.txt.gz
RH
53 62 53 44 50 49 45 41 34 30 25 20 18 16 14 13 12 12 14 13 13 12 14 14 15 15 14 13 11 10 9 9 8 7 7 6 4 3 3 3 3 3 3 4 4 5 5 6 6
59 50 59 48 42 46 46 43 41 36 33 28 25 22 19 18 18 18 18 18 18 20 20 19 18 17 16 16 15 14 13 13 12 12 12 10 8 6 6 5 4 4 4 5 5 5 5 6 7
69 41 53 52 40 39 44 43 40 40 37 35 34 32 32 29 28 26 25 25 24 21 18 16 16 15 14 13 13 12 11 11 11 10 11 12 12 13 13 12 9 6 5 4 4 5 6 6 7
75 48 39 48 44 38 43 46 38 40 39 37 37 35 32 30 29 26 24 20 17 15 14 13 12 11 10 8 8 6 5 5 5 5 5 5 5 6 7 8 11 12 12 12 9 8 8 8 7
66 55 33 45 43 37 37 42 41 39 37 36 34 30 27 22 18 16 15 15 14 13 11 9 9 8 7 7 7 6 6 7 6 5 5 5 4 4 5 5 5 6 8 10 12 13 13 13 12
63 54 33 33 41 38 34 36 36 33 30 27 22 19 17 15 14 14 13 12 11 10 10 10 9 9 8 8 7 7 7 6 6 5 5 6 6 6 6 6 6 6 8 9 9 10 11 12 13
61 52 33 28 32 36 32 32 30 25 21 19 17 16 14 14 14 13 11 10 9 9 10 11 11 10 9 8 6 5 6 5 6 7 8 9 9 9 9 9 10 10 10 11 12 15 16 16 16
69 54 32 26 31 32 30 26 25 22 19 17 16 15 14 14 13 12 11 10 11 11 10 9 10 9 8 7 6 6 6 6 6 10 14 15 14 12 12 12 12 12 12 12 14 15 14 16 17
76 53 34 25 29 31 30 27 23 21 20 18 16 14 14 16 15 14 13 12 10 9 8 8 6 6 7 7 7 7 7 8 8 12 20 21 18 12 14 13 13 14 13 13 11 11 13 12 14
78 64 36 28 30 32 33 31 25 22 20 16 15 15 15 14 12 10 8 6 6 6 6 6 6 6 6 7 8 7 7 8 8 16 21 26 21 13 12 13 15 16 16 15 14 13 15 15 15
74 62 42 32 33 33 32 31 29 24 21 19 17 16 15 13 10 8 6 7 8 8 7 6 6 6 6 6 6 6 6 7 8 19 25 25 20 12 13 15 15 17 19 17 17 19 18 18 20
70 68 47 41 42 39 32 33 32 27 20 18 17 16 15 13 10 8 9 8 10 11 9 8 7 7 7 9 8 6 6 7 8 13 20 20 12 11 14 19 19 18 18 18 18 20 21 24 23
88 70 72 53 46 40 34 32 35 30 22 19 17 17 15 13 10 10 10 12 15 13 13 10 11 9 10 9 8 8 8 14 9 9 12 13 11 10 11 17 17 16 16 14 17 20 23 25 25
88 71 80 71 52 40 38 35 32 32 27 20 19 18 16 13 11 10 12 12 13 11 8 8 8 9 8 9 9 8 8 14 11 12 11 14 11 9 9 10 9 9 9 10 13 17 19 21 22
61 88 89 80 65 43 37 32 28 33 31 23 20 18 18 15 11 11 12 12 11 10 8 7 6 7 8 9 10 10 10 15 10 20 14 9 13 26 16 10 8 7 6 7 10 14 14 16 22
51 82 97 98 75 49 40 30 25 29 30 27 22 19 20 18 12 11 12 12 12 12 11 10 8 7 7 8 10 11 13 18 14 18 29 33 21 16 33 24 13 12 10 9 9 14 12 16 24
49 46 88 95 88 73 53 32 28 27 28 26 23 20 21 18 13 12 12 11 11 11 11 10 9 9 7 8 9 11 16 18 24 28 33 30 38 44 39 43 29 17 12 13 15 18 15 14 20
47 53 56 52 71 77 61 42 22 20 18 18 18 21 20 18 14 11 10 10 11 10 10 10 9 10 10 8 8 9 10 10 18 26 37 37 33 37 42 44 57 60 40 26 23 24 20 16 21
43 32 33 34 35 47 56 57 20 16 18 20 17 17 17 15 13 11 12 11 11 11 10 10 10 10 9 9 10 10 10 10 10 10 11 18 25 29 32 45 50 58 69 57 50 42 32 40 34
38 42 28 35 27 28 41 52 19 17 16 17 18 16 16 16 14 13 13 12 12 11 10 10 10 10 9 8 7 8 10 9 12 10 10 11 12 19 30 32 44 58 63 79 76 80 73 51 54
30 29 26 24 32 23 19 19 19 19 17 13 14 17 17 16 16 14 13 13 12 11 10 10 10 10 10 9 8 6 7 9 9 9 11 13 13 15 26 33 34 46 64 75 86 86 86 83 68
36 30 26 23 20 20 18 17 16 15 15 14 13 14 15 15 14 13 12 12 12 10 9 9 8 8 8 8 8 7 6 6 9 10 9 11 11 11 14 26 44 34 45 42 82 92 99 95 83
36 34 33 30 25 21 20 20 18 15 13 13 14 14 14 13 12 11 11 10 9 8 7 7 7 8 8 7 7 7 7 7 8 9 11 13 14 13 16 39 60 55 45 45 45 59 83 87 85
40 37 35 33 30 26 23 21 19 16 14 13 12 11 11 10 10 9 8 10 12 14 14 14 13 12 12 11 10 10 9 9 9 9 10 14 18 20 18 16 32 44 44 40 56 64 71 73 74
49 44 40 36 30 25 24 21 19 16 14 12 11 10 10 10 12 14 16 17 16 15 14 13 12 11 10 10 9 8 8 8 8 9 10 11 11 14 20 28 27 23 33 46 53 60 70 83 85
78 57 49 41 35 30 27 22 19 18 15 13 12 12 14 17 18 18 17 16 14 13 12 11 9 8 8 8 8 9 10 10 12 13 14 14 14 14 15 16 20 28 35 36 52 60 72 80 94
100 85 77 62 55 42 42 32 35 32 23 18 17 18 18 18 18 16 14 12 10 9 9 9 10 11 12 12 13 13 13 15 16 20 24 26 30 33 36 26 21 21 20 32 51 54 71 88 97
99 99 100 97 84 78 63 51 39 27 23 22 21 20 19 17 14 12 10 9 9 11 14 16 16 15 14 13 14 14 16 16 16 13 14 15 16 18 26 42 50 48 32 32 33 56 67 78 90
91 82 74 60 45 42 37 34 30 26 25 23 19 16 14 12 11 11 11 15 22 18 12 10 10 12 13 16 18 18 14 14 16 18 21 36 40 39 32 34 32 37 64 54 43 43 45 63 76
86 72 44 39 45 40 39 33 28 24 22 19 16 14 13 12 14 21 25 21 14 10 11 15 18 18 20 19 16 16 17 21 32 43 49 57 77 77 62 44 41 44 45 63 81 57 57 56 71

GFSSGP_500_rhum_039.txt.gz
RH
76 72 61 52 52 50 45 38 31 23 19 16 14 11 10 10 10 13 10 10 9 8 9 10 10 10 12 12 12 11 10 8 7 7 6 6 6 6 5 4 3 3 3 3 3 3 3 4 4
78 70 71 59 52 51 48 44 38 31 26 21 18 16 15 14 13 12 13 13 14 14 14 16 17 17 16 16 15 14 14 13 12 12 12 12 12 11 10 9 9 7 6 4 4 4 4 4 5
96 80 63 66 56 48 54 48 43 40 34 29 24 21 19 19 17 17 18 19 20 21 22 21 19 17 16 14 14 13 12 11 11 10 10 10 10 10 10 11 11 12 12 12 9 8 6 5 6
97 96 73 55 59 51 52 46 47 43 41 36 32 29 26 25 25 26 27 27 26 25 21 17 14 12 12 11 10 8 8 6 5 4 4 4 4 4 4 3 4 4 4 6 8 11 13 12 12
96 96 89 60 51 56 49 44 49 46 43 41 38 35 34 34 34 32 31 30 26 19 16 15 13 11 10 9 8 6 6 5 5 4 4 3 3 3 3 3 3 3 3 4 5 6 8 9 11
93 96 85 72 48 50 52 42 46 45 42 42 42 38 36 35 34 29 26 24 18 15 15 14 11 9 8 6 6 6 6 5 4 3 3 3 3 3 4 4 4 4 4 4 5 7 8 10 11
93 100 76 71 63 41 49 45 40 42 46 46 41 40 34 31 27 20 15 15 16 14 13 11 9 8 7 6 6 5 5 4 3 4 4 4 5 8 10 10 7 6 6 6 7 7 7 9 12
99 55 69 62 66 36 42 44 39 36 41 40 39 34 29 24 18 15 15 14 12 11 10 10 10 9 8 7 6 4 4 4 4 4 5 5 10 13 13 12 9 9 9 8 9 8 9 8 9
80 62 70 58 58 39 36 42 40 35 36 34 28 26 23 17 16 15 14 13 12 11 10 9 8 8 6 5 4 4 4 4 4 4 4 6 13 17 19 15 10 10 10 10 10 9 8 8 10
66 73 57 71 65 40 34 39 39 35 32 29 24 20 18 16 15 14 13 12 12 11 11 9 6 5 4 4 5 5 5 5 5 4 5 5 14 19 21 17 11 9 10 11 12 12 12 12 13
64 71 63 74 67 40 33 41 37 34 29 26 23 20 18 16 15 15 13 12 10 8 6 5 5 4 5 5 5 5 5 5 5 5 5 6 12 15 20 16 8 10 12 12 11 13 14 15 16
73 76 68 73 65 37 38 43 38 34 32 24 21 20 17 16 16 15 12 10 8 7 6 6 6 6 6 6 6 6 7 8 7 6 6 7 8 9 11 10 9 9 14 14 12 10 12 12 14
85 88 85 68 69 46 41 36 42 34 31 28 22 20 18 17 16 14 13 11 8 8 7 6 8 9 8 8 7 8 9 9 7 6 7 16 8 8 10 11 7 7 12 13 12 10 9 10 13
71 96 93 77 80 75 45 37 40 38 30 29 26 22 19 17 16 15 13 10 9 8 8 10 12 11 11 14 12 9 8 7 6 7 8 13 11 16 9 12 11 9 8 9 9 10 10 9 12
58 78 98 95 96 92 54 38 32 42 37 29 25 21 19 19 18 16 13 11 10 9 8 8 9 8 8 7 7 7 6 11 7 7 6 13 10 17 21 14 17 24 17 8 8 8 8 7 11
75 58 72 98 96 92 66 44 43 44 38 32 27 23 20 21 21 19 15 12 10 10 10 11 10 9 9 8 7 7 6 7 7 9 16 16 15 16 28 35 32 19 28 22 13 12 10 10 10
80 75 80 97 95 95 70 54 44 41 40 38 34 28 24 22 20 21 18 14 10 9 9 10 10 9 9 9 9 10 14 13 18 12 15 18 23 26 34 34 35 44 40 42 42 23 12 11 14
69 69 79 92 96 92 74 55 48 38 43 41 38 31 26 23 20 20 18 16 11 10 11 11 11 11 11 10 9 10 11 13 14 20 17 12 10 11 18 37 43 32 46 48 57 61 55 34 24
71 58 63 78 84 94 92 57 52 45 39 37 36 32 27 22 20 16 19 17 13 11 11 12 12 13 12 10 9 9 8 8 8 11 13 18 22 24 16 13 16 22 32 37 43 55 65 73 59
63 61 60 87 67 84 95 76 50 56 40 26 23 21 20 18 16 15 14 15 13 11 11 13 13 12 11 11 10 9 10 9 8 8 8 13 13 13 12 12 13 13 14 25 39 45 56 64 77
64 56 43 69 65 76 81 79 82 71 56 27 18 17 16 15 12 11 11 11 10 10 12 12 12 12 11 10 10 10 10 10 9 9 8 10 9 10 10 12 10 11 12 12 26 45 52 58 66
60 56 39 45 63 45 56 46 59 78 45 29 18 16 14 13 13 13 11 10 10 10 11 11 11 11 11 10 9 8 8 8 8 8 9 10 10 10 10 19 20 16 26 25 25 47 80 74 86
50 49 32 33 72 58 57 36 29 21 33 52 38 20 15 14 12 11 11 11 12 11 11 10 10 9 8 8 9 9 8 8 8 8 8 8 11 12 14 13 12 15 26 32 41 55 70 81 79
51 41 33 30 50 72 42 28 31 25 18 16 15 14 14 13 12 11 11 11 10 10 9 8 8 10 14 14 14 13 12 12 11 10 10 10 10 10 14 18 20 20 22 32 42 51 52 67 77
48 42 39 35 31 44 46 30 25 22 20 18 16 13 12 11 11 11 11 10 9 8 8 13 16 16 16 14 12 12 10 10 9 9 8 8 9 9 10 12 15 17 21 25 31 31 36 47 59
54 45 44 38 34 33 41 34 27 24 20 17 15 13 12 11 10 10 9 9 10 14 17 18 16 14 12 10 9 8 8 9 10 11 12 13 15 20 21 24 22 18 18 18 18 20 30 35 44
76 50 43 42 36 35 34 31 28 22 19 16 14 13 11 11 10 11 13 16 18 18 18 16 12 10 8 9 9 10 11 12 13 14 15 15 17 22 24 23 33 42 45 44 33 25 22 33 42
93 81 69 56 55 45 40 36 30 26 21 17 20 18 17 17 17 17 18 19 19 16 13 10 9 10 10 10 10 8 7 9 10 13 15 17 15 14 16 19 20 20 30 47 58 57 58 50 46
98 100 92 90 69 68 69 50 35 31 28 24 24 23 20 19 20 21 20 14 11 10 10 10 11 14 9 8 8 10 13 13 16 15 14 14 14 18 33 32 37 48 46 63 82 70 69 82 82
99 99 99 99 99 85 65 60 56 46 39 32 26 24 23 22 18 14 12 11 11 11 15 15 10 8 9 12 15 16 16 15 13 14 19 24 28 26 17 14 20 59 99 98 100 100 70 72 91

GFSSGP_500_rhum_042.txt.gz
RH
63 60 57 55 50 45 37 28 22 18 14 11 9 8 9 9 7 9 9 7 8 7 7 6 6 6 7 8 8 8 8 8 7 7 7 7 8 8 9 8 7 6 5 6 5 4 4 4 4
84 72 66 61 54 50 47 41 34 26 21 18 13 12 11 10 10 9 12 10 9 9 9 9 9 11 12 14 14 14 14 13 13 12 12 12 12 13 12 12 13 13 12 12 12 10 7 6 5
94 87 75 62 58 51 52 48 43 37 29 21 18 15 14 11 10 11 12 12 11 13 13 14 14 15 17 17 15 14 13 13 12 12 11 10 9 8 6 4 4 4 4 4 5 8 10 12 12
96 89 78 66 62 57 55 57 48 44 37 29 24 20 18 17 16 16 14 15 17 18 20 20 19 18 17 15 14 12 11 10 9 7 5 4 3 3 3 3 2 2 2 3 3 3 4 6 8
95 94 86 67 64 67 66 57 48 47 43 39 32 28 24 22 21 20 20 22 24 25 25 23 19 16 15 14 13 12 10 8 8 5 4 3 3 2 2 2 2 2 2 2 3 3 4 5 6
97 97 95 86 64 66 68 63 48 50 48 44 40 36 32 29 28 26 28 31 29 28 26 20 16 15 14 13 11 8 6 5 5 4 4 3 2 2 2 3 4 5 5 4 4 3 4 4 5
96 95 94 94 93 66 62 71 48 50 52 49 45 42 38 36 35 34 32 31 29 26 20 16 14 14 12 10 7 5 5 5 4 4 3 2 2 2 3 5 8 8 8 5 4 3 4 5 4
98 97 99 97 96 94 63 62 56 51 46 51 47 44 51 40 37 35 33 30 23 18 16 14 14 12 8 6 6 6 5 4 3 3 3 3 3 3 3 5 9 12 9 6 6 5 5 5 6
96 97 97 91 93 95 95 57 52 54 45 41 48 42 37 42 36 34 30 23 16 14 14 13 10 9 8 8 7 5 4 3 3 3 4 4 3 3 4 7 11 14 11 7 6 6 6 6 7
92 92 94 96 100 99 97 88 45 50 48 41 40 42 38 35 32 27 21 17 15 14 12 10 9 8 8 6 5 4 3 3 3 4 3 3 4 4 5 8 12 15 10 6 6 8 7 8 10
89 83 99 96 98 96 97 87 44 42 46 42 38 38 36 35 27 20 17 15 14 13 11 10 9 8 6 5 4 4 4 4 4 4 5 6 5 5 7 7 9 10 7 6 6 9 8 9 10
85 86 98 97 98 96 96 88 55 38 44 42 38 34 33 28 22 19 16 15 13 12 10 9 8 6 6 5 5 4 4 4 5 5 7 6 5 6 15 8 7 9 9 6 6 10 11 10 10
79 96 98 99 90 93 97 93 76 42 38 40 38 33 29 26 20 17 16 15 13 12 10 9 8 7 6 6 6 7 7 8 8 8 8 6 5 5 10 11 13 8 10 8 7 7 8 7 8
53 93 97 98 77 84 88 97 88 50 38 37 36 32 26 24 21 18 17 16 13 11 11 9 8 8 8 8 10 10 11 15 7 6 6 6 5 5 9 12 13 16 11 15 18 11 7 7 7
50 67 94 96 70 89 97 93 72 52 39 38 39 34 28 23 21 19 20 17 14 12 11 10 8 8 8 9 8 7 6 7 7 5 6 6 6 10 12 12 12 23 31 27 17 23 29 13 12
53 59 86 95 88 98 88 75 76 57 45 40 36 34 30 26 23 22 21 18 15 13 12 12 10 17 8 8 8 10 10 8 9 10 12 13 14 10 16 18 19 24 27 31 45 38 32 34 29
67 55 70 82 94 99 90 82 75 57 48 38 36 34 30 26 24 22 21 19 17 16 13 11 10 10 9 10 10 11 11 10 10 14 16 22 17 16 11 10 9 11 17 26 45 38 38 45 50
62 57 52 73 74 93 97 92 91 59 48 48 42 38 34 28 24 22 22 18 18 18 16 13 10 10 10 10 9 10 10 9 8 8 12 18 25 21 15 19 23 19 20 14 13 18 27 32 33
65 65 60 63 71 83 89 100 97 77 50 53 48 43 35 30 27 22 18 19 20 21 19 16 12 10 11 10 10 10 12 14 9 9 9 17 25 30 26 17 23 16 12 23 20 19 15 20 31
89 63 68 74 80 83 82 93 97 93 60 52 53 42 37 34 30 20 19 21 20 18 20 18 14 11 11 11 13 11 10 10 10 10 10 10 17 21 28 38 34 30 34 27 39 29 30 28 18
89 68 69 72 64 69 93 90 92 82 65 58 50 43 37 34 31 23 21 19 18 17 16 16 14 12 12 13 12 12 11 10 11 11 10 10 9 12 22 28 26 34 36 30 34 45 52 68 74
85 84 72 74 67 54 95 75 79 97 76 64 59 44 33 25 22 20 17 15 13 12 12 12 12 11 11 11 11 11 11 10 8 8 8 8 8 8 7 18 20 20 27 31 55 57 64 64 73
97 83 72 68 58 54 81 75 70 82 83 78 66 62 52 29 18 15 13 12 12 13 12 11 11 11 11 10 10 10 8 7 8 11 12 11 9 9 10 10 9 11 18 28 38 36 37 62 68
96 86 71 58 52 53 64 82 67 72 58 84 75 66 52 35 22 20 20 20 20 14 11 11 11 10 10 9 9 8 13 15 15 14 14 13 12 11 11 11 11 12 10 11 20 31 28 25 61
93 92 81 56 56 59 52 84 66 68 57 30 30 52 52 52 50 38 24 16 16 14 11 10 9 9 8 8 12 16 17 16 14 12 11 9 9 8 9 12 24 28 25 18 16 16 24 27 28
100 100 88 56 59 58 46 57 79 64 45 47 25 21 18 16 15 14 13 12 10 10 10 10 9 8 11 17 18 17 14 11 9 9 9 10 11 12 12 13 14 19 23 24 24 28 37 43 34
95 95 73 60 49 51 42 40 52 63 57 40 25 22 19 17 14 13 12 10 10 10 9 9 12 16 18 19 16 11 8 9 11 11 9 8 9 10 13 14 13 15 18 19 21 22 27 47 54
100 100 78 61 51 43 40 36 34 38 45 52 33 22 18 16 13 12 11 11 10 11 13 16 18 20 18 13 10 10 10 8 6 6 10 13 14 13 14 14 19 20 22 28 28 34 55 70 71
96 94 92 74 51 45 43 36 32 33 32 29 26 22 17 16 14 14 15 14 15 16 18 20 18 13 10 11 10 10 7 6 8 14 11 10 10 12 15 14 12 17 13 12 18 31 43 54 84
98 100 96 86 73 61 57 47 40 36 34 30 27 26 22 19 23 21 18 18 20 21 17 11 10 12 11 10 7 5 8 13 13 11 12 13 8 10 10 13 14 15 15 23 39 41 43 68 70

GFSSGP_500_rhum_045.txt.gz
RH
58 53 44 38 30 23 19 18 14 12 10 8 6 6 7 8 9 8 6 6 6 7 7 6 5 4 5 6 6 6 6 7 7 7 7 8 10 11 12 11 11 11 12 12 12 12 12 11 8
72 61 53 43 36 30 30 24 17 14 14 11 9 9 9 10 10 7 7 9 9 8 7 7 6 6 8 9 10 12 13 13 13 12 12 12 13 13 13 13 12 10 8 6 5 5 5 8 9
94 68 58 48 43 40 45 36 28 21 17 15 13 12 9 8 8 8 8 10 12 9 9 9 9 9 11 13 15 15 15 14 13 13 13 13 11 8 4 3 3 3 2 2 2 2 2 3 3
89 89 65 55 46 49 55 46 38 33 26 21 17 15 14 12 11 10 10 11 13 12 12 13 13 13 14 16 17 16 15 14 13 12 10 8 5 3 3 2 2 2 2 2 2 2 2 2 3
97 92 82 59 54 61 57 57 46 41 38 31 24 20 18 17 15 14 14 14 14 16 16 18 19 19 19 18 16 14 13 12 12 10 7 5 4 3 2 2 2 2 3 4 4 4 4 4 3
97 96 87 73 64 76 68 58 55 47 46 41 34 28 25 22 20 18 18 18 17 20 22 23 23 22 20 17 16 14 12 8 6 5 4 4 3 2 2 2 2 3 5 6 7 6 4 3 3
96 95 95 93 91 94 88 68 53 49 52 47 43 38 37 34 27 24 23 22 24 27 28 27 25 22 18 16 15 13 8 6 5 5 4 3 2 2 2 2 2 3 5 8 8 7 4 4 3
96 95 99 96 97 94 94 90 70 50 54 55 47 46 48 44 37 32 35 30 33 32 30 27 24 19 16 15 12 8 6 5 4 3 3 3 3 3 2 2 2 4 6 8 10 6 4 4 4
97 97 96 96 96 97 97 90 82 70 53 52 50 47 46 51 54 45 40 40 36 34 29 23 19 16 15 12 8 7 6 5 3 3 3 3 3 3 3 3 3 4 6 8 8 5 4 4 5
96 94 87 99 92 98 88 91 69 69 67 54 50 49 48 46 50 57 43 37 36 32 26 18 15 14 13 10 8 7 6 4 3 3 3 3 4 4 4 4 5 7 6 6 6 4 4 5 6
95 84 100 97 98 97 97 95 95 67 64 60 52 48 46 47 44 48 44 36 33 29 22 16 14 13 10 9 8 6 5 4 4 4 4 3 4 5 4 4 12 12 7 6 6 6 5 5 8
84 96 97 99 98 96 97 95 96 82 64 55 55 46 40 40 42 42 38 34 28 23 19 16 13 11 10 8 7 6 5 5 5 5 5 5 6 6 6 5 6 9 10 10 8 9 6 5 6
53 95 98 98 94 98 98 97 99 84 84 54 50 50 42 38 38 38 35 32 24 18 16 14 12 10 9 8 7 6 6 6 7 8 10 8 5 5 5 5 5 10 11 15 12 9 12 13 12
48 68 97 99 77 96 97 98 96 98 82 61 45 48 44 39 37 35 29 23 21 19 16 13 12 10 9 8 8 8 7 9 8 7 6 5 4 5 5 6 8 8 8 9 21 26 22 16 18
54 54 82 92 89 95 96 93 95 100 89 71 42 41 44 39 36 32 26 22 19 17 15 12 11 10 10 9 8 7 7 7 6 6 6 6 6 7 8 9 8 14 16 18 20 23 28 40 41
52 54 52 58 93 96 98 77 98 97 84 84 57 40 40 39 33 30 26 22 20 17 15 13 12 11 10 9 10 10 8 10 9 10 8 8 9 12 15 16 16 12 10 10 10 11 16 30 38
57 54 51 46 68 97 97 78 83 84 83 73 67 44 40 39 35 29 26 22 20 17 15 14 14 12 12 15 21 10 8 8 8 9 7 8 9 9 10 21 25 19 14 16 20 18 16 13 16
36 48 50 49 51 94 98 77 94 82 74 77 64 49 39 38 38 33 28 22 20 19 18 15 15 15 13 12 11 9 8 9 10 16 31 32 24 25 21 22 16 22 28 22 18 20 20 22 25
46 73 62 57 54 86 98 100 99 89 84 80 65 52 42 39 38 33 29 42 51 50 24 19 16 13 15 15 12 10 9 11 18 11 8 16 21 20 19 18 21 25 26 32 39 34 30 42 43
33 60 65 66 58 71 92 80 93 79 74 84 72 56 45 36 33 32 28 25 24 24 22 21 20 18 16 16 14 12 10 11 11 11 10 9 8 8 12 16 17 24 32 35 38 38 41 43 44
16 26 66 65 62 55 71 62 64 80 74 79 75 70 54 42 34 31 29 25 26 25 22 22 20 20 18 17 15 12 10 10 10 12 12 12 11 9 7 6 7 30 33 33 38 42 52 60 72
22 27 66 78 57 60 60 57 65 72 84 81 88 80 65 51 37 29 27 28 26 24 21 20 19 18 16 14 13 11 10 8 9 10 10 11 10 8 8 8 10 10 17 28 35 30 32 56 78
43 48 54 78 70 55 61 63 57 61 75 77 78 84 70 51 43 36 32 29 25 22 19 17 14 12 11 11 10 10 10 10 10 8 8 8 11 14 14 14 13 13 12 15 26 32 29 29 43
50 73 89 73 84 68 64 69 53 59 70 90 92 78 66 61 50 41 34 21 16 14 13 12 13 13 11 12 11 11 10 9 9 8 9 13 16 15 14 13 12 10 12 20 28 30 33 39 41
83 82 96 95 88 70 68 70 52 54 68 72 84 89 71 70 63 56 45 32 18 22 25 26 28 27 24 12 10 10 8 8 8 14 17 18 15 13 10 9 13 16 17 15 20 23 20 22 27
79 98 95 82 67 70 76 67 53 54 66 74 73 66 93 88 72 63 60 58 57 54 45 37 30 24 14 10 9 9 8 10 17 18 16 11 9 9 10 8 6 8 11 14 16 16 19 20 24
88 88 98 99 96 87 78 67 60 49 68 75 92 49 30 26 31 35 25 18 18 18 16 14 12 10 9 9 9 9 14 19 20 14 9 11 10 7 6 7 10 10 13 16 16 20 17 17 22
100 100 100 98 92 88 74 63 62 51 50 79 95 66 32 24 21 20 18 17 15 14 12 11 10 10 10 10 13 17 20 18 11 11 11 7 6 9 11 10 9 10 13 13 12 12 13 15 14
100 92 93 100 96 81 68 58 54 48 37 40 74 88 60 44 32 22 18 15 14 13 12 12 12 12 14 17 20 20 13 10 12 10 6 8 11 11 11 14 11 10 11 13 12 10 9 9 13
91 99 100 100 94 86 68 54 49 43 40 36 34 34 61 74 34 20 16 15 15 14 16 15 16 17 20 20 13 12 12 8 6 8 10 13 11 14 15 11 11 11 14 14 14 13 9 10 16

GFSSGP_500_rhum_048.txt.gz
RH
59 48 38 32 25 21 18 15 13 13 11 12 18 28 37 29 26 26 19 16 8 8 6 5 7 7 5 5 6 7 8 8 10 9 9 10 11 12 12 13 13 13 13 12 11 9 8 6 6
74 58 47 39 30 23 20 16 14 12 10 9 11 10 12 12 11 10 11 7 10 8 6 6 6 5 6 8 8 10 12 13 13 13 13 13 13 14 13 11 7 4 3 3 2 2 2 2 2
90 74 54 41 35 33 28 19 16 15 12 10 9 8 8 7 10 8 8 8 12 10 8 7 7 7 8 9 11 13 15 16 15 14 14 14 13 10 6 4 3 3 2 2 2 2 2 2 3
94 91 65 46 37 44 39 26 21 18 15 14 12 11 9 8 8 8 8 9 10 12 9 9 9 9 10 12 14 16 17 16 14 14 13 12 9 6 4 3 2 2 2 2 3 4 5 5 4
98 94 86 55 46 56 45 39 31 24 19 18 15 14 13 11 10 10 11 11 12 12 12 11 12 13 14 15 18 17 15 13 13 14 12 8 5 4 3 2 2 2 2 3 5 5 6 6 4
97 95 85 73 69 72 57 50 38 32 26 23 19 18 16 16 14 13 12 12 12 13 13 14 16 18 20 21 20 17 14 12 10 9 7 5 4 3 2 2 2 2 2 3 4 7 7 6 5
93 95 94 83 92 91 70 52 43 41 40 35 28 26 22 21 20 17 16 16 16 17 16 18 21 23 24 23 20 17 15 13 10 6 5 4 3 2 2 2 2 2 2 3 4 6 8 6 4
90 96 98 97 99 95 80 61 52 44 46 46 40 36 32 31 31 23 20 20 20 21 21 22 25 27 26 23 19 16 15 12 6 5 4 3 3 3 2 2 2 2 2 3 4 5 6 5 4
93 94 90 84 96 94 82 83 65 56 47 50 47 43 41 40 43 40 38 26 25 25 26 28 30 29 25 21 17 16 12 8 6 5 4 3 3 3 3 3 3 3 4 5 5 5 4 4 4
95 81 74 86 100 97 96 92 80 71 51 56 51 46 47 43 44 50 45 43 43 41 39 35 32 28 22 18 16 14 10 7 6 5 4 3 3 3 3 4 4 4 7 10 8 6 4 5 5
85 70 83 97 96 96 96 97 87 80 68 59 62 53 51 56 59 51 57 61 52 41 37 35 32 27 21 17 15 12 9 7 6 5 4 4 4 4 5 6 6 5 4 7 6 7 7 6 6
61 81 97 97 98 95 97 98 94 92 81 62 68 62 52 54 59 62 59 57 56 47 38 34 31 26 20 16 13 10 8 6 6 5 5 6 6 6 5 4 4 4 3 4 6 10 13 9 8
50 64 96 96 97 97 97 98 94 93 89 86 75 68 59 50 49 50 52 50 50 49 36 32 28 23 20 16 13 10 8 7 6 6 7 8 12 9 5 4 4 4 4 4 6 7 9 14 17
47 50 93 97 96 94 94 98 96 94 88 87 87 72 63 56 47 45 46 46 44 40 36 35 25 19 16 13 11 10 8 8 8 8 8 6 5 6 4 4 4 4 5 6 10 13 15 17 20
53 61 95 94 97 91 98 96 96 98 96 90 82 74 61 58 53 45 41 41 40 37 38 37 32 21 15 12 11 10 9 8 8 7 8 7 7 7 6 7 10 13 14 14 12 11 10 11 14
53 57 63 87 97 97 95 96 98 97 98 100 98 83 66 54 53 48 41 38 37 34 31 26 21 16 14 12 11 10 9 10 10 9 9 10 8 9 8 8 10 10 15 21 20 16 15 18 18
53 53 48 59 92 96 88 98 98 96 97 87 96 92 73 46 50 48 43 38 35 32 25 21 19 16 14 17 17 14 13 17 16 9 8 8 10 10 13 18 22 23 19 21 20 24 25 24 20
24 43 46 50 59 88 90 92 98 94 92 81 84 84 78 50 43 47 44 39 34 30 25 22 21 18 15 14 14 12 11 11 12 9 9 11 17 38 27 22 23 23 30 21 19 24 29 30 38
21 49 41 40 46 70 81 93 99 95 79 92 82 81 81 66 44 40 43 39 34 28 25 24 23 21 19 16 14 13 13 12 11 11 20 24 32 29 32 22 14 12 13 16 17 21 30 34 40
25 43 66 60 55 53 56 75 95 94 80 75 73 76 79 74 70 43 41 44 35 30 27 26 26 31 32 21 18 16 15 15 13 12 11 9 10 13 10 10 9 10 9 8 8 27 44 59 63
18 17 31 57 58 53 49 56 64 86 71 66 68 73 76 75 69 64 41 39 43 41 32 35 46 47 49 39 16 15 16 17 17 14 12 10 8 8 8 8 8 8 7 7 9 14 26 30 49
18 16 16 24 48 52 57 48 46 83 65 68 82 85 86 76 70 61 49 37 34 33 30 27 24 22 20 20 17 15 15 14 14 12 11 10 11 10 10 9 7 6 9 14 15 14 15 28 36
24 20 16 14 26 43 54 59 41 66 70 60 69 79 81 77 72 68 52 39 34 33 30 27 24 22 20 18 18 17 15 12 10 9 9 10 12 11 10 8 8 14 16 16 14 12 12 14 25
32 27 25 22 20 24 33 55 36 50 57 55 65 70 80 84 73 67 65 54 38 34 29 26 24 22 20 19 16 13 12 13 13 12 13 10 9 9 8 14 17 16 15 12 10 9 9 11 17
38 33 28 29 29 16 33 69 18 50 54 53 59 67 79 88 83 72 67 49 39 33 28 25 22 19 15 13 14 17 18 16 18 15 10 9 8 9 16 18 14 10 11 12 11 7 7 10 10
31 31 36 45 37 53 66 46 23 42 56 58 56 71 76 83 86 83 67 60 45 41 31 18 16 18 25 29 32 34 33 30 18 10 9 8 10 17 18 15 10 12 10 8 11 14 14 14 13
67 62 63 57 62 64 58 48 50 48 63 62 59 73 78 91 91 92 76 69 59 52 47 38 35 35 45 43 38 26 18 12 9 9 9 14 18 19 15 11 10 7 7 12 14 13 13 12 12
67 87 71 75 75 67 60 58 49 54 66 58 60 76 73 70 60 82 90 83 69 63 58 54 48 39 39 38 28 13 9 9 9 12 17 19 16 11 11 9 6 9 11 13 12 10 13 14 12
73 78 72 95 94 80 72 70 60 66 66 64 54 98 98 89 37 28 28 49 49 40 31 28 26 26 19 12 10 9 9 12 16 19 19 12 11 10 6 8 12 13 13 12 12 12 13 14 16
70 74 94 100 98 97 88 72 75 75 63 77 74 73 98 100 82 47 32 27 24 21 19 17 15 13 12 11 12 13 16 20 17 12 12 9 6 10 14 14 15 15 16 14 15 19 20 21 19

GFSSGP_500_rhum_051.txt.gz
RH
65 51 41 35 28 19 17 16 14 15 22 37 48 54 28 31 36 32 30 32 30 18 12 7 8 7 8 8 4 5 6 8 10 12 13 13 12 13 13 13 13 11 6 3 2 2 2 2 2
77 56 48 38 29 21 21 18 16 14 18 28 28 45 30 22 28 35 36 31 20 15 8 8 6 7 6 5 6 9 12 13 14 14 14 13 13 14 13 11 7 4 3 2 2 2 2 2 2
96 69 55 41 33 25 27 22 18 16 14 17 21 31 36 18 19 25 20 11 9 11 8 7 6 6 6 6 8 10 13 16 16 15 15 14 14 13 10 6 4 3 2 2 2 2 3 4 5
96 94 66 50 34 38 33 25 22 18 15 13 14 22 26 19 13 12 7 7 7 8 9 9 7 7 8 10 12 13 14 17 17 16 15 14 14 10 5 4 3 2 2 2 2 3 4 5 6
97 96 86 55 46 46 39 29 24 19 17 14 12 11 11 13 10 9 8 7 8 8 8 10 9 9 11 13 16 18 17 17 16 15 15 13 8 4 4 3 2 2 2 2 2 3 4 5 6
92 96 87 64 59 57 45 38 30 24 18 16 14 12 12 11 11 10 10 9 9 9 10 10 11 11 13 17 21 21 19 16 14 12 13 11 5 4 3 2 2 2 2 2 2 3 3 4 6
93 95 86 91 76 69 53 44 39 31 23 18 16 14 14 13 14 12 11 11 10 11 11 13 14 15 18 22 23 23 19 17 15 13 8 6 4 3 2 2 2 2 2 2 2 3 3 4 5
97 97 100 97 97 91 66 55 42 38 28 22 20 17 16 17 16 14 14 14 14 14 16 17 18 19 22 24 26 24 20 17 16 14 7 5 4 3 2 2 2 2 2 2 3 3 4 4 4
76 96 88 85 96 84 79 66 50 41 37 28 26 25 23 23 21 19 19 18 17 18 18 20 22 24 26 28 26 23 19 17 16 10 6 5 4 3 2 2 2 3 3 4 4 7 7 6 5
69 86 64 86 99 98 85 79 66 51 44 40 38 33 31 31 30 30 29 24 21 23 24 24 26 28 30 30 26 22 18 16 14 10 6 5 4 4 3 3 4 4 4 4 4 4 4 4 6
69 89 88 96 97 96 94 98 76 67 53 42 45 46 40 40 39 42 44 48 40 35 32 35 37 37 35 32 28 21 17 15 12 9 6 5 5 5 5 5 5 4 4 4 3 3 4 5 8
54 63 88 100 95 94 97 98 90 68 64 57 52 58 46 50 47 45 51 52 52 51 51 48 42 38 36 33 27 21 17 14 10 8 6 6 6 6 7 10 9 6 4 3 3 3 4 5 6
36 63 99 98 94 98 97 96 97 84 73 64 61 62 66 60 54 50 57 58 53 61 61 54 47 40 36 32 26 20 16 13 10 8 7 7 7 7 7 5 4 4 4 4 4 5 6 7 9
34 40 80 86 97 93 97 96 98 97 91 77 68 66 68 62 57 56 64 67 64 62 61 56 50 41 33 30 25 21 16 13 10 8 8 8 7 7 5 5 6 5 6 7 9 11 12 12 12
39 46 61 79 97 98 99 97 84 98 98 88 88 89 93 73 56 57 62 66 70 64 57 52 51 41 33 29 24 21 17 13 10 9 8 8 7 7 8 9 8 8 7 6 8 9 12 18 19
53 56 57 85 95 96 97 91 99 97 93 82 87 99 95 93 91 62 54 52 50 48 50 49 45 40 39 33 27 19 15 12 10 9 9 10 10 8 8 8 8 7 9 12 16 20 19 20 17
52 47 59 56 76 96 92 96 96 98 95 82 82 94 100 94 94 89 64 54 49 47 46 44 42 38 36 30 23 17 14 12 11 10 12 17 12 8 8 11 12 22 31 24 24 27 30 24 22
16 17 36 52 53 71 91 95 96 97 97 98 96 100 100 98 92 87 76 60 54 47 42 40 38 34 28 22 18 16 14 18 18 13 12 11 11 9 10 17 34 25 27 24 16 12 11 12 14
22 34 39 39 46 58 97 99 96 97 97 96 98 98 96 97 82 78 79 70 56 50 44 39 36 33 29 24 20 16 16 15 14 13 13 13 12 14 30 19 19 28 15 12 11 10 10 9 8
24 24 40 49 46 45 58 93 96 91 93 96 98 94 86 80 90 83 78 65 58 51 45 40 35 31 29 27 24 19 16 16 16 15 15 14 15 18 13 14 18 15 8 9 10 11 9 8 9
25 23 35 52 52 48 50 86 92 71 83 93 88 94 78 67 70 81 72 53 50 51 48 41 35 29 27 25 22 22 37 40 28 17 15 14 14 14 12 10 8 8 9 9 10 9 8 12 15
32 22 25 41 57 49 48 51 76 75 68 86 82 82 85 76 66 62 70 71 50 43 45 45 38 34 30 28 31 41 44 39 21 19 18 20 18 15 11 8 13 17 15 10 8 8 15 17 16
44 29 23 23 25 43 50 50 41 52 55 55 61 65 80 71 61 63 66 68 70 63 42 41 47 51 52 48 38 28 24 19 17 16 17 17 15 13 11 11 13 12 10 8 8 14 18 14 10
43 30 19 16 16 14 16 24 14 27 34 43 46 70 78 73 65 63 63 69 71 65 58 44 37 35 33 31 28 28 25 19 17 16 16 12 12 12 12 12 12 10 9 9 15 18 18 12 10
33 25 22 20 18 15 17 17 11 14 23 37 63 71 69 68 66 60 62 73 73 73 60 46 38 34 32 29 25 23 21 19 17 14 13 16 23 25 22 16 10 9 12 18 19 16 11 10 6
35 32 27 24 22 21 24 15 10 15 30 45 49 66 64 56 55 64 64 62 74 74 67 61 51 37 33 30 27 28 22 15 15 29 34 32 27 22 14 10 9 16 18 15 12 11 8 8 12
37 35 34 37 32 24 20 16 18 25 22 35 54 56 60 62 61 60 69 77 81 84 69 55 43 34 29 25 18 16 25 40 45 38 32 24 16 13 9 10 15 18 15 11 11 8 11 12 11
33 37 33 31 33 41 37 42 40 44 44 39 42 50 63 61 75 83 85 83 81 88 75 62 46 43 41 34 30 41 41 40 37 32 25 17 10 9 12 17 19 14 12 10 9 14 14 13 13
53 42 48 62 61 51 38 42 49 62 60 55 52 59 64 74 91 68 82 91 87 96 80 68 65 60 51 48 50 48 46 40 39 28 12 9 12 15 18 16 12 10 6 10 14 14 15 12 14
73 75 81 80 66 73 52 33 68 75 73 72 70 71 83 88 81 79 63 40 60 82 89 83 75 72 68 63 56 51 40 26 13 11 11 14 18 17 14 10 6 8 13 15 17 17 15 17 18

GFSSGP_500_rhum_054.txt.gz
RH
95 68 52 40 32 18 18 14 15 29 64 89 78 60 54 42 39 37 40 36 32 28 23 17 11 10 8 9 11 6 4 6 9 12 14 14 13 13 14 13 11 8 4 3 2 2 2 2 2
84 84 61 47 33 22 18 18 18 20 32 56 52 40 35 30 30 34 34 40 40 34 23 16 10 8 7 6 7 5 7 12 14 15 15 14 14 14 14 12 8 5 3 2 2 2 2 2 3
84 92 73 54 38 26 22 22 19 18 18 33 31 31 35 24 29 30 30 38 39 26 16 10 8 7 7 6 5 8 12 15 17 16 16 15 15 15 12 8 5 4 3 2 2 2 2 2 3
76 84 93 64 46 34 30 24 22 20 18 22 22 32 29 22 23 30 31 34 28 11 10 8 8 8 8 8 9 11 12 15 17 17 16 16 15 13 7 4 3 3 2 2 2 2 2 2 3
99 95 91 88 53 42 34 30 25 21 18 17 17 21 31 19 19 27 27 18 10 8 8 8 8 8 10 11 14 15 16 17 17 17 16 16 15 10 5 4 3 2 2 2 2 2 2 2 3
100 90 86 81 68 55 43 36 27 24 20 18 16 16 20 20 14 16 17 12 8 8 8 8 8 9 10 14 18 20 21 20 18 17 16 16 13 7 4 3 2 2 2 2 2 2 2 2 2
58 89 80 84 96 71 55 43 32 27 24 19 17 14 14 14 13 10 10 12 8 9 9 9 10 11 12 16 20 23 23 22 19 16 15 12 10 6 4 3 2 2 2 2 2 2 2 3 4
100 49 81 76 97 96 73 53 40 32 24 22 19 16 14 13 12 11 11 12 10 10 11 12 13 14 16 18 22 24 24 23 20 18 16 11 7 5 4 3 2 2 2 2 3 3 4 5 5
99 99 85 83 91 96 84 60 49 40 31 24 21 18 16 15 14 14 14 13 11 12 14 15 17 18 20 22 24 26 25 23 20 18 16 12 7 5 4 4 3 3 3 3 3 4 4 4 4
98 96 82 69 83 99 98 76 56 48 39 30 24 21 21 25 17 17 18 16 14 15 16 17 18 20 23 25 27 28 27 24 21 19 16 12 8 6 5 4 4 4 5 4 4 3 3 3 3
75 66 68 98 89 98 91 90 73 55 45 39 30 26 37 37 37 27 33 21 19 20 20 20 23 24 26 28 30 31 28 25 21 18 16 12 8 6 5 5 5 6 9 7 4 3 3 3 4
36 67 97 100 99 97 96 91 79 66 56 47 36 33 36 51 54 48 52 38 30 28 26 29 29 30 35 38 37 34 30 25 21 18 15 11 8 6 6 6 6 6 4 4 3 4 4 6 7
35 54 81 98 98 97 97 96 95 81 69 59 49 42 42 55 67 63 51 44 47 45 46 44 40 41 43 42 38 35 32 26 21 18 15 11 8 7 7 7 6 5 6 6 6 6 8 8 9
24 16 51 78 97 98 96 96 99 98 84 73 62 58 52 50 83 86 72 44 56 56 53 52 51 51 53 50 44 37 31 26 22 18 14 11 9 8 7 7 7 8 8 8 8 6 6 9 11
23 28 50 69 94 98 98 95 82 100 93 80 82 71 62 58 65 98 94 65 54 63 58 55 54 58 58 52 45 37 30 25 20 16 13 11 9 8 9 9 8 8 7 8 8 13 24 22 23
39 32 63 74 89 96 96 83 95 99 91 86 76 80 85 74 67 65 88 88 54 59 70 68 65 62 58 54 50 40 33 28 24 18 14 12 10 9 10 13 9 8 9 10 16 27 22 23 21
35 43 25 54 84 94 95 93 99 94 98 98 87 86 88 94 91 85 80 85 89 65 67 69 73 68 58 52 47 41 39 36 29 20 16 13 11 11 14 13 10 9 10 18 34 29 31 26 16
29 31 30 37 45 79 90 100 97 98 91 97 98 100 100 96 95 95 95 89 66 64 65 64 62 57 52 48 45 42 37 30 25 18 15 16 17 12 11 12 11 11 26 26 20 27 19 13 12
32 39 47 44 49 64 75 98 95 97 94 96 94 93 94 93 98 93 87 86 82 72 59 54 51 50 48 46 41 36 30 24 20 18 16 17 14 12 13 15 13 13 14 16 16 18 11 10 10
36 27 36 55 52 60 56 77 94 95 90 97 97 93 93 99 93 88 90 86 79 90 76 60 54 48 44 42 38 34 28 23 20 18 17 16 16 16 16 16 14 14 14 15 12 10 9 10 11
42 28 28 43 49 47 53 52 64 79 80 98 97 99 88 89 91 91 94 89 82 81 83 76 61 54 48 44 39 36 32 27 23 20 19 24 31 31 17 15 16 15 14 12 10 10 13 13 11
42 25 28 46 53 40 44 40 40 61 86 95 95 94 98 100 97 98 94 93 84 76 77 74 68 57 50 45 40 37 34 29 25 22 27 34 38 34 24 23 15 15 13 10 12 16 16 12 9
36 36 29 26 37 33 29 31 28 38 48 72 89 96 96 99 98 91 87 92 91 87 65 60 52 52 52 49 43 36 32 28 28 34 40 35 24 19 19 18 17 14 11 14 15 16 13 9 9
47 33 22 19 24 22 29 33 17 24 24 34 38 93 97 96 92 97 92 81 69 65 74 73 58 44 42 45 51 52 50 50 48 42 28 24 22 19 18 18 14 12 15 17 16 14 10 9 18
54 40 31 24 20 15 16 11 9 18 15 29 41 64 89 95 71 74 77 77 71 62 58 60 66 69 65 49 41 40 40 38 34 31 29 25 21 19 17 14 15 24 24 22 16 10 10 18 19
59 46 40 32 22 17 16 13 12 15 17 25 41 47 53 72 80 64 64 69 67 58 57 59 61 62 63 64 60 47 38 34 32 28 26 28 20 14 23 35 31 26 21 13 10 12 18 16 12
56 48 39 31 23 22 20 17 17 19 20 16 17 24 43 47 70 85 76 74 66 57 58 58 60 65 65 62 61 51 43 38 33 29 22 18 27 38 38 30 26 22 13 10 15 18 14 12 8
45 42 34 30 29 25 21 19 17 20 28 20 19 18 30 52 56 72 71 68 69 61 60 61 62 63 64 67 60 56 45 36 27 19 20 39 36 36 35 32 23 11 11 16 17 13 9 8 14
36 29 32 34 30 25 19 17 26 38 52 39 33 27 20 27 58 60 64 65 63 62 66 67 68 64 67 70 55 43 38 37 33 38 44 44 41 40 37 21 11 14 17 14 10 8 10 15 16
44 44 50 45 45 48 42 22 47 54 64 57 46 41 40 37 38 55 68 72 71 78 84 84 84 78 78 78 69 54 52 49 49 48 48 49 47 29 13 13 17 16 12 8 9 13 14 17 19

GFSSGP_500_rhum_057.txt.gz
RH
47 82 76 53 39 24 22 20 25 59 96 86 80 84 79 70 64 59 56 52 46 37 30 20 15 12 10 9 10 11 6 5 7 11 13 14 14 14 14 13 11 9 6 4 2 2 1 1 2
64 71 94 63 43 29 20 21 22 23 49 95 84 83 82 73 64 59 48 50 48 42 33 23 16 12 7 7 6 7 5 8 12 15 16 15 15 15 14 12 9 6 4 2 2 2 2 2 2
84 74 88 86 52 35 24 20 22 23 30 62 92 88 80 73 63 52 38 41 47 47 35 24 17 9 6 6 6 6 7 11 15 17 16 16 15 14 12 8 5 3 3 2 2 2 2 2 2
98 86 75 93 66 45 32 22 22 23 25 47 59 48 42 47 41 38 29 35 44 45 35 20 12 7 7 7 6 7 11 14 16 17 17 16 16 14 11 6 4 3 2 2 2 2 2 2 2
97 97 83 58 86 52 40 30 23 23 22 27 32 29 31 33 30 29 28 26 38 44 26 12 10 8 8 8 9 11 12 16 19 19 18 17 16 14 9 5 3 2 2 2 2 2 2 2 2
92 91 78 53 62 76 50 37 29 24 23 22 23 22 24 30 31 22 23 22 25 29 13 9 8 9 9 11 13 16 18 20 20 19 18 17 16 15 9 5 3 2 2 2 2 2 2 2 2
73 100 66 69 72 94 78 47 37 28 24 23 22 22 23 20 25 24 16 19 18 15 11 10 8 9 10 12 14 20 24 24 22 20 18 17 17 15 10 6 4 3 2 2 2 2 2 3 3
29 84 99 82 79 90 95 71 46 34 28 27 24 20 17 16 16 23 19 14 12 11 10 10 11 10 11 13 17 21 24 25 23 21 18 18 17 14 11 6 4 4 3 3 3 3 4 4 3
83 100 89 91 90 94 95 94 62 44 34 30 27 21 18 16 24 21 23 14 12 11 11 11 12 13 14 16 19 22 25 26 24 22 20 19 16 14 10 6 5 4 4 5 5 5 4 3 3
61 91 59 78 93 98 96 96 94 56 41 33 28 25 21 17 16 32 33 15 14 13 11 13 13 15 17 19 23 25 26 27 26 24 22 20 18 15 10 6 5 5 5 6 8 6 4 3 3
57 84 78 83 89 97 93 97 93 85 49 39 30 26 23 23 22 26 44 25 12 13 12 14 15 17 18 21 25 28 30 30 28 26 22 20 19 16 12 8 6 6 6 6 4 4 4 4 5
72 73 100 99 100 74 99 97 97 91 64 48 36 30 28 24 27 28 55 48 30 19 15 16 17 19 22 25 27 31 36 34 31 27 24 21 19 16 12 9 7 6 6 5 6 7 7 7 6
49 62 91 99 98 97 100 96 94 96 86 54 44 38 32 26 27 32 50 66 49 36 19 20 21 22 26 29 34 41 41 37 34 30 26 22 20 16 13 10 8 7 7 7 8 7 7 7 8
17 38 75 100 97 98 95 95 93 87 91 76 51 47 41 34 32 44 62 68 75 46 32 26 29 33 37 38 42 46 43 42 37 31 26 23 19 15 13 10 8 8 8 8 8 7 9 10 23
18 24 42 92 99 93 100 94 70 100 87 81 77 54 48 46 40 47 69 76 76 89 45 42 42 47 48 49 51 53 52 45 38 31 26 22 19 16 14 10 9 9 11 10 8 8 10 17 25
25 26 43 62 87 82 95 78 100 100 89 80 87 84 64 52 49 47 61 87 89 94 73 46 49 53 52 53 56 60 54 49 43 36 29 24 22 17 14 11 10 11 13 10 9 10 15 32 28
25 23 30 44 91 84 84 99 100 96 93 94 86 80 85 80 65 59 52 66 92 95 94 64 51 56 58 63 64 63 60 55 47 40 37 34 27 18 14 14 13 12 11 12 11 13 21 20 16
36 22 25 32 48 66 74 96 97 97 96 93 99 76 77 95 97 86 71 71 76 93 96 95 68 60 63 65 66 65 59 53 48 44 40 35 27 20 17 18 17 12 12 16 15 13 14 14 14
42 28 26 31 27 52 58 82 97 97 93 95 97 86 74 82 96 95 96 90 84 96 98 84 87 74 65 66 66 64 56 49 46 41 36 31 27 21 18 17 15 13 14 16 16 21 16 14 12
67 36 31 54 42 49 57 73 88 82 92 98 93 99 85 96 96 97 96 95 96 95 97 92 80 73 66 63 61 55 50 47 44 40 35 31 26 23 20 19 17 18 22 16 20 23 15 15 13
82 41 37 42 52 44 51 60 75 76 88 94 87 88 95 95 96 92 98 96 96 93 95 96 97 92 74 62 56 52 48 45 43 40 36 32 28 25 23 22 23 35 37 26 41 21 16 14 12
89 58 38 40 50 44 45 29 44 55 67 87 95 92 98 100 99 100 100 100 100 98 95 94 95 94 94 79 60 54 49 46 42 38 35 32 29 27 23 24 28 39 35 23 18 17 15 12 15
97 94 59 32 32 28 26 18 19 26 33 60 78 82 97 96 94 91 98 99 94 90 91 92 90 85 91 95 92 70 56 49 44 41 38 35 32 35 38 41 42 27 21 19 18 16 12 16 23
100 58 45 30 25 21 15 12 13 21 22 28 39 61 87 95 98 100 99 96 92 88 92 99 88 77 76 77 75 71 66 61 56 52 45 40 41 46 46 41 29 27 22 19 16 14 22 24 22
94 72 44 28 24 19 12 11 12 20 24 34 38 42 62 85 89 97 93 97 94 88 93 94 93 88 83 72 65 55 50 49 49 50 51 49 48 46 37 31 28 23 19 15 22 27 24 21 16
80 67 44 33 30 20 14 11 10 20 34 43 45 47 47 70 72 70 89 90 87 95 90 82 73 64 61 67 71 68 63 56 51 47 44 40 38 34 31 29 29 24 18 34 31 28 25 20 10
73 66 48 36 28 19 15 15 15 17 18 17 22 23 30 45 52 52 53 76 80 67 78 81 75 65 54 54 58 62 64 67 67 64 57 47 42 39 34 24 22 40 39 36 34 30 21 11 17
70 65 54 46 38 30 25 20 20 21 22 22 20 19 19 17 28 54 70 85 81 71 68 61 62 63 61 57 56 58 62 62 63 61 60 53 43 32 23 25 37 39 37 39 36 17 14 17 14
76 60 49 44 37 31 27 25 25 27 28 32 20 15 16 17 17 18 34 53 62 88 80 73 65 52 48 49 54 53 55 56 57 58 56 49 38 29 27 31 33 40 44 34 14 16 17 11 9
73 49 43 39 33 30 26 20 26 30 45 70 60 51 35 29 26 26 19 19 42 53 82 80 76 67 61 52 55 55 53 53 56 57 52 44 41 43 43 46 47 49 23 13 16 17 10 12 18

GFSSGP_500_rhum_060.txt.gz
RH
15 37 78 95 57 35 30 27 23 71 96 90 93 92 93 83 80 71 66 63 57 45 34 24 21 19 15 13 11 11 12 4 5 8 12 13 13 14 14 12 10 9 6 4 2 2 2 2 2
17 44 80 96 89 42 31 27 27 28 94 91 95 95 95 85 76 70 67 64 56 50 40 29 20 13 11 7 7 7 8 6 9 13 15 15 15 14 13 11 8 6 4 3 2 2 2 2 2
17 33 76 84 93 64 35 27 27 29 37 96 92 90 94 84 74 71 65 64 55 53 47 34 23 16 12 7 6 6 6 7 13 16 17 16 15 15 13 10 6 4 3 2 2 2 2 2 2
17 40 57 64 62 74 40 30 26 31 26 64 96 93 90 88 80 74 66 63 56 47 51 40 26 17 12 6 6 6 7 10 14 17 17 16 16 15 12 8 5 3 2 2 2 2 2 2 2
13 28 50 44 51 93 56 36 27 26 33 29 63 95 96 97 92 84 72 61 46 38 48 46 27 15 9 6 7 8 12 13 16 18 18 17 16 16 14 8 5 3 2 2 2 2 2 2 2
15 23 32 32 42 54 88 46 34 26 25 36 38 64 86 92 86 67 48 40 35 29 43 46 20 12 9 7 8 11 15 18 20 20 19 18 17 17 14 10 6 4 3 2 2 2 2 2 3
23 33 23 38 68 49 87 77 42 32 26 26 38 44 41 52 50 39 26 24 25 26 36 37 14 11 11 10 11 14 20 22 22 21 20 19 18 17 16 12 8 5 4 4 3 3 4 4 4
51 45 52 61 64 70 78 96 67 39 30 27 26 31 31 42 40 32 27 19 20 22 26 22 12 11 11 11 12 17 24 25 25 23 21 19 19 18 17 14 9 6 5 4 4 5 5 5 4
35 47 44 85 67 87 91 94 93 54 39 32 28 25 27 35 32 39 31 23 18 16 18 16 15 12 11 12 14 19 24 26 26 24 22 20 19 18 18 14 10 6 5 5 6 7 7 5 3
41 39 27 81 100 76 97 96 93 80 53 40 33 26 24 23 27 31 30 18 23 19 14 12 14 13 12 13 16 19 24 27 28 26 24 22 20 19 17 13 10 7 6 6 6 5 4 4 4
50 37 30 46 96 92 98 96 90 92 68 51 38 31 25 23 24 23 24 24 24 13 11 12 12 12 13 14 18 21 25 29 30 29 27 24 22 21 19 16 12 9 7 6 6 5 5 7 7
71 40 48 46 84 99 96 98 93 93 95 64 49 40 32 25 29 23 24 25 38 38 13 11 11 13 14 16 19 22 26 29 31 33 30 27 24 23 21 18 15 11 8 7 6 7 8 7 7
73 61 66 100 62 87 98 97 97 94 91 95 63 48 37 30 30 29 24 27 30 42 28 13 13 14 16 17 19 24 27 32 37 37 34 31 27 24 22 20 17 13 9 8 8 8 8 7 8
62 88 76 80 95 81 98 97 99 98 93 89 91 58 43 33 29 34 29 28 28 53 50 32 16 15 17 19 22 26 31 37 42 40 38 34 29 26 24 21 19 15 10 9 9 10 9 8 9
58 88 90 72 83 96 74 82 73 100 90 87 92 88 57 42 34 29 29 28 30 53 65 64 29 18 20 21 26 31 37 42 45 48 44 37 32 28 26 23 19 16 12 10 11 12 10 10 10
52 99 97 94 98 98 99 73 57 100 92 93 94 98 78 52 44 37 33 31 31 50 71 79 86 26 22 27 34 40 45 51 56 54 46 42 38 32 27 25 23 19 14 13 13 11 11 13 13
43 51 91 97 100 98 96 100 98 97 90 71 77 78 92 79 65 46 42 37 42 66 75 83 93 81 39 39 45 49 55 62 60 55 52 50 45 39 36 34 28 22 18 18 16 12 14 17 14
49 28 32 41 63 75 73 87 99 90 97 80 88 72 80 86 88 85 52 46 46 50 78 95 93 97 88 56 58 57 56 59 60 60 57 52 47 43 40 33 27 24 20 19 16 13 15 16 20
54 41 30 26 28 52 71 70 97 89 84 77 53 71 72 69 95 96 87 61 55 52 53 79 91 89 96 94 71 62 63 60 62 62 60 55 48 42 38 33 28 25 22 19 17 16 24 22 23
55 50 35 32 31 41 53 69 82 74 96 96 98 93 78 84 91 93 95 90 76 75 68 67 77 90 98 94 92 77 62 61 63 64 61 54 46 42 39 34 29 26 23 21 20 21 33 44 26
70 85 42 29 33 31 39 36 49 52 83 97 97 97 100 92 97 97 96 96 97 94 90 87 99 94 88 92 90 88 82 69 65 63 56 50 46 43 40 36 31 27 26 22 21 31 40 36 23
100 85 62 34 31 37 29 23 24 37 47 78 95 97 100 100 99 92 95 97 96 96 97 97 96 90 92 94 94 83 73 68 64 59 55 51 48 45 41 36 32 29 28 28 36 41 34 23 20
99 99 94 55 45 30 32 23 22 18 20 57 78 96 97 100 100 98 96 89 95 92 89 95 97 97 95 89 96 95 87 82 80 70 59 54 50 47 43 38 35 32 29 33 46 42 29 26 20
93 92 97 79 47 35 33 23 18 18 26 46 53 85 90 95 90 85 99 95 84 81 85 98 97 96 93 89 90 86 87 92 90 69 61 56 52 48 47 43 39 38 46 50 41 30 25 20 15
92 89 87 76 50 36 29 24 14 21 27 28 38 43 59 64 86 94 100 97 95 100 100 99 96 97 96 91 87 88 84 86 85 85 80 69 63 60 57 54 53 52 45 36 31 26 27 24 32
67 74 80 67 56 41 32 24 16 18 31 22 28 33 38 36 50 68 79 100 99 97 99 97 99 97 87 85 84 87 83 78 70 65 60 54 53 50 48 48 47 44 40 34 33 25 33 36 37
72 72 60 50 44 34 26 23 18 16 21 24 29 33 33 37 46 49 43 79 94 98 97 98 99 94 86 82 80 79 76 77 77 74 69 65 63 62 63 61 56 48 41 33 27 31 36 36 36
64 72 68 58 48 38 32 27 18 17 18 18 18 22 26 25 32 46 68 65 74 85 87 85 85 85 81 83 80 78 73 66 62 62 64 66 65 63 60 57 54 45 32 28 23 25 31 35 40
76 65 60 53 43 38 34 30 30 27 23 22 21 20 20 19 18 18 32 64 63 81 90 95 85 82 71 66 59 62 65 64 56 55 58 63 67 65 64 61 51 37 31 32 38 38 42 45 15
77 72 64 53 47 46 44 37 35 33 36 34 27 22 19 17 14 13 13 14 17 39 61 76 95 90 92 86 76 66 64 64 64 56 51 53 59 64 64 58 46 40 44 46 50 52 25 14 16

GFSSGP_500_rhum_063.txt.gz
RH
18 26 62 95 90 82 51 61 72 51 97 85 93 92 93 94 96 92 80 76 65 56 49 35 25 27 23 20 17 14 13 8 4 6 9 11 12 13 13 11 10 8 6 4 3 2 2 2 2
17 21 55 88 75 86 66 45 44 53 67 89 95 97 96 98 90 83 82 74 66 59 48 35 24 20 18 14 11 9 9 9 6 9 13 15 14 13 12 11 9 6 4 3 2 2 2 2 2
15 17 45 58 89 80 61 45 35 47 45 87 98 100 95 90 92 88 82 72 64 59 52 42 29 21 15 11 7 6 7 8 8 12 14 16 15 14 13 11 8 5 3 2 2 2 2 2 2
12 19 30 49 36 39 78 61 36 36 34 41 95 94 96 96 96 90 84 73 66 62 54 49 38 25 18 13 7 5 6 8 10 13 15 16 16 16 14 11 7 4 3 2 2 2 2 2 2
10 15 24 26 27 64 97 67 39 36 50 39 81 94 92 98 96 95 83 75 67 62 54 47 43 30 19 12 7 5 6 9 13 15 16 17 17 16 15 12 7 5 4 3 2 2 2 2 2
15 15 17 17 21 57 82 71 48 34 34 42 54 90 94 98 97 96 88 79 70 62 53 39 44 35 20 12 7 6 7 11 15 18 19 19 18 17 16 14 11 8 5 4 3 3 3 4 4
14 14 13 15 24 98 32 41 94 43 33 37 38 48 94 95 98 98 92 91 81 64 47 31 48 38 18 11 7 7 11 15 18 20 20 20 19 18 17 16 13 10 6 5 4 4 4 5 5
20 20 15 15 58 56 30 50 94 68 36 29 45 40 48 91 96 97 96 92 76 46 28 25 43 41 15 11 8 9 13 19 21 22 21 20 19 19 19 18 15 11 8 6 5 5 5 6 5
25 31 31 21 47 94 24 53 68 94 48 33 30 31 54 64 92 93 97 82 44 25 22 27 35 33 13 11 11 12 14 21 25 25 24 22 21 20 20 18 16 12 10 7 6 6 5 5 4
48 48 90 23 28 43 28 72 69 72 78 46 32 29 34 46 65 86 80 75 49 33 24 20 28 27 13 12 12 13 16 23 27 27 25 23 22 21 20 19 17 14 11 8 7 6 6 5 6
85 45 26 28 52 35 31 66 89 88 95 62 40 30 29 30 50 75 74 73 64 44 32 19 20 24 18 18 12 14 17 24 28 29 28 27 25 23 22 21 20 17 13 10 7 6 6 7 8
76 64 49 75 70 51 45 62 99 97 81 93 56 43 32 28 30 54 68 63 43 31 33 25 13 12 11 18 15 14 17 23 29 31 31 30 28 26 24 23 22 20 16 12 9 8 8 8 8
87 75 65 96 64 52 45 96 67 96 87 80 95 58 42 30 25 32 49 65 58 48 33 41 33 18 13 11 14 15 18 22 27 32 34 35 34 31 28 25 24 22 19 14 12 10 9 9 10
91 87 61 87 46 55 62 86 99 84 90 95 87 92 56 42 28 29 32 41 43 47 39 34 41 33 16 13 12 15 17 21 27 32 38 39 37 36 32 28 26 23 20 18 16 13 11 11 11
92 95 97 100 50 83 34 88 90 99 99 97 97 90 94 54 42 31 29 34 34 28 26 24 40 41 22 16 14 16 18 22 26 33 39 42 44 42 36 31 28 26 24 23 19 15 15 15 12
92 99 96 90 75 89 48 59 91 99 97 95 91 95 93 95 54 42 35 30 34 32 30 32 34 63 50 26 16 16 19 23 28 36 44 46 49 45 42 42 37 33 32 28 21 19 19 17 13
87 92 98 98 83 75 44 63 98 95 92 89 99 88 97 93 95 49 44 38 32 35 32 30 31 54 70 70 32 19 20 25 33 41 49 51 54 51 50 47 42 40 38 32 26 21 20 17 14
74 87 99 98 96 72 74 73 60 81 96 87 95 96 95 81 82 93 59 47 39 34 31 30 34 57 72 80 93 25 22 30 39 46 51 55 59 59 58 52 47 43 38 32 27 22 21 18 17
44 94 98 92 99 83 60 78 96 91 59 65 78 89 86 82 72 72 93 84 50 44 38 35 36 54 66 82 84 96 64 42 48 53 56 57 60 63 63 58 50 44 41 36 30 26 23 22 22
61 45 80 99 96 100 96 98 98 93 95 70 50 60 85 76 74 70 80 95 92 56 54 48 45 48 60 77 83 89 94 94 75 70 69 68 66 65 68 61 51 46 43 40 34 32 29 28 24
94 53 63 52 73 89 85 84 71 42 75 94 94 83 78 62 63 77 82 88 93 95 67 60 56 51 51 54 60 70 90 96 96 89 73 73 68 66 66 59 51 47 45 42 37 33 32 28 28
83 90 66 60 45 31 37 32 48 50 37 79 86 100 93 79 64 67 59 58 77 89 96 73 66 67 66 66 65 83 73 90 89 74 71 71 70 68 62 56 53 50 47 44 40 36 32 28 32
93 97 87 59 48 33 28 32 31 24 18 45 79 90 93 99 100 98 76 89 94 84 88 97 95 87 83 81 90 98 82 81 85 88 85 78 73 68 64 66 62 54 51 47 42 36 31 36 50
95 98 75 87 96 35 29 26 29 23 23 25 44 79 89 92 91 96 89 96 88 86 87 86 96 97 98 98 96 94 95 98 86 81 86 80 76 79 79 67 60 55 51 45 44 40 46 51 43
99 100 96 94 78 61 40 26 34 22 26 22 26 37 67 85 78 81 93 90 87 87 81 81 93 96 96 94 94 98 97 92 86 81 81 84 86 86 90 79 79 67 55 51 50 51 46 41 37
99 99 90 82 74 64 58 46 32 29 26 23 22 20 39 54 56 57 84 94 92 88 93 94 96 97 96 96 95 98 92 89 89 87 88 89 88 89 86 82 73 61 54 49 46 47 49 42 38
100 82 64 69 65 61 53 43 35 32 30 19 17 19 20 30 34 38 39 46 92 94 95 98 99 98 99 97 93 96 89 96 90 86 89 83 81 78 68 63 56 51 52 58 63 58 43 33 33
81 78 80 80 82 80 66 56 44 29 24 17 17 18 17 17 19 36 41 35 44 57 84 92 100 99 98 100 99 98 96 97 93 89 86 85 81 77 73 73 72 70 68 65 60 58 56 46 31
87 70 79 82 78 69 70 60 34 32 22 15 15 15 14 14 17 21 24 25 26 32 43 70 88 91 95 96 98 94 96 97 93 89 84 81 75 68 61 63 63 64 66 68 67 57 46 41 40
84 82 79 82 76 67 57 47 40 36 34 30 25 20 15 13 13 14 16 17 20 30 47 56 66 88 90 89 87 82 89 95 86 81 80 80 79 76 69 63 63 63 68 69 68 58 47 45 50

GFSSGP_500_rhum_066.txt.gz
RH
40 78 100 97 94 90 74 55 97 94 92 87 96 87 85 93 96 77 64 66 68 63 60 53 34 29 28 24 21 19 16 13 6 4 5 6 9 12 12 11 10 8 7 4 3 2 2 2 2
29 54 98 99 85 89 76 57 95 85 81 97 93 99 93 96 81 68 69 74 76 66 58 54 43 24 25 23 19 16 14 12 8 5 7 10 12 13 12 11 10 8 5 4 2 2 2 2 2
21 46 84 97 88 60 62 91 91 84 88 88 95 96 80 84 84 77 80 75 77 71 60 52 40 28 20 19 15 10 8 9 8 7 9 12 13 13 13 12 9 6 4 3 2 2 2 2 2
15 40 57 70 45 37 56 85 94 78 82 95 95 89 96 97 97 85 85 81 76 70 63 56 47 35 23 15 12 8 5 7 8 8 9 12 14 14 14 13 9 5 4 3 2 2 2 2 2
24 37 37 36 23 59 77 99 93 68 69 95 90 95 87 97 94 93 94 90 81 71 63 58 51 44 32 20 13 8 5 6 8 10 11 14 15 16 15 14 11 8 5 4 3 3 3 3 3
46 48 25 20 21 40 100 90 76 72 74 92 86 94 95 92 97 98 94 87 81 75 67 59 51 43 38 25 15 10 6 5 8 12 14 16 17 17 16 15 14 12 8 5 4 4 4 4 5
46 57 30 19 21 43 100 73 64 73 78 70 57 80 77 95 97 96 96 91 81 78 69 61 53 39 35 32 17 9 6 6 9 13 17 19 19 18 18 17 16 14 11 7 6 5 5 5 5
39 55 23 26 29 56 89 63 67 63 89 72 49 68 68 94 97 95 100 89 86 82 73 65 57 36 28 32 20 9 7 8 12 16 20 21 20 19 19 19 18 16 12 10 7 6 6 5 5
44 94 30 17 38 93 65 34 58 80 78 77 65 45 69 79 95 97 99 95 84 91 81 75 50 29 30 32 22 10 8 10 14 19 21 22 22 21 21 20 19 17 15 13 11 8 7 6 6
84 76 57 15 26 67 52 26 36 64 75 78 56 44 39 87 92 94 97 94 91 99 91 68 28 27 33 37 22 10 9 11 17 21 25 25 23 22 22 21 20 19 18 15 13 10 8 7 7
95 71 49 29 43 56 59 44 40 45 75 85 85 40 37 37 55 84 86 94 97 91 94 46 23 23 32 35 23 13 11 12 17 22 27 27 26 24 24 22 22 21 19 16 14 12 9 8 8
97 98 77 76 56 58 32 35 30 37 60 72 81 66 40 39 38 62 90 90 80 86 98 47 34 22 24 31 25 18 12 13 17 22 27 29 30 29 27 25 25 24 22 18 16 15 14 11 10
91 96 90 91 74 38 47 62 36 31 39 64 89 95 53 40 38 45 66 82 76 70 61 37 36 35 24 21 22 24 19 13 16 22 27 30 32 33 33 31 28 26 24 22 20 20 17 15 13
75 94 96 64 95 96 80 46 24 32 31 60 83 94 95 45 40 37 39 79 89 76 70 63 52 41 41 35 23 16 14 14 17 21 26 29 33 36 36 36 35 29 26 25 25 24 22 19 16
86 98 97 91 96 89 68 49 24 28 36 58 94 90 93 95 47 39 34 35 64 66 69 68 59 56 47 37 28 16 15 14 17 19 23 27 32 38 39 42 40 34 33 31 30 30 27 22 21
86 95 97 94 77 97 80 80 45 58 58 66 81 89 89 92 95 49 39 36 33 40 46 56 50 50 63 40 38 28 18 17 16 18 21 26 32 36 42 49 44 44 43 39 38 36 30 24 22
100 99 96 90 77 95 94 78 59 56 46 80 86 86 84 92 93 94 50 44 39 32 33 39 40 39 43 30 42 46 38 25 16 17 20 24 30 40 48 56 52 53 50 46 44 40 34 29 25
88 81 98 82 79 91 98 76 46 43 42 86 98 98 85 74 95 92 92 61 46 41 37 33 35 36 30 30 32 55 65 59 28 18 20 23 32 42 53 60 60 59 58 54 48 44 39 33 30
80 78 100 100 99 98 99 96 88 77 55 52 94 87 95 98 89 84 93 97 74 44 42 39 36 38 35 31 31 46 61 83 73 28 21 23 35 47 55 63 64 65 68 63 53 48 44 42 39
88 93 98 97 98 95 97 99 96 60 55 73 97 85 89 100 97 93 77 92 92 81 47 47 41 37 36 32 32 35 53 68 74 90 67 38 48 55 60 66 68 66 68 67 57 51 48 46 41
86 85 100 100 97 97 99 100 75 63 74 73 53 48 45 80 90 89 87 96 90 92 91 83 56 47 42 41 37 44 60 72 77 85 82 82 100 86 72 70 66 67 65 62 56 52 50 48 44
100 87 92 94 100 100 99 100 90 94 78 76 98 100 90 56 48 65 61 69 75 85 83 94 95 64 52 58 50 49 49 54 61 60 79 76 77 80 73 73 67 71 70 66 60 60 58 51 61
95 100 94 74 90 94 97 92 89 80 77 71 46 63 90 98 56 70 48 66 79 77 93 94 94 84 93 80 76 60 58 53 49 51 48 58 73 88 79 74 71 72 75 72 72 70 58 56 62
100 87 71 72 80 86 72 59 47 52 34 30 25 35 82 94 90 92 80 69 74 78 64 66 85 80 85 95 93 86 82 71 68 72 74 73 81 83 79 78 76 75 78 81 79 71 68 71 70
92 95 94 86 74 64 48 32 34 33 32 24 22 22 32 50 60 71 74 83 100 100 87 83 87 84 85 90 95 95 98 97 96 96 96 95 89 92 80 75 67 74 84 89 90 90 87 67 62
97 99 92 78 68 61 61 45 31 28 27 25 25 27 27 28 31 40 44 44 48 63 94 99 100 98 96 97 95 95 97 95 96 96 95 90 97 85 77 82 80 82 84 86 83 73 62 56 53
100 97 85 92 74 73 80 72 50 36 31 34 30 24 21 22 18 20 38 58 53 55 87 92 95 97 98 99 95 98 93 97 97 97 95 98 96 84 77 86 85 77 75 72 68 65 65 66 68
100 91 88 95 100 93 90 78 68 62 53 39 34 28 20 17 16 15 14 20 28 29 51 67 97 97 98 96 98 92 88 99 96 97 93 96 98 89 91 91 91 91 86 80 74 72 71 68 70
100 100 99 100 100 100 100 90 72 68 51 40 31 24 18 14 13 11 11 12 17 18 28 39 49 59 88 96 95 97 93 98 96 96 95 99 99 98 96 93 86 83 77 72 63 64 64 69 71
83 92 100 100 100 99 100 96 91 71 47 35 29 20 16 13 12 12 12 13 15 16 18 20 25 35 47 72 70 65 91 91 96 98 100 98 97 99 98 98 96 91 86 78 72 71 66 65 67

GFSSGP_500_rhum_069.txt.gz
RH
34 75 99 96 98 84 64 70 94 96 96 92 83 71 71 80 81 78 66 63 58 56 56 54 47 42 35 29 23 20 18 15 11 5 3 5 7 9 11 11 10 9 7 5 3 2 2 2 1
26 54 99 98 84 74 60 78 77 95 96 98 89 79 75 89 96 80 70 62 62 61 61 60 55 38 31 27 25 20 17 15 12 6 4 7 10 12 12 12 11 9 6 3 2 2 2 2 2
17 33 81 100 88 53 55 70 86 92 97 95 98 85 94 91 97 85 73 64 65 67 64 60 57 49 29 24 23 19 15 12 12 7 6 8 11 12 13 12 11 8 4 3 2 2 2 2 2
18 36 57 64 42 45 54 88 96 98 93 88 96 97 96 97 96 95 78 70 72 71 72 63 54 46 36 20 19 14 9 8 10 8 8 10 11 12 13 13 11 8 5 3 3 2 2 2 2
23 52 65 48 30 45 70 98 93 81 67 94 96 96 94 96 96 91 87 76 78 78 76 70 61 49 37 24 16 13 8 5 6 8 10 11 13 14 15 14 13 10 7 5 4 4 4 4 4
22 84 51 53 30 38 92 99 89 89 75 79 92 92 95 97 97 95 87 82 83 79 73 70 64 56 47 38 23 15 9 6 6 8 11 14 15 16 16 16 15 14 11 8 6 5 5 5 5
40 92 58 49 44 64 99 91 64 78 83 59 91 94 95 99 95 98 84 86 92 85 78 71 67 59 50 43 34 22 12 7 6 8 12 16 18 18 18 17 17 15 13 10 8 7 6 5 5
76 93 59 54 53 52 97 70 64 55 62 66 73 93 92 100 97 96 87 95 94 87 80 74 70 64 54 39 35 29 15 8 6 8 12 17 20 20 19 19 19 17 15 13 11 9 7 6 6
80 98 90 53 59 50 89 69 92 69 48 45 59 88 97 88 93 94 97 89 97 94 84 77 73 68 59 44 28 30 19 9 7 10 14 19 21 21 20 21 21 20 18 16 14 12 9 8 7
89 97 84 44 82 55 66 64 93 76 63 48 52 77 93 92 90 92 96 96 97 95 93 82 79 76 58 41 29 27 25 10 8 12 16 20 22 22 23 23 22 22 21 20 18 16 13 11 10
99 79 71 49 91 81 42 67 73 82 74 56 62 88 93 94 88 86 91 97 96 93 96 94 85 84 42 31 25 25 31 12 10 14 18 22 24 25 24 24 24 23 23 22 20 18 17 15 14
78 58 86 81 72 97 52 59 69 60 58 50 52 66 88 87 90 83 90 95 96 97 90 89 92 88 49 30 30 32 34 17 13 13 20 25 27 28 28 28 26 26 25 24 23 21 22 19 16
62 72 97 98 92 89 79 65 69 44 29 31 56 81 70 90 83 88 77 93 95 96 97 96 94 73 40 36 34 34 33 22 18 14 18 26 27 30 32 32 32 31 29 27 26 25 25 24 21
68 90 98 91 98 84 66 72 67 46 37 32 30 48 55 79 84 86 88 77 94 95 93 97 95 96 49 41 39 35 29 26 26 17 17 22 27 30 33 36 38 37 36 32 28 28 28 28 25
79 95 100 95 77 98 90 87 60 58 40 34 33 36 71 80 86 89 81 92 92 96 97 95 87 90 63 54 54 53 40 20 19 17 17 19 23 28 33 38 41 43 44 37 37 37 36 37 36
87 98 99 99 97 85 87 65 70 68 49 37 30 30 51 77 80 92 86 60 67 52 68 98 93 87 87 72 68 58 44 31 17 17 18 18 19 23 28 36 43 47 51 45 47 46 44 42 40
100 93 99 98 98 97 87 94 95 95 76 44 26 28 30 55 59 76 96 68 46 61 50 63 79 87 97 84 75 63 55 39 26 18 18 17 17 19 24 30 39 49 58 56 56 54 52 48 44
95 95 100 95 97 96 85 98 97 79 81 44 29 30 45 35 83 72 75 97 82 46 54 40 40 50 64 66 66 67 53 36 46 41 34 24 17 17 20 25 34 47 57 62 62 62 62 58 52
98 83 98 98 98 96 99 95 91 84 77 60 32 29 44 63 64 100 96 86 91 88 62 60 46 45 42 38 36 34 28 30 37 50 62 52 37 19 21 22 28 44 55 60 62 60 59 62 56
98 100 100 100 98 98 99 98 96 90 100 99 60 40 42 70 82 80 85 96 90 92 86 87 69 65 58 67 48 35 35 32 29 31 52 73 92 74 61 57 51 46 55 60 62 58 59 62 59
96 84 99 100 98 99 100 98 96 89 100 95 57 47 41 64 93 76 57 64 72 74 96 99 87 81 78 55 49 42 34 39 38 34 35 59 78 81 89 91 87 67 56 57 71 72 68 64 65
72 90 99 100 97 99 98 97 94 98 100 85 92 75 54 49 62 71 95 98 88 86 83 92 90 99 97 92 92 91 64 41 48 45 49 74 70 77 80 78 74 75 77 72 67 63 61 60 62
76 83 84 99 96 97 99 94 95 89 92 80 65 67 71 70 50 52 48 90 93 97 97 92 95 95 96 90 96 95 98 84 70 68 53 52 52 58 57 65 74 72 89 90 89 87 84 71 69
75 78 83 96 94 100 99 100 88 99 100 85 73 65 70 70 51 39 30 32 62 65 89 87 85 82 90 100 94 96 94 96 96 96 82 62 52 58 58 74 89 90 89 92 81 73 66 64 75
91 92 95 100 99 95 95 94 74 97 86 80 41 48 46 22 23 50 50 57 50 48 54 59 65 60 55 62 75 74 86 91 96 96 96 98 78 74 86 88 88 91 91 95 84 73 67 72 81
98 100 100 91 83 80 74 98 76 55 43 41 32 41 43 24 18 17 28 49 59 73 83 80 77 81 79 83 68 65 74 83 88 94 96 97 94 96 97 98 93 92 91 91 80 72 75 74 75
73 84 84 82 84 83 74 80 84 46 33 31 30 26 23 21 16 14 13 11 20 34 48 50 54 75 74 89 81 86 98 96 94 94 96 93 99 98 97 98 97 87 96 89 83 82 84 78 78
93 68 76 77 95 94 93 82 75 68 54 38 31 32 30 24 20 16 14 12 11 12 26 41 47 54 66 66 78 97 98 99 98 98 98 96 87 90 96 97 96 96 100 99 89 85 90 88 80
98 98 90 85 90 89 91 84 81 82 71 64 57 47 37 31 24 19 14 13 12 10 13 20 25 36 62 81 87 89 99 97 98 100 99 100 99 95 96 96 95 100 100 98 96 89 86 83 77
95 98 91 96 90 87 87 82 89 85 77 66 57 56 54 55 46 32 21 14 11 11 10 12 15 19 25 32 37 40 55 86 85 95 88 99 96 97 96 98 98 98 96 94 96 94 92 92 84

GFSSGP_500_rhum_072.txt.gz
RH
26 60 99 100 87 69 88 90 93 95 95 90 72 74 68 84 74 66 70 62 53 55 53 49 46 44 41 36 27 22 20 17 12 6 4 4 5 6 8 10 10 10 8 6 4 2 2 2 2
20 48 99 99 93 69 54 63 91 87 99 100 92 81 74 83 77 81 80 69 58 53 55 54 51 47 42 37 30 23 20 17 14 9 5 5 7 9 10 10 11 10 8 5 3 2 2 2 2
22 29 81 99 93 60 50 47 58 77 96 93 97 85 79 86 88 97 89 76 65 59 57 57 56 54 39 33 28 24 21 16 13 11 7 7 9 11 12 12 11 10 7 4 3 2 2 2 2
84 26 65 83 83 55 52 78 92 94 78 96 97 89 78 71 92 81 92 78 68 64 61 60 59 58 52 30 24 22 17 12 10 11 9 9 11 12 13 13 12 10 6 4 3 3 2 2 3
90 60 62 58 38 51 63 95 96 87 75 95 97 99 85 90 95 96 93 79 71 66 66 65 61 56 51 38 22 18 14 9 7 10 10 11 13 14 14 14 13 12 9 6 5 4 4 4 4
93 82 64 61 43 41 82 94 85 89 91 90 93 95 96 94 98 92 93 80 71 72 70 71 67 59 50 37 26 18 13 8 6 7 11 13 14 15 16 16 15 14 12 10 8 6 5 5 5
69 96 60 63 51 43 83 98 69 94 96 94 90 96 99 96 96 96 96 96 92 80 80 79 73 67 59 49 38 25 17 10 8 6 10 14 15 16 17 17 17 16 15 13 10 8 7 6 6
65 100 69 70 66 45 88 87 68 100 97 81 88 89 98 98 96 97 96 97 95 93 81 77 74 70 63 56 47 39 22 12 9 8 9 12 16 19 19 18 19 19 17 15 12 11 9 8 6
50 97 84 73 77 60 93 77 100 93 93 79 83 90 97 96 95 97 95 98 95 96 92 82 76 72 67 61 50 38 35 21 9 9 11 13 17 20 21 20 20 20 20 17 16 14 11 9 8
56 83 72 65 72 76 96 80 95 89 84 59 54 76 89 94 96 96 95 97 97 96 96 90 84 78 72 65 56 42 31 28 14 9 11 14 20 23 23 22 22 22 22 22 21 19 17 15 13
50 52 71 66 73 84 94 89 76 96 84 64 45 39 84 91 96 94 95 96 98 96 96 95 96 91 79 71 57 44 30 33 20 11 14 17 21 23 24 24 24 24 24 24 24 23 22 22 21
67 44 77 85 91 98 91 83 94 94 78 77 64 41 49 85 94 94 90 97 96 97 96 95 96 97 94 76 56 42 33 34 28 14 14 18 23 26 26 27 26 26 26 26 26 25 25 25 25
72 48 94 99 98 99 97 100 72 83 76 92 92 72 56 65 85 94 96 93 95 96 96 96 96 98 97 88 47 35 36 34 33 22 16 16 20 26 29 30 31 31 31 31 30 28 26 27 28
61 55 98 98 94 92 97 93 92 66 80 86 90 83 63 79 75 87 96 94 94 95 96 96 97 95 96 95 59 40 36 35 34 28 22 16 17 24 30 32 33 35 37 38 38 35 30 30 32
51 87 98 98 95 97 96 98 90 61 59 74 78 78 75 69 67 65 90 95 92 96 92 94 96 96 96 96 67 47 39 36 35 34 28 24 16 17 23 30 33 36 39 42 46 40 38 41 40
34 91 94 100 98 95 98 95 94 70 56 56 64 45 42 49 57 68 61 73 95 94 92 96 96 96 96 97 84 76 69 42 44 36 30 23 19 17 19 23 28 34 41 44 50 50 49 51 50
47 85 81 100 99 88 93 98 96 89 62 60 57 48 40 32 28 35 88 80 90 94 92 94 94 96 96 95 94 98 87 79 60 52 38 29 17 17 18 19 22 26 33 42 48 53 55 57 57
56 80 100 99 98 98 92 89 89 77 72 72 65 53 49 44 54 54 65 84 74 97 94 90 93 94 96 95 93 94 99 88 68 70 56 44 34 26 19 19 18 20 24 33 43 53 58 60 59
59 87 98 100 95 98 96 97 97 98 89 76 64 58 46 43 43 40 52 66 95 95 95 85 94 97 87 68 84 93 95 71 62 58 52 40 56 63 57 36 20 19 21 27 37 44 52 58 60
68 83 100 98 100 99 99 99 89 95 75 71 74 66 62 44 33 30 30 34 41 76 71 93 93 92 96 92 61 46 51 60 54 35 31 32 31 40 71 79 79 49 45 39 39 47 54 57 61
71 92 96 92 98 100 98 96 96 98 100 83 80 88 63 37 32 30 41 48 53 72 100 99 96 96 94 87 88 88 81 72 72 42 33 34 32 32 48 61 74 88 92 89 82 70 62 59 68
93 85 98 100 93 95 98 94 98 94 95 89 88 83 68 46 33 31 41 61 87 80 90 96 96 96 96 96 92 85 80 84 83 78 77 80 59 54 54 55 70 74 79 83 79 76 81 80 75
100 100 98 95 99 93 97 86 98 96 88 78 76 77 70 67 50 43 39 68 83 86 69 76 66 94 92 96 95 100 94 90 99 89 94 92 95 96 94 92 84 92 89 75 75 70 68 71 72
98 100 100 98 100 100 93 94 90 88 92 84 79 82 79 68 55 47 44 54 65 62 72 89 91 100 98 94 96 97 96 96 97 97 96 97 97 93 95 96 93 86 71 71 73 75 80 81 77
86 91 97 100 99 98 100 100 80 76 93 99 86 80 70 61 54 47 47 44 46 43 45 59 89 94 94 90 96 96 92 97 97 97 96 96 95 95 96 97 97 96 94 86 95 81 72 86 92
77 75 86 97 95 95 95 93 95 89 98 100 78 71 63 59 38 32 26 41 45 52 66 64 72 69 66 79 79 82 68 58 60 76 87 94 94 96 94 96 95 94 96 97 97 93 94 86 86
63 72 73 89 100 100 96 88 93 88 88 72 90 41 39 47 44 37 31 22 18 34 40 34 38 49 46 51 59 61 57 64 71 71 82 89 88 96 97 96 96 95 90 96 93 96 88 89 90
77 95 82 92 97 88 91 90 91 93 74 42 36 35 32 31 35 31 25 23 18 17 16 17 22 37 54 58 60 50 60 60 69 94 99 98 98 97 98 98 96 88 85 88 94 91 92 97 92
80 80 87 83 70 76 72 71 70 72 94 96 69 48 32 28 26 23 27 27 15 14 12 12 11 11 13 21 28 38 44 53 72 83 98 100 98 98 96 98 98 98 93 87 87 95 91 88 84
89 86 89 86 79 75 78 77 82 89 84 78 60 55 50 37 28 28 28 22 19 16 14 12 10 9 9 9 11 13 17 28 59 72 93 99 99 96 98 98 97 97 97 98 100 95 97 97 98

GFSSGP_500_rhum_075.txt.gz
RH
50 21 48 98 100 96 65 94 54 76 95 93 74 86 86 72 60 49 48 43 45 48 45 43 43 45 42 40 36 27 24 19 14 9 4 4 4 5 6 8 8 9 9 8 6 4 3 2 2
50 27 44 96 98 93 53 67 89 61 87 96 98 92 87 71 63 57 54 55 47 48 48 48 48 47 45 42 37 28 23 19 16 12 6 4 5 6 8 10 10 10 10 8 5 3 2 2 2
56 26 39 86 97 83 45 41 84 97 98 89 95 93 84 72 62 58 55 60 61 53 53 52 52 49 47 44 39 31 24 20 17 14 9 7 8 9 10 10 11 11 9 6 4 3 2 2 2
57 54 49 78 98 60 38 46 72 97 91 90 96 98 90 85 82 72 70 63 63 62 56 58 55 53 49 44 38 30 24 20 16 14 11 9 10 11 12 12 12 11 10 7 4 3 3 2 3
41 50 69 69 88 61 38 57 89 91 84 81 96 97 97 95 92 97 70 72 72 78 62 59 57 56 55 51 37 25 22 16 12 11 11 10 10 12 12 13 13 13 11 9 6 5 4 4 4
37 45 73 82 64 50 54 71 90 83 72 93 84 96 96 97 97 97 99 98 96 90 73 67 63 61 57 54 48 28 19 12 9 8 9 11 12 14 14 14 14 14 14 12 10 6 5 5 5
36 40 57 70 59 66 67 98 93 81 79 76 80 94 95 96 91 95 95 97 96 93 78 77 72 66 59 53 46 32 20 13 8 7 9 11 14 15 16 17 16 16 16 15 12 9 7 7 6
27 43 40 91 68 54 54 94 96 93 100 92 86 87 94 96 95 96 98 96 95 94 86 84 81 71 63 55 47 36 26 18 11 9 8 10 14 16 18 19 19 18 18 17 16 13 12 10 8
25 50 43 42 72 50 63 78 100 99 93 82 88 84 96 95 96 97 97 95 94 98 98 93 89 79 71 63 56 47 39 25 16 10 9 10 14 17 19 21 20 20 20 20 18 16 16 14 11
26 34 33 28 57 57 67 75 92 100 94 79 79 87 94 91 98 97 97 98 96 97 97 95 94 86 75 67 60 52 44 39 29 14 10 12 15 18 20 22 22 21 22 22 21 21 20 18 16
47 21 34 26 99 72 78 91 89 94 94 80 64 83 76 88 96 96 96 96 96 96 96 94 95 94 86 74 65 56 47 36 32 25 13 12 17 20 22 24 24 23 23 23 24 24 24 22 22
51 24 32 39 98 87 93 99 93 94 86 100 92 86 84 69 96 94 96 94 96 96 95 95 94 97 92 89 74 63 50 41 35 28 20 13 14 19 23 26 26 25 25 26 26 27 27 26 26
54 30 32 52 81 100 100 93 97 73 76 100 100 94 74 73 94 95 92 95 96 96 97 97 96 93 91 89 83 67 54 44 36 33 26 17 14 16 22 26 29 29 29 30 30 31 32 31 28
52 35 32 54 86 100 94 85 98 89 85 100 95 80 60 55 86 88 99 96 96 95 96 96 96 97 93 93 79 66 61 52 43 36 33 26 18 14 16 22 28 30 32 33 35 36 38 38 34
56 36 54 50 88 100 93 95 95 85 77 96 99 93 90 64 78 72 93 94 91 92 92 96 96 96 96 91 92 71 63 56 51 47 41 33 26 19 16 17 22 30 34 36 38 39 41 44 40
57 61 67 50 100 100 95 92 91 93 100 100 100 97 87 94 92 98 94 89 88 78 92 95 96 96 97 96 96 95 72 51 46 51 51 40 33 29 22 18 18 23 29 33 37 41 44 52 49
58 45 49 63 99 99 98 84 79 97 100 100 98 94 86 78 92 90 98 94 90 94 95 95 95 95 96 96 96 94 92 80 58 51 59 59 36 30 24 19 19 21 22 26 30 37 44 51 57
56 33 68 63 96 98 98 88 88 91 84 95 97 99 91 79 87 91 91 93 94 97 90 91 91 92 96 96 97 94 93 93 65 69 74 63 62 46 36 28 24 23 20 20 21 25 32 41 50
53 38 55 66 98 99 99 100 97 93 77 76 90 82 88 80 63 73 76 88 85 78 96 96 94 91 91 95 96 97 97 88 86 98 79 91 79 72 62 50 53 51 36 26 19 20 25 33 39
54 46 57 80 98 100 95 96 94 97 98 98 92 80 76 73 64 49 39 64 34 48 62 92 95 96 94 95 95 93 91 95 86 87 78 68 61 58 41 35 42 57 76 82 55 25 28 37 48
62 40 64 85 96 96 98 99 96 97 97 75 88 75 61 64 59 52 44 35 30 30 38 53 93 86 83 93 94 91 90 94 80 62 60 51 56 55 36 33 34 48 61 77 80 87 83 87 96
49 51 89 86 100 100 100 98 99 93 99 98 88 76 71 64 63 60 57 45 30 43 36 50 60 82 94 96 88 80 95 96 96 94 92 80 80 76 59 48 54 56 58 65 68 82 90 93 90
56 79 94 99 99 99 97 98 98 92 94 66 99 78 71 66 72 74 60 46 40 46 40 46 58 64 75 97 100 94 94 100 98 96 96 96 96 95 93 92 96 96 96 96 94 92 87 94 83
90 98 85 96 99 100 92 92 89 94 100 97 99 98 83 81 96 94 80 50 34 40 48 58 55 75 69 86 76 79 81 96 96 97 96 97 96 97 96 96 96 96 97 97 96 96 96 93 80
90 83 91 100 100 100 100 91 85 97 96 98 82 74 81 60 60 63 63 60 42 40 57 63 64 65 68 77 74 69 68 96 85 87 97 95 96 95 97 97 97 96 96 97 97 96 91 89 77
85 100 100 96 94 100 100 100 86 89 86 83 76 70 60 64 66 63 76 58 48 43 46 60 62 49 42 47 70 92 92 92 97 99 96 97 93 96 96 97 94 96 96 97 95 96 92 97 92
69 89 99 100 97 97 99 100 100 84 64 92 83 85 79 72 69 69 65 52 47 42 39 51 56 48 41 40 50 47 61 74 87 81 90 96 72 68 77 83 90 96 91 91 90 86 84 90 91
68 68 67 66 90 96 96 92 95 94 96 98 100 71 73 71 60 48 37 32 24 29 29 32 36 47 51 58 68 62 61 57 50 49 59 63 58 60 77 75 75 78 79 82 93 96 90 85 80
82 62 56 65 61 61 68 78 91 97 98 80 71 78 56 40 46 50 50 47 38 29 24 25 24 22 22 20 24 32 34 42 52 55 58 55 65 68 78 98 99 97 100 99 96 89 90 90 84
67 75 80 99 97 77 73 56 70 74 86 89 71 51 43 39 38 38 32 29 26 21 22 16 14 13 12 12 12 11 10 10 11 13 16 25 38 60 82 92 87 91 96 94 100 100 92 97 96

GFSSGP_500_rhum_078.txt.gz
RH
5 8 21 44 47 65 74 50 60 66 70 80 98 99 86 76 73 55 51 51 44 40 40 40 39 38 36 36 39 35 31 26 19 12 7 4 4 4 5 7 7 8 8 8 8 6 4 3 2
7 9 34 42 59 74 55 41 64 90 70 70 95 97 95 94 68 62 59 53 46 41 39 40 42 41 41 39 39 37 31 24 20 14 9 6 4 5 6 8 9 10 10 9 8 5 3 2 2
8 14 43 59 58 58 51 52 58 99 97 67 79 97 94 82 74 68 64 59 52 48 43 44 42 44 46 44 42 39 33 24 20 17 13 8 6 7 8 9 10 10 10 9 7 4 3 2 2
11 16 39 55 66 58 56 65 65 95 83 91 89 96 95 97 94 75 69 62 54 56 49 48 48 47 49 48 44 41 35 27 20 17 13 11 9 9 9 10 10 11 11 10 8 5 4 3 3
19 17 44 56 55 60 67 67 69 87 76 90 99 85 97 98 97 94 77 65 60 64 59 53 53 52 52 52 47 43 38 29 22 17 13 12 10 10 10 11 12 12 12 11 10 8 7 5 5
27 20 34 55 63 70 77 76 64 87 80 76 98 90 97 97 96 97 87 73 68 65 72 67 58 56 56 55 52 43 34 29 22 14 12 11 11 12 13 14 14 14 14 13 13 12 10 8 6
26 24 24 51 56 67 78 88 93 97 85 75 73 92 95 96 97 93 95 86 79 80 82 81 66 60 60 59 54 51 39 25 19 13 10 9 11 12 13 15 16 16 16 16 15 14 12 9 8
16 25 27 30 62 61 65 85 100 99 86 79 76 90 84 96 93 97 97 95 88 83 83 86 88 69 63 61 58 52 47 32 18 12 8 8 10 12 13 15 17 18 17 18 17 16 14 13 12
21 18 24 26 40 48 64 92 98 99 94 85 78 79 94 96 96 95 97 97 95 88 91 97 93 80 72 66 59 50 44 31 18 14 9 8 9 12 14 16 18 19 19 19 20 19 17 17 16
43 32 17 22 26 41 66 91 100 99 98 99 78 92 94 92 92 95 96 96 96 96 98 99 97 84 76 68 60 52 40 30 22 18 12 11 10 11 13 17 20 21 21 21 22 21 21 22 20
31 33 31 20 23 38 46 90 98 98 96 90 72 87 95 79 87 92 96 97 98 98 96 96 96 94 83 71 64 58 51 45 36 28 19 14 12 11 13 17 20 22 22 22 23 24 24 25 24
47 32 32 33 21 40 42 95 97 94 82 85 100 99 94 96 92 96 95 96 96 97 96 96 93 96 95 89 78 64 56 50 42 37 29 20 15 14 16 19 21 24 25 24 25 26 26 27 28
55 52 49 30 32 30 44 88 91 83 100 87 100 98 93 97 94 91 95 97 95 97 96 98 97 95 96 95 91 66 57 52 45 38 31 26 19 15 15 20 23 25 28 27 28 28 29 31 32
56 43 40 25 33 28 55 82 87 73 99 98 88 88 94 93 88 90 90 96 96 96 96 96 97 96 94 95 94 86 71 57 49 43 35 30 24 19 15 14 19 24 27 29 30 32 34 36 36
41 39 38 33 28 32 63 81 86 98 89 82 82 94 95 89 77 91 92 87 97 96 96 95 96 97 96 96 97 96 83 66 58 47 39 34 30 26 20 16 14 18 23 29 32 34 36 38 40
82 53 28 24 34 43 66 96 76 98 90 79 63 98 96 96 70 85 93 95 95 96 94 94 97 96 96 96 95 95 97 92 77 61 51 43 36 31 27 24 19 17 18 22 29 34 37 41 42
96 54 51 67 38 57 88 94 90 99 80 77 81 87 98 97 91 93 88 88 89 92 96 94 95 96 97 95 97 96 95 94 95 67 50 46 43 36 36 32 28 24 20 20 21 25 30 33 38
91 67 100 71 38 56 94 99 95 91 89 89 100 96 96 96 97 96 95 91 96 95 91 90 91 96 94 88 91 96 96 95 94 95 76 47 41 38 38 41 35 27 21 21 20 20 21 22 26
75 83 100 53 44 57 90 98 100 99 90 99 100 98 96 96 97 96 95 96 94 96 84 96 95 96 95 95 96 96 97 94 96 97 97 82 54 52 48 51 58 59 44 31 29 26 24 21 19
100 67 92 47 74 84 93 99 99 98 96 97 98 98 95 90 94 97 95 95 95 92 97 97 95 93 97 96 97 96 95 96 96 84 87 85 83 58 56 72 66 60 46 42 46 54 61 52 30
99 54 59 63 81 93 98 99 95 96 90 97 97 98 96 97 95 96 96 95 97 96 93 86 91 91 94 94 91 95 94 96 96 97 94 93 93 72 72 72 82 82 84 65 53 48 54 67 74
77 62 58 71 82 95 99 100 98 99 99 96 92 96 98 99 100 97 94 74 71 55 75 58 49 67 90 91 95 95 96 96 96 96 95 96 96 92 85 90 92 95 96 94 85 84 85 83 87
62 84 100 94 94 95 100 99 99 96 97 97 100 100 100 98 98 94 88 88 82 71 72 62 41 53 59 60 82 94 92 95 95 96 93 99 97 96 97 97 97 97 98 96 96 96 96 98 97
69 80 99 100 94 100 100 97 99 96 94 88 83 94 98 100 98 97 78 74 89 91 83 73 53 40 42 59 75 74 67 96 94 96 96 95 99 95 96 96 97 96 96 98 96 94 97 97 98
78 61 99 100 96 94 92 93 97 97 100 93 96 96 98 99 97 95 95 90 84 81 74 53 41 31 31 45 64 70 92 92 95 95 94 94 98 97 96 96 97 98 97 97 96 96 96 97 97
90 100 99 94 94 94 98 100 99 93 96 84 93 88 98 94 95 97 86 85 89 82 72 49 33 34 35 38 63 56 53 52 94 83 83 90 96 98 94 98 96 95 96 96 95 92 93 96 95
100 98 92 80 95 99 100 100 94 80 85 98 95 97 98 99 82 67 77 89 99 92 69 54 45 42 36 35 46 50 46 40 48 55 69 88 97 96 96 97 96 93 93 91 88 77 83 90 84
96 98 97 100 100 98 100 100 99 96 88 95 97 99 86 83 77 77 75 79 89 91 66 54 45 41 40 37 37 40 38 31 32 35 39 51 66 90 56 60 68 59 62 64 60 58 85 92 92
64 71 66 72 86 95 98 99 98 98 86 91 96 92 83 88 79 69 71 76 83 77 61 48 38 33 31 35 36 33 30 26 25 28 30 30 39 48 47 48 53 53 56 65 74 84 97 98 94
58 54 50 52 53 53 56 76 86 81 90 95 93 92 79 78 79 74 69 58 52 44 36 29 32 31 24 25 24 24 21 18 17 16 15 14 14 19 21 18 14 19 25 40 57 65 76 62 47

GFSSGP_500_rhum_081.txt.gz
RH
2 2 2 4 7 3 3 6 10 22 29 72 99 94 97 90 69 65 54 47 43 40 39 36 31 31 33 30 33 31 30 30 28 21 10 5 5 5 5 5 4 6 7 8 8 8 6 4 3
2 2 2 3 4 3 6 13 32 30 31 70 93 90 95 96 85 63 58 54 51 44 44 42 38 33 34 33 35 35 33 31 27 22 12 7 4 4 4 5 6 7 8 8 8 7 5 4 2
3 3 3 3 3 3 10 20 39 45 38 54 92 100 95 95 91 79 59 58 54 52 49 45 39 41 38 36 37 38 36 33 27 21 15 10 6 6 5 6 8 8 9 9 9 7 5 3 3
4 3 4 4 4 10 21 26 48 52 70 61 97 80 96 95 94 93 74 58 60 58 54 47 43 42 39 39 41 40 39 36 29 20 17 14 9 8 8 8 9 9 10 10 9 8 6 5 4
5 4 4 3 5 15 44 42 62 77 81 69 92 85 82 96 97 94 89 72 62 58 54 52 48 48 43 42 44 44 42 39 33 22 18 15 12 10 10 11 10 10 10 11 11 11 9 8 6
6 7 5 4 5 15 35 53 55 88 92 91 77 94 79 96 95 96 97 88 70 59 58 55 55 53 50 48 47 48 44 42 36 27 20 17 14 12 11 12 12 12 11 11 12 13 12 11 9
9 9 7 9 11 17 36 50 66 74 80 97 86 92 63 89 93 95 90 93 80 67 60 61 65 58 56 53 52 51 47 42 37 29 23 18 14 12 12 12 13 13 13 13 13 13 13 13 12
12 12 9 9 14 11 22 64 51 86 66 97 99 69 46 78 83 94 94 98 95 83 66 65 69 68 61 59 57 56 54 45 33 28 21 15 13 11 12 12 14 14 16 16 16 15 16 16 15
16 14 12 10 12 14 18 58 64 88 88 83 98 64 66 71 94 89 96 97 96 98 78 73 70 79 74 66 60 58 58 54 42 25 18 12 9 8 10 11 13 15 18 18 18 18 19 18 18
23 18 15 14 14 21 23 52 74 96 96 89 95 73 99 83 83 95 95 96 96 96 98 91 82 87 83 75 68 65 60 55 44 34 19 12 9 8 8 11 14 15 18 20 19 20 21 21 21
32 25 30 19 20 18 23 44 76 92 97 98 69 91 100 83 79 96 97 96 100 96 94 95 96 95 92 85 80 68 60 51 43 31 19 14 10 10 10 10 13 14 17 20 21 21 22 23 24
35 31 35 32 35 34 20 27 70 83 84 99 84 74 94 91 83 90 92 92 97 91 97 96 96 96 94 93 84 71 59 42 36 27 22 17 14 13 14 12 12 16 18 20 22 23 24 25 26
34 29 32 32 35 35 30 23 47 77 76 98 98 99 87 71 79 97 94 98 94 97 97 97 96 98 96 93 89 78 65 52 45 36 31 28 23 21 18 17 15 16 19 22 24 24 25 27 28
56 48 38 31 29 38 32 27 29 59 77 96 100 77 91 78 82 95 90 89 96 94 97 96 97 97 96 96 95 94 83 65 53 50 42 39 35 28 21 18 17 18 21 24 26 26 27 29 31
60 56 52 45 38 38 43 32 23 42 77 100 96 100 90 74 93 84 92 98 95 96 94 96 97 96 95 93 92 95 93 79 85 62 47 44 37 30 24 19 17 17 19 23 26 28 29 30 32
90 83 78 69 50 40 44 29 24 32 80 92 99 99 96 95 74 79 98 99 87 93 90 97 94 96 94 92 93 98 96 96 94 67 63 52 42 36 30 24 20 18 17 20 24 27 29 31 31
50 46 48 50 55 44 40 32 28 32 69 98 95 99 92 93 93 89 77 70 65 88 92 83 87 96 96 97 97 96 95 96 95 84 69 57 53 45 40 34 29 24 22 20 19 20 22 24 28
87 97 93 69 44 39 43 36 38 30 88 78 94 98 99 97 97 77 83 67 77 75 93 97 96 96 96 95 96 95 96 92 96 90 86 88 75 60 53 41 34 31 29 29 26 24 21 20 18
88 86 78 43 45 36 39 53 49 35 75 85 78 78 97 94 93 96 97 97 92 94 92 89 96 95 96 94 97 97 98 96 95 96 98 88 96 79 55 43 33 28 26 24 25 23 20 19 17
70 84 100 100 53 59 45 81 63 90 99 98 96 94 95 85 100 97 96 97 96 96 95 96 96 97 96 97 96 97 96 96 95 96 100 97 95 92 91 70 64 48 42 52 59 51 48 42 36
92 100 100 100 78 46 93 100 97 100 95 97 91 97 98 81 92 96 96 96 97 97 96 96 95 96 96 97 96 96 97 97 96 95 97 94 94 95 96 96 96 96 94 94 95 82 65 50 57
69 100 100 100 88 99 100 95 98 98 97 95 94 85 97 94 95 97 97 97 95 96 97 98 96 95 95 96 96 96 96 97 96 96 95 95 96 97 97 96 97 90 95 97 96 98 97 96 94
61 88 100 100 100 100 99 85 89 98 98 89 96 85 97 98 99 96 97 96 98 95 93 88 90 92 95 95 94 96 97 96 96 97 98 96 96 98 97 97 97 97 95 96 97 96 100 95 95
96 100 100 100 99 98 96 96 98 91 85 81 92 82 94 98 95 96 97 96 95 96 86 74 76 81 93 93 96 95 96 96 97 97 96 97 97 97 96 97 97 97 95 97 97 96 97 97 97
97 100 100 100 86 82 97 95 89 96 100 77 86 92 99 99 94 96 97 97 95 88 85 86 78 70 67 76 88 93 90 94 94 96 96 96 97 96 97 96 97 97 96 96 97 97 97 97 97
66 73 100 82 89 99 100 96 100 99 100 95 99 99 88 87 95 92 97 99 96 86 76 74 74 76 75 68 48 50 41 56 72 75 82 95 93 96 95 97 98 97 94 96 97 97 97 96 97
100 92 86 100 99 89 86 96 99 93 95 92 82 98 98 94 98 98 93 86 86 77 79 86 78 71 69 54 41 34 34 33 51 50 44 44 50 76 93 98 96 95 97 96 96 95 83 56 61
100 100 99 96 91 92 97 93 81 70 67 89 90 89 87 87 90 91 91 95 88 85 78 76 79 88 76 55 42 43 40 35 34 36 43 37 32 54 57 77 94 95 93 89 59 46 45 44 44
77 99 72 72 74 79 89 100 94 95 77 71 83 97 98 100 100 96 94 91 91 77 71 80 80 86 74 60 48 43 41 40 38 43 45 36 33 31 34 41 48 40 50 45 40 30 21 24 34
57 49 56 38 41 41 48 58 54 71 95 89 82 95 95 91 81 78 85 88 84 82 82 76 76 82 61 49 44 36 30 30 29 29 28 25 23 24 22 19 18 15 14 12 9 10 11 11 12

GFSSGP_500_rhum_084.txt.gz
RH
8 8 10 10 8 7 4 2 2 3 3 6 15 28 70 94 96 95 68 56 44 38 35 35 36 31 30 27 26 27 29 28 27 27 21 9 5 5 5 5 4 4 5 6 6 7 7 5 4
10 9 10 10 10 6 3 2 2 3 4 6 14 39 58 78 96 96 90 65 50 39 38 38 36 35 32 30 29 28 31 31 30 27 22 11 6 5 5 5 4 5 6 6 7 8 6 4 4
11 9 10 10 10 6 3 2 3 5 5 8 21 36 75 56 99 94 96 84 60 46 41 40 39 36 34 34 32 30 32 33 32 28 23 14 7 5 5 5 6 6 6 7 8 8 7 5 4
9 10 10 11 8 3 2 3 2 6 6 11 27 34 55 47 96 96 96 94 73 54 45 43 42 41 38 36 35 34 34 35 34 29 24 17 11 8 7 6 7 8 8 8 8 8 8 7 6
10 10 10 11 6 3 3 3 4 9 11 15 38 37 54 46 84 96 96 95 84 66 52 48 45 46 42 37 37 39 38 37 37 31 24 19 15 12 9 9 8 9 9 8 8 9 10 10 9
10 10 11 11 4 3 3 4 6 12 20 23 41 50 46 63 68 96 94 97 91 79 64 53 50 52 49 42 40 40 41 41 39 35 28 21 17 14 12 11 10 10 11 10 10 10 11 11 11
12 10 12 7 4 4 4 6 6 10 28 29 47 52 54 65 58 81 96 82 97 92 78 63 57 60 53 47 46 44 43 43 41 39 34 26 18 16 14 12 12 12 12 12 11 12 12 12 12
11 12 11 5 4 6 6 8 10 17 32 43 46 54 70 79 58 56 88 99 98 96 96 79 67 63 62 54 50 49 47 45 43 41 37 30 21 16 13 12 12 13 13 13 13 13 13 14 14
10 14 7 5 8 9 10 9 15 21 36 55 57 61 62 60 70 56 67 96 96 96 96 95 78 72 71 62 57 53 50 48 46 43 38 32 23 15 13 12 12 13 13 13 13 14 14 15 17
10 8 7 10 12 12 11 10 16 16 35 50 71 66 57 54 62 74 73 96 95 96 95 96 96 84 80 72 64 58 55 54 52 48 39 28 23 16 13 10 11 12 13 14 14 15 15 16 18
11 8 14 14 16 15 13 12 12 19 28 49 78 83 61 57 58 82 74 86 94 97 97 96 97 95 93 80 70 68 63 60 58 54 46 34 21 15 12 9 8 10 12 13 15 16 16 17 18
11 15 22 22 21 18 16 16 13 19 22 60 81 100 62 66 62 82 80 79 94 95 96 96 97 96 96 90 80 73 70 66 62 54 46 36 26 15 11 9 9 10 13 15 15 17 18 20 21
26 35 36 34 28 27 22 17 16 16 27 70 72 87 71 70 87 98 75 89 94 95 96 95 96 96 95 97 96 85 76 67 62 53 46 32 24 16 12 12 12 12 12 14 17 18 20 22 23
36 54 50 50 40 33 32 27 22 15 29 76 71 78 80 61 100 96 97 68 89 90 97 96 96 97 97 95 96 95 85 76 71 55 44 38 25 18 15 13 14 16 16 16 17 19 21 23 24
38 50 62 65 53 43 41 33 28 21 24 63 78 96 96 62 92 93 71 79 97 96 95 91 94 96 96 96 94 96 94 86 73 53 47 40 29 22 19 26 28 22 20 19 18 20 22 23 25
79 82 70 59 66 60 50 32 31 29 26 42 74 72 95 98 96 96 92 96 96 94 95 92 97 97 97 96 97 96 88 88 71 53 45 41 34 31 35 41 28 26 22 20 18 19 19 21 24
74 56 60 62 63 58 57 36 39 32 26 30 59 75 97 99 96 85 96 97 96 96 78 90 96 96 97 96 99 99 94 90 94 83 62 54 45 39 89 64 35 29 25 22 19 16 15 16 20
85 79 68 48 54 72 61 40 37 37 30 26 42 62 92 99 96 81 90 96 94 86 84 90 96 96 95 95 96 94 95 95 94 93 85 78 61 90 94 48 40 35 31 24 24 22 20 18 17
82 80 100 100 78 60 66 41 38 41 40 38 41 54 95 89 82 87 87 83 75 76 66 91 95 97 93 95 96 94 94 98 95 96 94 97 95 95 89 78 52 47 47 38 34 30 28 27 26
90 100 91 96 86 59 65 48 38 51 39 44 40 66 97 99 99 92 97 92 100 84 93 92 95 95 95 97 95 97 96 96 98 96 95 95 91 90 96 94 85 76 65 60 38 30 26 24 23
100 100 100 89 100 90 60 44 49 50 58 30 46 73 96 96 99 97 96 97 97 99 92 97 99 93 95 95 96 96 92 95 96 96 96 96 91 94 98 95 97 97 93 71 70 88 67 54 62
100 100 100 87 68 76 65 58 54 72 39 34 66 71 83 75 82 95 98 96 97 98 97 96 97 96 97 97 96 96 97 96 97 96 99 98 96 97 96 97 97 97 96 96 96 97 98 96 97
100 100 100 73 84 69 76 88 100 95 43 66 85 83 98 99 100 90 96 94 96 96 97 96 96 97 97 97 97 96 96 97 96 97 97 96 96 95 97 97 96 97 96 96 97 97 96 96 96
96 91 97 100 100 100 99 100 97 89 90 99 87 97 97 97 100 89 81 96 96 96 94 97 98 97 98 96 97 96 96 96 97 97 97 97 95 97 97 96 97 97 96 97 96 97 96 97 96
99 95 92 98 98 98 100 99 99 93 93 96 92 91 98 92 85 93 98 97 92 96 92 95 96 93 94 93 96 95 96 96 96 98 96 96 97 97 97 96 97 97 97 96 96 96 97 97 97
100 100 97 98 97 100 91 85 90 100 81 70 63 63 69 81 94 98 81 92 98 98 94 94 96 92 94 92 90 93 95 95 88 92 95 96 96 95 96 96 96 97 97 94 96 95 95 96 96
100 100 100 100 93 92 97 88 88 98 100 63 56 60 75 82 96 89 98 97 96 93 98 97 92 84 80 82 77 88 88 90 79 62 85 73 81 85 93 95 97 97 96 96 96 96 96 95 95
100 100 100 96 100 100 90 87 73 90 83 72 75 76 68 87 92 95 97 97 97 99 98 90 85 75 71 74 77 74 70 59 44 42 53 63 55 50 53 50 56 56 79 91 94 96 95 96 64
91 92 96 82 76 80 85 81 83 71 71 75 63 62 85 89 89 99 98 97 97 95 90 81 76 70 75 73 73 80 77 61 42 43 41 39 37 36 36 43 36 36 45 42 46 44 47 39 44
70 43 55 48 44 56 57 53 63 74 70 67 74 83 73 73 89 95 98 91 91 86 83 81 76 68 64 70 76 73 68 66 51 44 43 42 43 46 42 41 33 30 33 31 27 18 14 13 11

GFSSGP_500_rhum_087.txt.gz
RH
15 10 8 8 10 11 12 11 10 9 6 3 3 3 10 31 62 77 30 68 69 47 38 32 30 32 36 28 25 24 25 21 22 22 24 23 12 6 5 5 5 4 4 5 5 6 6 6 5
21 14 11 12 13 12 12 10 10 9 8 3 3 2 2 5 25 90 35 66 86 64 51 37 31 33 40 34 29 28 26 25 23 24 25 25 15 6 5 5 5 4 5 5 6 6 6 6 5
27 27 18 16 16 14 10 9 10 10 7 3 2 2 3 5 5 22 63 91 98 79 66 47 37 33 37 39 36 33 30 29 27 26 27 26 20 9 5 4 5 5 5 6 6 6 6 6 6
28 29 28 21 21 18 11 8 9 10 5 3 3 3 4 3 4 12 60 84 98 92 80 60 45 37 37 39 39 38 34 32 30 30 29 26 23 14 6 6 5 6 7 7 7 6 7 7 7
37 32 27 23 21 13 9 9 9 10 4 2 2 3 20 3 5 13 47 74 93 95 88 74 54 44 40 41 40 40 38 36 33 33 31 28 23 16 9 8 8 7 8 8 8 7 7 8 9
41 38 27 22 16 12 9 9 9 6 4 3 3 4 18 81 19 11 33 63 96 81 87 83 66 54 46 43 43 42 42 40 38 37 34 32 25 19 13 10 9 9 9 10 9 9 9 8 8
49 40 33 23 17 14 12 9 11 5 4 3 5 10 24 7 16 16 17 64 91 96 80 80 76 60 57 49 46 45 42 44 42 39 37 36 32 21 15 13 10 11 10 11 11 10 10 10 9
50 40 34 27 20 14 11 10 11 7 4 4 4 8 11 42 6 16 28 45 98 91 96 90 82 78 62 61 55 52 45 46 45 42 40 37 34 25 18 15 13 11 12 12 11 11 11 11 11
59 46 40 28 19 15 11 10 9 6 4 4 4 7 13 15 24 19 27 34 85 95 97 91 90 83 80 69 71 60 53 47 47 45 42 40 36 31 23 17 14 13 12 13 12 12 11 11 11
51 52 45 28 19 14 12 11 8 6 5 4 7 5 12 17 81 54 23 26 67 91 98 96 98 97 84 74 72 72 58 53 49 48 45 42 39 33 27 19 15 13 13 12 12 12 11 11 11
31 40 31 24 16 13 11 9 9 7 6 6 9 13 25 38 21 93 42 33 66 84 93 91 96 97 96 87 79 78 69 57 54 51 47 43 40 33 26 20 13 12 11 11 12 11 11 12 13
39 25 22 16 13 12 10 10 10 8 7 7 14 12 19 55 24 42 49 59 79 80 80 94 97 92 96 94 90 84 80 68 61 60 54 45 36 29 24 18 14 12 11 10 10 11 11 13 16
16 13 11 11 10 8 8 11 13 10 10 10 14 22 28 48 33 41 51 85 56 65 88 94 95 96 96 96 97 93 86 84 69 66 61 55 45 34 27 19 13 12 10 10 10 12 15 15 16
12 11 11 11 9 10 13 16 21 12 15 13 13 21 28 44 42 38 67 100 71 62 63 78 95 96 96 94 96 94 95 91 82 70 64 55 47 42 32 24 17 13 11 11 11 12 15 17 19
8 8 10 8 11 30 44 28 24 20 20 16 14 16 36 43 49 51 61 95 98 81 60 60 95 96 96 96 96 95 92 92 93 80 64 56 48 40 33 25 23 15 13 13 14 42 15 18 18
8 8 11 15 31 41 71 30 37 31 29 20 16 19 33 45 68 100 69 94 88 96 93 66 96 95 95 96 96 96 93 90 95 94 82 61 49 41 34 30 25 19 14 16 69 39 20 20 19
28 25 33 40 65 60 71 66 50 40 34 30 20 20 35 54 73 96 93 84 91 92 89 89 91 91 94 94 96 96 94 90 91 94 95 90 57 46 34 29 24 20 18 59 77 21 21 20 19
56 56 57 44 59 89 81 69 64 55 45 37 28 20 37 66 73 86 91 74 97 90 96 90 94 83 96 94 95 95 97 94 95 95 94 94 69 50 43 35 50 22 23 83 46 24 23 21 19
61 55 54 57 84 83 74 52 68 64 56 39 35 23 31 63 83 89 98 69 86 98 97 92 86 81 80 93 93 96 96 96 96 95 93 91 77 88 89 87 83 30 44 95 42 27 26 27 22
96 98 99 82 66 86 92 54 66 59 49 57 33 26 36 61 90 74 99 79 87 94 97 93 68 79 89 94 95 96 95 97 95 87 72 85 95 95 95 96 79 42 76 94 59 72 41 66 48
100 100 100 88 87 97 89 81 64 53 44 65 54 53 46 56 59 94 94 91 62 86 76 70 68 80 89 95 96 98 96 96 97 95 94 94 99 96 96 94 96 86 96 93 89 86 88 84 80
100 64 60 67 100 96 85 88 55 45 45 76 67 47 53 48 77 98 93 74 95 97 93 95 89 95 97 96 96 97 96 96 98 96 97 95 96 96 95 95 97 97 94 99 99 98 100 97 96
98 86 96 97 100 100 100 74 59 46 51 77 50 33 42 40 82 64 97 98 96 97 98 97 97 98 97 97 97 97 96 96 97 96 96 87 95 96 95 92 96 97 95 96 94 97 97 97 95
100 100 100 100 100 100 98 97 86 73 82 52 46 31 45 73 99 95 96 95 97 98 97 97 97 95 97 97 97 96 96 96 97 96 96 96 97 97 96 96 96 96 96 97 96 96 96 97 96
100 100 99 100 100 82 90 100 79 98 91 60 41 34 60 94 88 93 98 99 95 93 96 96 96 96 96 97 97 96 97 97 96 97 98 97 92 97 97 88 97 96 96 97 97 95 97 96 96
84 80 100 100 99 99 100 100 99 85 84 71 91 68 95 95 96 95 98 98 86 88 94 93 94 95 96 97 96 97 96 97 96 96 96 94 95 97 96 94 99 98 97 96 96 97 96 96 96
97 100 100 99 100 100 100 100 100 100 91 88 92 87 96 96 98 98 99 99 94 98 98 95 96 96 95 96 94 98 97 96 96 95 95 89 91 93 94 96 97 97 97 98 96 96 96 95 95
100 100 100 97 100 100 100 99 98 100 86 87 79 94 78 90 93 97 96 99 95 96 98 94 87 94 95 94 98 93 92 90 92 91 90 86 81 88 92 94 96 95 95 97 96 94 93 94 95
99 90 87 93 96 100 100 91 95 100 96 100 79 59 74 92 93 95 97 96 96 91 95 90 91 88 89 89 88 80 78 78 78 74 70 57 52 51 68 79 87 76 80 88 80 59 68 69 51
74 62 74 62 69 79 82 78 76 84 83 88 85 100 100 98 96 99 98 96 95 98 97 95 95 89 78 80 73 68 68 61 61 70 67 64 45 43 42 45 58 46 40 46 47 47 52 44 40

GFSSGP_500_rhum_090.txt.gz
RH
19 20 21 18 15 14 14 13 9 9 10 10 10 9 6 4 10 10 14 24 9 20 63 56 39 27 27 24 29 29 26 25 25 21 19 18 22 19 8 6 6 5 5 5 4 4 5 5 5
18 19 18 17 15 14 14 12 12 11 10 11 11 11 7 5 5 4 5 46 54 31 63 73 51 36 30 28 29 32 28 27 25 22 20 19 20 22 9 6 5 5 5 5 5 5 5 6 5
19 18 19 17 12 12 14 15 14 13 12 13 11 8 7 5 4 5 12 14 47 55 42 84 65 48 35 33 29 35 30 30 28 25 22 21 21 23 15 6 5 5 5 5 5 6 6 6 6
21 21 18 15 15 19 20 20 17 17 17 19 12 9 9 12 6 10 44 7 11 69 52 92 80 57 43 39 34 36 35 34 31 28 24 22 22 24 21 8 5 5 6 6 6 7 6 6 6
24 18 19 17 19 22 23 25 21 20 15 14 10 8 10 12 6 7 13 40 11 87 44 93 93 68 52 40 40 37 38 38 37 34 29 25 24 25 23 12 6 6 6 7 8 8 7 7 7
35 31 22 20 26 32 30 25 17 18 14 10 9 11 10 18 15 6 10 26 9 13 26 87 96 81 61 48 44 40 41 42 42 39 33 28 25 27 25 17 8 8 7 8 9 9 8 8 8
61 48 35 34 34 32 33 28 20 11 11 10 10 10 12 16 14 6 4 44 37 12 11 77 94 92 80 60 51 49 43 42 43 42 38 31 27 30 26 22 13 10 9 9 10 10 10 9 10
71 72 54 45 43 39 36 32 24 14 11 10 10 13 13 16 16 8 4 28 32 27 14 52 91 83 88 68 60 56 51 45 45 44 39 33 30 31 33 24 16 14 11 11 10 11 11 10 10
75 68 64 68 59 45 36 29 24 18 17 12 10 13 12 15 24 24 24 50 37 12 18 56 90 86 89 80 66 62 58 53 48 47 42 35 34 32 36 30 21 15 14 12 12 13 12 11 10
68 67 63 63 61 54 40 27 26 23 19 16 11 14 12 13 16 17 37 82 73 9 8 59 96 96 92 96 95 64 63 59 58 53 47 38 35 36 37 34 28 19 16 14 13 13 13 12 11
64 63 60 56 53 45 47 41 34 29 26 21 16 12 8 8 10 6 5 26 96 70 8 51 94 93 97 91 89 94 66 63 65 59 51 44 36 36 40 37 30 23 18 15 13 13 13 12 11
52 62 64 56 47 45 46 47 40 37 24 18 14 19 12 8 10 8 12 19 86 75 13 21 74 95 96 96 97 90 86 71 70 66 58 47 43 43 41 38 32 24 20 15 14 13 12 12 11
33 39 52 46 48 41 37 39 34 34 23 18 12 11 13 10 6 5 79 91 80 49 27 53 50 87 93 96 96 96 97 87 82 80 65 53 49 47 42 38 32 25 22 15 13 12 11 10 11
19 20 25 27 30 23 20 25 35 24 16 13 13 11 9 7 5 4 30 84 83 79 38 16 43 72 95 95 96 96 96 95 92 91 75 61 56 49 43 37 35 30 23 16 13 12 11 11 13
11 11 11 11 12 14 15 19 33 22 22 15 14 12 10 8 6 5 10 79 94 50 92 47 22 57 94 96 92 96 96 97 96 95 93 73 63 59 55 50 45 38 26 24 15 14 12 11 12
12 10 8 9 9 8 14 14 15 14 16 17 18 15 13 10 9 7 17 17 68 40 64 75 54 38 90 94 91 96 96 96 97 96 95 88 72 64 61 57 47 43 30 25 19 16 13 12 37
36 23 13 19 13 10 15 10 14 20 35 28 21 19 17 14 12 11 18 13 44 38 82 97 95 45 49 95 95 98 96 94 96 97 97 90 85 76 66 59 50 41 34 25 24 17 15 14 63
58 48 66 51 50 44 42 20 15 20 25 46 38 27 23 18 15 12 10 17 50 36 82 98 100 92 75 88 90 91 94 90 96 94 95 95 95 86 71 62 53 44 34 30 21 19 19 26 74
51 66 87 95 71 68 51 56 71 72 47 49 53 34 33 24 18 13 12 47 44 57 57 89 96 95 90 100 80 95 99 87 88 97 95 95 96 96 96 76 68 46 36 25 25 62 53 39 91
69 81 92 95 98 78 66 50 79 68 78 71 75 43 42 35 26 18 26 47 88 73 60 94 96 95 95 96 90 92 85 86 98 87 96 95 98 97 95 95 89 72 40 49 92 96 70 46 93
57 50 44 42 78 66 88 73 80 54 66 74 72 74 49 37 19 22 38 55 87 54 72 96 97 98 97 97 97 95 87 96 96 96 95 98 95 96 95 95 95 94 97 96 77 92 59 57 88
83 69 62 69 71 85 85 98 85 57 58 68 61 50 42 30 21 24 51 70 82 94 85 94 95 97 94 96 96 100 88 92 98 96 97 97 96 96 95 93 92 95 96 96 94 94 93 93 96
95 94 84 97 99 99 98 59 50 95 95 60 80 62 35 50 54 50 60 58 90 90 95 92 99 98 98 94 96 96 95 97 96 97 95 96 96 96 93 85 86 97 100 97 99 95 94 96 96
100 90 94 100 99 100 100 97 51 50 53 73 75 56 53 43 49 58 62 75 95 87 89 77 84 92 97 94 96 97 97 96 97 97 96 97 94 95 96 96 94 95 95 96 96 96 95 97 96
100 100 100 100 100 100 95 100 94 60 67 83 91 46 30 29 48 55 72 96 96 96 98 90 92 97 95 96 97 97 97 97 96 97 96 95 96 95 97 96 96 87 86 96 96 97 96 96 97
97 97 98 100 99 100 100 100 97 74 78 69 45 33 31 51 58 88 91 89 97 94 85 95 97 96 97 97 97 95 97 97 97 97 97 97 97 97 97 96 95 98 95 84 63 84 97 97 97
100 98 100 100 99 100 100 100 99 100 78 79 96 42 45 84 95 100 99 98 93 87 91 97 90 91 94 97 96 97 97 97 96 96 96 97 94 93 96 97 97 77 93 88 60 85 92 96 97
100 99 99 95 100 98 100 100 99 98 100 100 91 76 92 96 98 96 98 99 98 97 98 93 96 96 96 96 96 96 95 97 97 97 96 96 97 98 93 96 96 97 97 98 100 97 97 97 97
100 93 88 97 91 99 99 100 99 100 100 84 100 93 75 83 93 97 98 97 96 98 98 100 96 94 93 95 92 93 93 94 97 94 91 91 92 95 95 94 96 96 96 94 96 97 96 96 96
93 81 84 89 94 91 100 100 99 100 98 100 100 78 67 80 94 94 100 99 98 96 96 97 96 93 92 89 91 87 86 85 83 75 80 83 81 74 68 59 79 88 78 71 72 76 77 84 87

GFSSGP_500_rhum_093.txt.gz
RH
17 16 13 13 14 12 12 13 13 10 10 9 10 10 11 11 11 10 8 5 4 5 9 51 48 39 30 27 25 22 23 24 26 27 24 20 18 17 19 14 8 7 5 5 5 5 5 4 5
19 17 16 13 12 9 12 16 16 13 10 11 11 12 12 12 12 12 11 6 6 5 26 59 46 52 46 34 27 26 23 28 26 29 27 22 20 17 19 17 7 6 5 5 6 6 5 6 6
21 19 16 15 11 10 12 21 22 18 15 14 13 14 13 14 13 13 13 12 9 7 27 44 48 40 56 45 34 28 26 27 28 31 31 27 22 19 19 21 10 5 5 5 6 6 6 6 6
26 20 20 14 13 15 16 24 25 24 21 17 15 15 14 18 16 15 15 19 26 12 6 16 46 43 64 58 41 35 31 32 32 29 36 32 26 21 20 22 17 6 5 5 6 6 7 7 7
49 39 27 18 16 18 19 22 26 22 23 20 18 16 15 16 18 16 14 15 15 25 19 5 34 70 59 70 53 44 39 36 38 32 35 36 30 23 23 23 22 10 5 5 7 7 8 8 8
22 45 44 34 26 24 24 28 35 27 26 25 23 21 14 17 17 16 16 16 17 12 21 25 8 53 56 82 67 52 45 46 43 40 34 37 34 26 24 24 24 16 6 6 6 8 9 10 9
5 8 29 45 45 36 34 41 33 34 30 25 23 21 18 19 19 20 31 29 19 21 22 35 22 33 67 66 78 64 50 50 53 49 42 38 34 29 27 27 25 21 11 8 8 8 10 10 10
6 5 5 31 46 50 51 46 44 42 33 29 24 19 18 27 44 55 22 38 56 37 36 51 52 37 60 77 95 78 66 50 55 57 49 40 35 34 30 29 28 23 16 11 10 10 10 11 11
8 7 6 11 48 60 66 53 46 42 38 33 26 22 19 17 17 18 19 43 52 58 64 62 65 44 36 52 96 92 83 60 55 61 58 46 41 37 35 32 31 25 20 15 12 11 11 12 12
10 8 8 17 40 64 62 66 56 45 41 34 23 24 24 20 18 20 31 29 28 60 68 70 89 83 40 40 83 96 96 77 63 61 63 54 47 41 34 35 35 34 24 18 15 13 12 13 13
12 9 11 10 25 50 65 63 62 56 50 37 27 21 22 20 20 20 19 16 17 32 27 57 85 99 44 45 97 94 98 92 70 62 60 60 55 46 40 38 36 37 30 24 18 15 14 13 13
11 20 20 30 34 45 55 64 59 57 54 48 39 22 20 24 23 23 24 20 12 11 18 5 58 66 45 42 96 97 98 92 85 71 62 60 60 55 50 42 43 38 33 27 22 17 14 13 14
38 36 35 29 35 38 49 62 61 56 55 41 33 30 19 20 20 26 28 28 17 9 9 35 88 79 38 34 89 96 93 98 96 83 75 68 66 68 58 49 48 42 36 28 23 20 15 13 13
22 28 26 27 22 30 35 55 60 55 48 46 30 35 38 26 21 23 23 12 13 15 41 86 85 76 40 22 85 97 96 99 95 96 86 76 70 66 100 63 48 42 37 30 23 22 17 13 13
26 26 22 13 16 15 20 34 50 49 46 47 35 34 34 30 20 22 25 12 12 99 72 83 77 65 52 40 28 73 96 96 96 91 96 88 86 78 64 58 49 42 35 28 24 22 18 14 13
30 21 10 17 10 10 13 18 24 31 40 42 36 31 31 29 22 15 18 18 59 97 66 63 39 46 32 32 32 63 95 96 96 97 96 92 90 87 73 64 53 42 35 30 29 24 18 15 13
20 21 23 37 23 18 13 12 15 20 22 28 24 30 28 24 16 14 11 11 29 53 41 92 67 63 49 60 36 52 91 96 96 97 96 96 95 91 84 72 60 52 47 44 36 32 23 19 15
40 47 48 56 82 58 32 12 14 14 14 16 18 18 20 23 20 14 12 11 7 21 22 73 90 87 64 77 85 35 48 95 97 96 95 96 96 90 94 85 72 64 61 57 48 37 29 21 17
38 47 58 59 68 44 67 40 38 38 22 11 13 16 18 18 17 17 13 10 8 49 30 59 57 41 68 87 98 79 48 98 93 93 95 96 96 95 92 92 85 74 66 57 49 48 44 30 21
43 39 38 37 46 45 58 58 66 53 63 32 18 13 16 29 21 15 16 16 11 28 20 55 56 37 100 91 100 96 86 80 95 96 95 88 94 96 98 93 94 88 80 76 86 67 60 36 24
72 68 77 69 62 70 60 76 61 60 51 56 47 40 24 38 34 35 45 24 20 21 47 58 43 52 91 89 100 98 98 89 88 92 94 97 94 97 97 96 95 96 88 91 93 68 66 58 78
76 91 87 94 98 88 50 40 48 72 67 52 84 62 55 69 74 33 26 18 28 38 60 76 78 67 90 94 99 98 100 99 86 89 86 95 98 97 96 96 98 97 96 96 95 93 98 94 97
90 100 94 100 100 100 79 51 74 63 61 59 98 100 99 100 80 47 47 39 20 40 80 78 86 77 95 97 96 94 92 97 98 91 94 97 98 96 97 97 97 100 98 94 99 96 96 97 97
78 76 99 100 99 100 100 83 46 44 56 56 63 92 92 91 54 47 34 16 22 41 53 66 72 89 96 100 98 95 95 97 97 92 96 97 97 96 98 96 96 95 97 97 97 95 96 96 95
85 86 98 98 100 96 100 98 84 52 63 96 91 59 42 32 41 42 39 36 60 46 62 76 80 91 96 96 95 97 97 96 96 97 97 97 96 97 98 92 94 96 96 95 96 94 97 95 91
96 100 100 100 100 100 100 100 90 83 89 91 71 57 44 36 38 49 59 61 60 54 70 74 75 93 92 92 95 96 96 96 98 96 96 95 97 96 98 89 88 96 95 94 93 89 96 96 95
97 100 100 99 100 100 100 100 94 99 90 78 39 35 36 49 69 89 95 61 51 59 88 91 97 87 94 100 88 94 97 94 92 95 96 96 97 97 89 95 96 97 98 96 92 95 92 88 85
100 100 95 94 97 100 100 98 98 100 100 100 72 73 90 96 100 99 99 95 93 97 100 94 86 78 97 97 98 97 97 97 97 98 99 97 97 95 96 96 97 96 97 98 98 97 97 89 98
100 97 92 100 98 91 100 100 99 100 100 100 100 99 99 98 99 98 98 98 98 98 98 97 98 96 97 96 96 97 98 97 96 98 95 94 94 96 97 97 98 98 97 98 98 99 98 98 97
68 68 82 90 98 100 99 100 99 99 100 99 99 100 100 98 97 98 97 97 98 98 98 98 98 97 90 86 92 95 96 95 94 94 93 93 93 91 90 94 97 97 96 97 99 96 97 93 97

GFSSGP_500_rhum_096.txt.gz
RH
24 16 12 12 11 8 9 11 16 16 12 8 8 10 11 11 11 11 11 11 8 5 4 4 14 33 30 36 24 20 22 20 22 23 26 29 24 20 20 21 14 9 7 5 5 5 5 5 5
30 30 26 14 12 9 12 20 21 21 16 13 11 12 13 13 13 13 12 12 12 8 4 3 6 24 34 36 35 27 24 24 24 26 25 29 28 23 21 21 18 8 6 6 5 5 6 6 6
28 27 25 26 20 10 16 22 29 25 21 17 15 14 13 14 14 14 13 14 13 13 8 6 9 11 25 38 46 32 30 28 26 29 28 25 30 26 23 22 22 15 6 5 5 5 6 6 6
36 44 34 24 23 21 18 26 25 19 22 21 18 16 15 14 15 16 17 16 17 15 16 10 8 8 30 31 51 48 33 34 30 30 33 30 27 31 26 23 24 20 8 5 5 6 6 7 7
3 7 31 40 34 26 21 24 29 25 25 30 20 16 14 14 14 15 18 19 19 16 15 17 14 6 6 23 35 43 45 36 37 34 36 35 32 29 30 26 24 24 16 6 5 6 6 8 8
8 7 4 9 33 43 36 30 26 24 29 30 24 20 17 17 18 16 21 22 43 26 15 16 16 16 22 15 30 43 43 45 38 41 41 40 35 30 29 30 27 24 22 12 5 6 7 8 9
8 10 10 6 4 8 42 48 34 25 28 37 27 18 19 22 35 53 36 35 39 40 32 18 22 16 11 16 14 49 55 54 41 41 45 47 44 34 26 34 30 27 24 19 7 6 7 8 10
10 9 10 11 10 6 9 34 48 36 30 38 29 26 20 17 28 57 56 67 58 59 64 68 60 39 38 27 22 24 61 72 51 42 45 50 51 43 29 35 36 31 27 22 13 8 9 9 10
13 10 11 11 10 9 8 6 27 52 52 45 35 27 25 21 21 36 31 45 46 67 34 61 70 64 46 44 43 28 40 61 69 51 47 50 49 49 44 41 38 34 31 25 18 11 10 10 10
15 14 15 13 12 10 9 7 7 20 56 60 46 30 26 24 26 27 36 28 37 35 21 43 74 73 72 70 75 56 41 68 68 66 61 59 50 51 54 49 42 39 34 30 21 14 12 12 12
17 18 17 14 14 12 11 10 6 9 32 68 63 47 35 32 29 30 37 30 20 24 35 45 54 90 82 79 76 72 51 59 81 82 74 69 57 52 56 56 50 44 38 37 29 18 14 14 14
19 19 18 18 15 13 12 11 11 9 17 60 72 65 50 40 35 35 27 41 32 23 34 28 31 60 49 11 25 45 42 48 67 92 86 70 64 58 54 59 57 48 42 39 36 27 20 14 14
21 21 20 17 14 11 10 12 17 16 16 52 66 66 59 52 42 38 30 19 22 21 20 19 22 26 70 63 43 68 53 32 57 69 92 89 70 66 68 64 60 55 47 41 38 30 24 19 16
24 21 17 14 13 12 12 16 22 18 26 25 60 64 52 50 44 38 30 22 16 15 18 15 20 21 57 69 58 59 44 43 88 76 97 96 89 80 99 98 71 68 57 49 49 31 24 19 19
22 17 17 16 16 13 15 17 17 16 21 26 41 61 56 46 36 36 29 23 17 16 13 12 13 14 28 44 28 36 53 31 80 97 97 96 89 93 84 95 97 72 60 60 63 37 27 21 18
19 17 13 18 21 17 15 12 15 14 16 21 30 49 57 51 42 41 32 29 28 23 18 28 16 14 44 45 50 53 64 47 42 95 90 96 96 92 92 91 97 99 99 83 70 38 33 24 19
17 15 15 16 29 19 18 12 30 26 15 15 24 35 49 51 47 38 34 38 36 32 18 48 26 52 95 83 80 49 39 31 39 58 95 97 96 98 96 81 71 84 93 86 50 44 38 31 23
17 18 23 29 39 41 35 19 40 49 27 15 16 23 34 49 50 46 33 46 38 32 20 14 56 97 82 81 53 55 45 56 38 33 52 96 95 96 97 96 92 78 80 71 64 51 38 28 25
26 38 42 46 45 56 68 51 61 62 39 17 14 18 25 33 44 45 38 39 38 28 15 10 63 100 53 62 69 65 58 58 47 50 73 95 96 96 86 95 97 98 90 85 66 62 51 42 34
35 56 70 82 74 82 72 38 32 51 42 33 19 15 17 23 25 34 38 37 34 24 15 11 99 96 68 52 100 82 62 79 65 63 80 92 96 94 93 85 97 96 95 95 94 91 73 70 75
34 46 66 67 83 100 89 56 59 58 59 50 35 28 14 15 19 23 24 28 27 41 42 26 71 96 72 77 90 74 60 72 88 100 84 77 95 93 98 96 91 96 96 95 96 86 86 64 45
49 59 62 74 72 86 98 43 40 49 76 62 60 34 19 14 13 17 49 27 23 24 35 25 67 73 74 84 87 70 84 87 96 97 99 88 95 94 99 94 94 98 96 96 97 94 94 77 76
39 42 54 92 99 92 100 49 42 47 43 74 90 65 48 25 95 53 65 59 34 29 32 28 38 62 47 80 62 56 68 96 81 92 97 97 98 91 99 96 96 94 97 96 98 98 97 95 93
50 66 90 100 96 98 100 82 64 67 86 99 98 100 98 100 100 100 95 75 62 39 43 36 40 72 80 77 53 70 91 96 96 91 95 98 96 93 94 94 97 96 97 96 98 98 98 98 94
70 78 81 76 90 96 100 94 82 97 96 98 100 100 96 100 97 87 47 43 40 32 24 49 63 78 78 79 81 92 91 96 96 96 97 97 97 97 96 96 97 97 97 97 96 96 96 96 95
84 100 100 98 100 84 85 94 73 100 96 92 41 77 71 74 54 37 32 26 17 17 23 41 67 67 83 74 80 92 97 96 96 96 97 97 96 98 97 97 97 93 96 97 97 97 97 97 95
91 98 97 94 99 96 95 96 96 64 84 80 58 62 80 51 40 48 43 33 30 42 59 40 57 62 68 66 60 95 97 93 93 95 97 99 96 97 96 97 96 96 96 97 96 96 97 96 96
99 100 98 97 100 100 100 98 98 99 98 89 87 80 73 92 97 93 100 89 90 90 86 83 67 88 98 80 87 96 95 95 97 97 96 96 96 97 97 98 97 97 96 95 96 96 97 97 98
98 97 92 99 98 99 100 98 100 99 99 100 99 100 100 100 99 100 100 99 98 97 99 93 99 98 99 98 88 98 99 97 98 98 97 97 98 98 96 94 97 97 96 98 96 97 97 96 98
66 79 86 95 96 100 99 98 99 96 98 100 99 99 99 99 99 98 98 98 98 98 99 98 98 98 98 95 95 96 97 97 97 97 97 96 97 93 94 96 97 97 98 98 98 98 96 97 96

GFSSGP_500_rhum_099.txt.gz
RH
13 12 12 12 13 11 13 13 15 18 16 14 12 11 11 10 10 10 10 10 10 8 6 5 4 3 8 18 16 20 18 18 14 15 17 22 22 24 23 20 21 16 9 9 7 5 5 5 5
23 19 18 19 15 14 16 18 17 13 14 17 15 14 14 13 12 11 11 12 11 10 8 7 5 4 3 4 18 19 20 20 20 16 16 19 21 23 25 22 20 20 13 7 6 5 5 6 6
31 29 25 22 18 24 27 26 18 14 13 15 16 14 14 13 13 13 12 12 12 13 11 10 8 6 5 4 12 24 21 21 22 23 20 21 22 21 25 27 22 20 19 10 6 5 5 6 6
4 7 16 25 32 31 28 27 26 20 13 12 11 16 14 14 14 13 12 14 13 14 14 13 11 9 6 6 9 19 30 26 24 24 25 23 26 25 23 28 27 22 20 18 8 5 5 6 7
6 6 5 4 6 18 42 39 28 26 20 13 10 12 14 16 15 14 14 14 15 16 17 17 16 13 11 7 6 15 26 29 31 27 25 28 27 28 26 26 28 24 22 22 16 6 5 6 7
7 7 7 7 8 6 5 22 43 34 25 20 14 12 12 15 16 18 25 24 18 18 20 22 18 16 14 18 6 5 15 34 41 43 31 28 32 32 32 28 27 29 26 24 21 12 5 6 7
7 6 5 5 6 8 8 6 5 34 42 27 20 16 14 12 15 20 19 39 54 49 56 38 25 19 16 15 18 14 15 16 30 47 47 34 28 34 39 31 31 34 30 27 24 18 8 6 7
8 6 6 6 6 7 8 9 7 4 13 46 34 22 19 16 16 21 22 25 66 69 63 65 63 59 48 27 18 12 14 14 14 34 52 47 32 30 39 38 35 39 35 31 28 23 15 7 8
13 8 9 8 7 8 8 6 5 7 7 10 42 40 28 22 19 24 23 22 42 85 83 83 65 74 83 61 40 32 19 16 16 22 39 59 44 33 34 43 40 43 41 35 31 27 21 10 9
13 14 13 9 9 8 10 6 4 4 5 8 6 34 50 35 27 27 27 26 26 42 60 79 68 70 70 73 71 51 38 31 26 23 31 50 60 42 40 40 43 44 46 41 33 31 23 16 11
14 15 14 14 12 9 10 9 6 5 5 6 8 6 23 56 45 36 36 31 25 31 36 39 57 81 65 38 65 72 70 59 45 36 31 40 62 62 42 50 48 46 48 46 40 34 29 20 13
15 18 17 16 13 10 10 10 10 8 6 6 5 6 6 23 57 53 44 40 32 26 53 49 48 42 64 71 73 67 63 57 54 50 46 48 65 62 63 53 68 53 47 49 47 39 35 26 17
20 23 20 17 15 12 11 12 9 8 8 8 8 6 8 9 32 61 56 44 38 32 34 48 39 32 41 77 82 54 70 37 31 62 58 57 77 83 80 61 68 66 56 49 51 45 42 38 22
27 25 23 21 20 17 15 12 9 9 9 7 7 9 13 11 18 46 64 58 44 37 30 36 33 44 82 61 45 72 71 25 29 55 44 41 70 94 95 78 67 74 67 62 52 50 46 42 29
29 25 24 23 20 18 16 13 10 9 9 9 10 14 20 21 24 29 64 68 56 41 29 57 42 37 68 54 58 58 75 52 21 40 57 34 41 75 83 93 81 83 86 68 58 52 50 45 39
26 25 23 19 16 14 12 9 10 14 12 10 12 13 17 19 26 38 53 63 63 48 33 33 42 33 55 95 91 66 57 36 30 45 66 47 35 39 63 96 97 94 97 96 75 66 62 56 54
24 22 18 15 14 12 23 21 33 54 38 11 10 13 15 17 20 30 52 64 65 58 32 21 67 46 52 65 77 72 44 18 33 61 74 57 50 88 55 96 97 90 85 96 96 89 76 66 68
20 18 16 19 21 18 35 40 69 74 34 33 19 12 14 15 17 26 42 58 63 62 54 24 20 28 18 17 17 17 15 87 72 63 60 50 42 46 89 94 96 98 87 85 84 90 99 92 85
20 15 16 50 34 24 39 37 70 68 37 35 30 29 15 15 16 20 30 52 52 57 58 41 18 15 14 14 21 16 79 67 90 78 67 39 30 30 66 100 94 82 97 93 95 92 96 96 95
15 18 33 36 32 50 65 59 84 49 43 40 44 52 35 18 17 16 23 41 57 46 40 32 28 25 19 41 26 29 89 97 74 56 73 49 32 32 48 80 90 78 97 96 100 92 98 84 82
23 24 25 23 31 48 76 68 61 47 32 46 57 62 61 33 18 16 18 28 48 53 54 37 32 26 21 26 24 88 99 99 77 95 74 58 31 32 76 72 93 95 95 97 97 97 92 97 94
29 24 24 30 47 64 80 72 66 75 67 66 64 52 56 37 19 15 19 23 35 45 59 33 23 20 20 13 13 82 100 93 87 81 72 59 80 91 86 100 90 95 95 97 97 98 97 95 90
26 23 31 59 77 79 90 99 75 84 100 100 72 64 40 42 43 70 48 25 50 75 89 83 43 39 29 17 17 73 90 72 83 84 88 82 99 79 100 96 95 96 94 96 95 96 95 93 93
20 32 47 72 82 79 96 95 73 83 100 100 100 81 99 100 100 100 94 70 72 60 55 42 47 42 48 34 37 93 75 63 77 80 87 90 80 97 97 98 94 97 94 91 88 96 91 98 98
36 46 69 61 63 90 94 87 76 87 100 100 100 100 100 100 100 100 100 92 69 69 66 52 33 24 30 31 46 51 67 72 76 69 75 99 94 88 97 96 96 97 95 97 97 96 100 96 92
54 71 82 66 68 100 100 98 85 77 72 97 100 100 96 100 100 100 100 100 86 75 65 53 34 30 27 29 44 63 63 85 66 62 84 97 99 99 96 97 98 98 95 97 96 96 97 97 97
74 87 84 82 92 99 100 99 100 97 83 74 69 87 90 84 66 43 50 36 34 35 37 36 32 33 46 41 45 61 74 82 93 92 97 97 98 96 88 97 96 96 96 96 98 96 97 96 97
86 89 98 90 92 93 100 97 99 99 98 97 94 99 95 92 78 54 42 26 20 27 28 27 34 37 49 62 70 74 76 85 96 98 97 92 95 95 92 96 97 95 96 96 97 97 97 97 96
79 84 92 97 100 99 91 98 100 100 100 99 99 99 99 100 100 99 99 89 64 74 78 70 55 56 84 76 80 78 71 79 94 96 95 96 97 96 96 96 97 97 97 96 96 96 96 95 96
51 54 74 81 91 100 98 99 99 99 95 100 99 100 100 99 100 98 98 98 99 98 98 97 91 95 90 99 99 99 95 92 96 98 98 100 99 98 94 95 96 96 96 97 96 96 97 97 97

GFSSGP_500_rhum_102.txt.gz
RH
16 16 17 16 15 13 12 13 12 11 11 13 13 12 11 10 10 9 9 10 10 10 9 7 6 4 4 3 8 17 14 14 15 14 14 15 18 20 19 20 19 19 19 11 12 9 5 6 6
17 16 15 14 14 15 16 14 11 10 10 11 12 13 13 13 12 12 12 12 11 11 11 10 8 6 5 4 3 4 15 17 14 16 14 14 17 21 21 20 21 19 18 18 8 7 6 5 6
27 26 22 19 19 26 26 24 21 15 12 11 10 11 12 14 14 13 12 12 13 12 12 12 11 9 7 8 6 3 4 16 20 16 17 15 16 21 23 22 20 18 18 19 16 7 6 5 6
5 9 15 22 27 33 33 25 21 22 23 19 14 11 11 10 12 13 13 12 12 12 13 13 13 12 11 9 8 6 4 4 20 23 18 17 20 19 26 25 22 20 20 19 19 15 7 5 6
6 5 5 5 5 6 10 18 29 29 23 23 22 20 16 12 11 11 13 14 13 12 13 13 15 14 14 13 11 8 6 6 12 30 30 20 18 22 22 28 27 26 22 21 21 20 12 6 6
8 7 7 7 7 7 7 7 5 9 27 34 30 25 22 19 15 13 16 22 31 20 20 14 15 17 18 17 16 14 9 6 6 10 22 31 23 25 21 23 29 27 29 26 24 22 20 10 5
8 7 8 8 7 7 6 6 7 8 5 7 28 39 29 24 21 16 18 19 32 43 26 35 29 17 21 21 18 17 17 12 7 7 12 26 37 38 30 22 22 29 31 34 31 26 23 19 8
9 7 8 8 6 6 6 5 6 7 8 8 5 9 36 36 27 21 19 21 22 43 50 38 51 59 57 38 25 24 22 16 15 14 12 10 19 46 47 31 22 22 30 34 37 32 28 23 14
10 8 10 8 7 6 6 6 6 5 5 6 7 7 6 19 40 32 24 24 25 27 47 55 52 64 70 71 58 52 46 19 16 14 14 14 14 22 39 48 35 23 26 31 35 37 32 26 18
10 10 10 9 8 8 8 8 7 7 6 4 4 4 6 6 6 27 39 30 28 27 26 34 65 72 76 71 73 66 69 43 26 20 16 16 17 22 31 50 47 35 24 31 36 40 36 30 21
10 11 10 11 10 9 10 8 8 9 9 7 6 5 4 4 4 5 7 40 35 32 31 30 45 70 71 84 76 65 68 74 54 44 30 24 21 22 33 48 56 50 36 28 38 39 41 36 29
14 14 13 13 12 12 10 9 10 10 10 9 8 7 6 6 4 4 4 4 32 38 34 31 43 60 70 76 83 80 60 49 53 61 48 36 30 57 61 46 57 61 51 40 35 43 42 42 37
20 18 16 16 15 13 12 13 11 11 18 14 12 11 9 8 7 6 6 5 4 31 39 40 30 33 80 87 69 91 82 51 45 63 62 58 57 85 93 92 86 73 68 57 49 45 48 44 44
23 22 20 19 18 15 14 14 14 18 16 15 15 15 13 11 9 8 6 5 4 4 44 46 40 33 71 91 83 92 82 69 61 65 65 55 67 71 78 84 95 79 78 75 64 52 52 46 44
28 28 29 28 27 25 22 20 20 20 19 19 19 19 17 13 10 7 6 5 4 5 15 51 47 37 64 80 88 81 97 89 83 58 62 47 32 48 46 41 65 87 87 77 75 66 57 52 48
35 34 34 30 28 27 26 25 18 15 13 9 8 7 8 7 6 6 6 5 5 7 9 54 55 42 47 81 90 73 80 86 81 47 50 46 26 21 25 34 38 66 82 78 98 74 58 56 50
39 36 32 28 28 30 22 11 11 27 23 14 17 27 32 19 11 7 9 11 10 14 14 36 65 47 43 51 77 71 96 100 98 74 46 38 37 31 33 54 49 62 72 74 81 96 87 94 92
37 36 35 32 26 13 10 12 18 30 29 30 38 36 32 28 30 20 10 17 16 16 22 27 65 64 42 40 97 96 88 100 98 95 66 47 37 46 63 60 58 40 38 44 83 100 78 90 96
43 38 32 21 16 10 22 23 30 38 43 47 42 47 32 25 24 26 15 16 20 17 19 25 42 70 54 37 60 97 97 100 100 96 71 42 24 54 76 66 49 50 71 50 89 96 97 95 97
34 34 22 17 22 21 27 27 38 48 59 62 50 45 27 11 21 28 18 15 20 18 18 22 34 61 67 40 33 72 67 73 61 80 75 34 22 58 74 50 41 29 39 60 84 99 98 97 97
26 15 14 17 21 24 31 36 76 86 79 47 41 79 58 63 74 73 38 24 18 18 19 21 34 54 73 84 32 29 58 34 17 14 17 23 72 88 74 63 42 22 35 58 99 97 96 98 96
15 14 18 21 24 34 34 54 94 82 51 43 78 78 65 60 64 50 40 29 17 17 23 23 34 54 55 90 88 22 17 15 15 34 26 88 89 75 70 60 38 21 91 92 100 92 98 92 93
13 19 20 24 42 38 62 78 48 53 57 59 100 86 86 74 100 96 68 30 20 40 39 42 37 60 44 72 67 60 51 40 36 40 49 100 94 72 56 56 94 93 98 97 99 97 94 93 92
20 19 27 36 48 67 93 88 78 50 67 75 100 100 95 100 100 100 100 94 50 69 81 85 86 93 96 85 88 71 76 63 44 31 80 99 95 70 86 87 94 97 99 94 94 96 97 95 94
20 26 41 50 58 77 88 86 98 84 74 86 100 80 100 100 98 100 100 100 97 78 98 97 95 96 93 83 58 67 60 62 51 30 30 94 76 60 75 64 96 99 99 93 98 96 97 92 96
31 49 61 50 63 71 86 84 90 95 94 93 100 100 100 98 97 100 100 100 100 97 89 70 82 85 80 75 54 59 52 44 44 29 97 90 67 60 78 91 89 94 94 93 97 96 98 96 96
66 75 66 76 73 75 79 90 97 100 100 98 95 100 96 88 73 89 100 100 100 80 79 72 65 52 41 40 30 27 32 34 36 48 65 60 57 69 69 99 96 100 86 96 96 97 96 96 96
74 71 78 72 67 72 91 93 92 97 99 100 100 100 100 100 87 64 45 55 62 60 64 72 63 54 39 44 28 26 27 41 52 58 76 76 73 82 65 87 95 97 85 89 97 95 96 96 97
50 60 66 68 76 85 83 96 94 99 98 81 96 99 100 100 100 99 70 30 24 25 36 32 32 32 37 46 53 55 59 61 67 76 68 71 82 94 92 84 84 96 100 97 96 96 97 97 96
26 32 40 38 50 73 76 87 99 100 100 100 91 99 99 97 100 99 100 89 59 94 88 64 70 71 100 78 84 89 81 92 100 99 94 79 97 89 98 96 96 96 96 93 95 97 99 97 97

GFSSGP_500_rhum_105.txt.gz
RH
19 18 17 16 17 16 15 15 12 9 9 10 12 12 12 11 10 10 9 8 9 10 10 10 10 9 6 3 3 5 10 15 13 13 14 13 14 16 17 16 16 15 15 18 13 11 9 6 6
16 17 17 16 17 16 15 14 12 12 10 9 9 10 12 13 12 12 12 12 11 10 10 10 10 10 9 8 5 3 2 5 14 16 13 14 13 15 17 18 17 15 15 15 16 11 8 6 6
22 20 17 16 16 16 14 13 12 11 11 10 10 9 9 10 12 13 13 12 12 13 12 12 11 12 12 11 9 8 6 3 3 12 17 14 14 14 17 20 19 17 17 17 17 17 12 7 6
30 29 26 28 30 27 20 16 15 12 13 15 17 12 11 10 10 11 12 13 14 13 13 13 13 13 13 14 14 13 10 8 5 5 11 25 23 17 16 18 21 20 20 20 20 18 17 10 6
6 6 6 7 11 15 18 19 19 20 19 17 19 20 18 16 13 12 11 12 14 14 13 12 13 14 13 13 16 19 23 20 9 6 5 12 30 36 31 22 18 23 24 23 22 22 20 17 8
6 6 6 7 7 7 7 6 6 6 8 13 22 21 17 20 21 19 17 14 15 16 42 29 14 13 15 15 15 15 16 26 20 11 6 6 14 30 30 31 26 21 24 27 26 25 24 21 16
6 6 7 7 7 6 5 5 5 5 4 5 6 8 18 27 26 23 21 20 16 16 21 45 51 29 19 15 16 18 18 19 20 22 10 5 6 20 38 33 37 40 20 25 28 28 27 24 21
8 8 9 8 8 7 6 6 5 4 4 4 4 5 7 7 15 32 32 25 21 18 20 24 52 57 43 36 28 20 22 21 18 18 16 14 10 8 18 37 45 47 44 23 24 29 30 29 26
9 10 11 10 9 9 8 8 6 6 7 6 6 5 4 3 5 6 15 34 31 24 21 24 20 47 58 48 47 56 58 35 22 24 22 16 16 15 11 16 27 40 38 29 24 27 29 30 31
8 8 8 9 9 10 8 8 7 8 8 8 8 8 7 6 4 3 4 6 18 36 25 24 25 53 60 65 62 61 69 67 50 46 42 24 16 15 14 16 20 25 41 53 38 30 31 31 29
8 8 8 8 8 8 8 8 8 8 8 8 8 9 10 10 10 8 5 4 4 6 27 36 32 27 34 74 70 71 77 76 71 62 59 43 30 21 16 17 20 23 26 36 43 40 35 35 34
10 10 10 10 9 9 10 10 10 8 12 9 8 8 8 8 9 10 12 9 7 4 4 5 32 38 32 30 63 75 94 95 79 67 72 64 51 39 30 23 22 24 32 36 46 47 41 41 43
19 16 14 13 12 12 12 14 12 16 12 11 11 10 9 9 9 9 9 11 12 11 7 5 4 14 42 34 32 100 94 87 79 68 70 69 66 56 49 52 72 72 63 65 62 56 50 43 50
24 23 22 21 18 16 14 15 19 22 20 20 18 18 16 14 13 11 11 10 11 12 12 9 7 5 8 45 34 86 97 93 79 58 70 61 53 63 62 63 84 83 96 88 93 90 68 59 51
31 28 26 24 23 21 21 24 26 24 22 22 21 21 19 18 18 17 18 17 14 12 14 12 10 8 5 17 44 38 88 99 97 94 71 75 66 77 64 71 68 86 88 85 88 98 94 76 80
34 32 31 29 29 29 30 25 28 27 25 21 17 16 15 14 13 14 14 16 16 17 16 16 12 9 6 5 48 43 57 97 74 94 78 62 64 73 78 65 39 49 61 60 58 82 79 97 92
38 36 39 39 36 33 30 26 26 19 15 11 9 9 10 12 13 10 8 8 8 8 10 14 12 9 7 5 36 56 46 88 86 96 97 97 83 70 82 92 61 44 46 46 41 47 66 90 99
45 46 42 40 36 32 30 22 15 11 10 16 21 23 27 29 31 32 28 25 14 19 18 8 7 7 9 7 12 62 60 57 97 88 91 97 94 85 58 57 44 39 32 22 33 27 53 74 78
50 48 46 39 32 24 18 10 11 18 22 30 44 49 51 52 45 37 34 26 21 21 22 19 9 9 20 10 8 61 54 62 77 98 100 96 97 79 78 41 41 36 27 31 46 43 44 70 98
48 42 38 30 17 11 10 11 18 24 36 37 40 47 37 27 48 37 17 13 14 20 23 30 16 18 22 22 27 40 64 54 81 82 95 99 96 96 91 59 40 48 19 42 49 29 49 52 50
41 37 21 14 12 15 18 23 29 25 31 57 35 31 34 58 51 36 37 53 42 33 37 29 20 34 48 30 47 28 62 68 57 54 77 96 85 77 92 80 44 45 22 46 35 24 24 48 75
30 17 12 11 17 20 23 22 31 43 49 65 47 53 63 49 93 96 95 69 59 65 41 27 19 29 100 74 59 45 49 93 72 48 51 92 96 98 62 43 31 21 53 47 30 25 23 30 63
19 13 13 18 26 32 36 31 48 55 74 78 64 67 51 67 87 99 100 100 89 57 38 35 32 53 26 38 34 59 66 78 99 43 32 67 63 37 16 19 22 59 65 60 21 27 25 30 59
14 15 19 27 30 39 46 47 55 62 62 88 67 68 78 70 89 87 100 100 81 89 53 43 36 82 60 50 56 61 61 74 99 85 39 31 48 36 28 35 52 84 74 55 60 74 72 98 95
17 20 35 39 39 45 45 54 61 72 86 97 73 75 87 95 88 97 100 100 100 100 100 100 100 100 94 67 68 72 76 80 92 70 33 28 23 35 54 54 83 94 78 62 68 93 97 100 97
28 40 45 38 40 56 66 75 75 74 74 85 100 95 98 90 100 100 100 100 100 100 100 100 100 100 100 100 100 100 97 89 83 82 82 66 57 48 51 30 31 74 77 63 77 81 98 95 96
55 45 44 56 60 66 69 75 75 76 92 95 96 99 100 99 72 87 88 100 100 100 100 100 100 100 100 100 96 80 59 59 64 64 65 74 82 90 66 56 62 76 74 56 73 96 95 88 91
49 49 48 48 47 57 68 66 70 82 89 93 98 99 100 100 99 60 58 94 95 99 100 100 100 100 94 86 77 65 66 52 55 55 47 42 50 50 52 64 60 57 55 57 74 92 93 90 86
22 26 36 33 36 41 41 60 62 72 80 89 86 99 100 94 97 97 97 28 41 62 71 84 96 90 72 53 46 43 42 32 34 33 45 58 59 69 67 67 81 97 90 60 71 86 82 93 86
17 17 18 20 19 18 18 22 46 51 67 73 84 96 92 98 100 100 100 95 62 39 38 36 36 33 38 48 75 100 100 69 69 69 100 100 100 89 81 95 81 88 89 86 100 95 92 99 97

GFSSGP_500_rhum_108.txt.gz
RH
15 16 16 16 16 14 14 13 11 10 10 10 11 12 12 11 11 10 9 9 8 8 9 9 10 9 8 6 3 3 4 9 13 14 13 13 14 12 14 16 15 14 13 12 15 14 12 8 6
20 18 17 17 17 16 14 15 12 11 10 9 9 9 10 12 12 12 12 11 11 10 10 9 10 10 11 10 9 7 4 3 3 8 15 17 13 13 13 15 17 15 14 14 16 15 11 9 6
17 16 16 16 15 14 13 14 12 12 11 11 10 9 9 9 10 12 12 12 12 12 12 12 11 14 11 13 11 11 10 8 5 3 4 10 18 15 14 14 16 18 17 15 15 16 16 10 7
31 32 29 24 18 16 14 12 12 11 12 11 10 8 9 10 10 10 10 12 12 13 13 13 13 15 25 28 18 18 13 13 12 9 8 5 11 21 19 15 15 16 20 18 16 16 17 16 10
30 33 34 35 30 26 23 22 21 17 13 12 12 11 10 11 12 11 11 11 10 11 12 13 14 16 19 24 27 29 24 26 26 25 23 10 7 21 29 32 23 17 17 20 21 18 18 19 16
10 14 16 15 13 13 13 13 14 16 17 17 16 13 13 14 15 18 16 14 12 17 11 13 17 16 19 18 22 28 31 32 29 27 28 18 16 14 30 38 45 52 43 31 20 21 22 21 20
5 6 6 6 6 7 7 7 8 8 7 6 6 8 9 12 17 21 20 19 19 18 16 20 17 38 46 30 18 17 19 23 25 27 26 29 24 19 21 29 32 38 40 51 24 20 23 24 23
6 6 7 7 7 7 6 6 5 5 4 4 4 4 4 4 6 6 10 21 24 22 22 21 30 16 31 48 50 30 21 15 16 19 22 21 20 17 7 19 30 39 44 49 61 36 22 26 25
6 6 8 8 8 8 7 7 8 7 7 6 6 6 6 6 5 3 3 4 7 17 29 27 23 35 20 34 58 57 46 32 23 23 21 21 20 20 17 14 12 31 68 67 70 67 35 27 28
7 8 8 9 9 9 9 9 8 7 8 8 7 7 7 8 8 7 6 6 4 3 4 11 31 30 25 25 24 48 53 51 41 50 54 31 24 25 22 18 18 14 33 52 62 64 57 37 31
7 7 7 7 8 8 8 8 7 7 10 7 8 7 7 7 7 7 7 8 8 9 7 4 4 11 34 30 28 41 66 62 60 58 62 69 38 40 40 29 17 26 34 40 42 57 50 53 40
7 8 8 8 8 8 8 8 7 9 9 8 8 8 8 8 8 7 7 7 7 8 9 10 8 5 4 21 35 30 58 74 67 67 71 75 67 58 54 46 27 40 52 59 53 29 35 42 46
12 13 14 13 11 10 9 9 10 13 9 9 8 8 10 10 10 9 8 9 9 9 9 8 8 9 8 4 6 32 32 41 66 80 92 86 76 75 71 64 65 58 51 59 66 60 38 52 42
22 22 20 17 14 13 13 13 13 14 12 11 11 13 12 10 12 13 13 11 10 10 11 10 8 8 9 9 9 7 16 34 32 67 97 97 95 80 72 77 73 55 64 67 77 77 77 87 72
24 25 26 25 20 16 15 16 19 16 14 16 19 21 20 19 18 17 16 15 15 13 11 11 11 9 7 10 10 10 10 14 34 67 97 83 89 87 82 85 83 67 58 76 91 94 94 88 92
33 34 34 31 27 23 23 22 28 26 23 23 21 18 15 15 13 12 11 10 11 11 12 12 12 13 12 10 12 13 11 17 20 36 81 95 75 74 81 80 78 56 74 76 80 84 92 92 72
42 39 36 32 29 28 32 32 31 25 17 16 14 12 10 8 9 8 9 9 9 9 9 10 10 10 11 13 14 15 16 13 19 28 43 84 97 96 92 88 81 77 82 88 87 97 88 78 82
43 39 37 36 35 36 31 22 24 16 12 10 8 9 15 17 20 22 26 22 23 18 11 10 9 8 9 9 11 14 19 23 17 18 41 55 92 96 89 91 98 88 86 99 93 73 75 80 67
43 42 45 42 30 22 22 17 14 10 9 12 17 22 22 24 35 36 26 32 35 43 46 43 30 28 12 9 9 9 11 22 28 34 50 53 93 96 97 99 98 98 100 96 95 75 60 51 48
52 47 39 29 21 15 14 11 10 12 20 25 20 20 20 26 39 36 30 36 37 27 30 36 38 36 25 21 19 14 16 13 30 30 44 90 79 95 98 97 97 97 89 72 68 54 51 34 27
42 36 29 21 14 12 8 10 18 26 29 25 16 16 24 24 35 35 40 66 83 77 41 29 24 35 34 26 24 20 17 18 26 46 56 62 75 74 97 98 96 95 80 68 77 55 43 35 24
36 30 19 12 9 11 15 22 38 37 27 33 36 37 35 28 49 43 44 76 75 82 66 69 48 44 42 29 34 30 31 36 41 44 52 72 72 75 85 94 94 93 91 90 92 72 38 37 34
31 19 14 11 15 18 24 29 30 35 39 45 42 51 41 35 64 58 75 87 94 99 94 80 97 76 44 49 32 44 72 52 41 65 73 52 65 62 56 60 70 77 72 81 88 29 34 39 36
22 15 13 18 24 31 35 34 38 35 42 54 51 54 65 60 70 68 69 66 98 100 97 66 52 48 59 55 72 96 98 93 95 100 90 57 67 81 70 52 42 75 85 87 36 20 33 53 57
12 18 28 41 46 40 35 41 46 50 55 57 59 61 76 81 76 77 61 72 94 100 100 73 62 65 56 98 98 100 98 100 95 86 79 73 77 81 75 48 39 60 62 41 31 35 50 67 66
35 40 48 50 45 40 36 47 47 53 58 58 66 78 86 94 98 61 73 75 83 100 100 100 100 100 86 89 98 95 89 64 65 69 64 74 90 64 79 37 29 38 49 40 52 57 72 77 79
57 57 55 54 43 41 46 46 50 55 54 60 69 68 82 86 92 40 81 77 71 94 100 100 100 100 98 100 98 73 54 56 64 86 91 87 90 63 50 47 41 38 41 45 46 38 48 48 70
39 36 35 33 28 33 31 32 40 48 49 55 68 80 87 88 92 92 48 85 84 88 99 100 100 100 100 100 100 97 99 98 99 100 99 98 82 76 76 83 79 77 72 76 63 60 66 71 64
16 16 17 19 19 19 19 18 17 17 23 29 34 52 84 95 95 91 99 44 43 72 80 94 99 100 100 99 99 100 100 98 97 90 72 79 88 79 83 80 65 63 62 68 68 82 84 79 68
11 11 12 12 13 15 14 14 13 12 11 11 14 20 25 65 90 99 99 100 89 43 72 90 83 88 90 82 74 68 90 83 63 53 61 56 39 58 64 61 74 83 98 98 83 91 99 97 71

GFSSGP_500_rhum_111.txt.gz
RH
8 8 9 10 11 11 13 11 10 10 10 10 10 11 12 13 12 11 10 10 9 9 9 9 9 12 10 8 7 5 4 4 9 14 15 14 16 15 14 13 16 15 13 13 14 15 14 12 6
8 9 9 12 14 15 16 12 12 11 11 10 9 9 10 12 13 12 12 12 11 11 10 12 11 14 24 12 13 10 9 7 7 9 7 12 20 19 15 13 14 15 16 14 14 15 14 11 9
12 14 16 17 17 18 15 12 15 13 12 12 10 9 9 9 10 10 12 12 12 12 16 20 21 13 18 35 23 21 16 10 9 7 6 6 11 11 16 17 15 14 15 16 15 14 16 14 10
19 18 19 17 16 14 14 14 13 13 12 12 12 10 11 10 9 9 10 10 11 12 21 16 18 14 13 20 30 31 27 22 18 14 11 9 8 9 11 17 20 16 15 14 18 16 15 16 15
24 22 22 20 20 21 23 21 17 13 13 12 11 10 11 11 11 10 10 10 10 10 10 11 11 12 13 16 27 34 34 32 31 32 29 23 22 12 19 30 26 26 22 18 15 19 17 17 17
39 38 38 38 35 35 32 29 27 24 22 20 17 15 11 12 12 12 11 11 12 10 10 10 10 11 12 15 21 31 34 34 32 34 34 33 35 32 18 20 24 34 40 51 54 27 20 20 19
28 19 20 24 26 29 29 25 21 19 17 15 16 18 17 17 15 15 15 14 15 17 16 15 12 16 13 15 18 20 32 26 30 30 30 28 30 35 38 31 29 29 34 44 57 52 37 22 22
5 6 8 10 6 6 6 6 7 7 7 6 6 6 7 6 6 7 8 11 14 18 20 20 19 21 27 26 18 38 41 29 24 22 19 19 22 22 24 26 32 32 31 38 40 48 53 52 27
5 6 6 6 6 7 7 7 7 6 6 6 5 4 4 5 5 5 5 4 5 7 8 13 22 26 25 24 29 25 28 52 47 23 35 31 22 19 22 22 21 12 23 44 53 62 64 58 60
6 6 6 6 6 7 7 7 7 7 9 8 7 7 7 7 7 7 7 8 7 6 5 4 4 6 10 22 30 29 32 24 54 58 41 29 26 24 22 24 21 22 18 20 55 63 63 62 70
7 7 7 8 7 7 7 8 8 8 9 7 7 7 6 7 7 6 6 6 6 7 7 7 7 7 6 4 4 19 36 34 28 32 57 53 39 38 46 44 26 25 26 28 38 50 59 49 57
8 7 7 7 7 7 6 7 7 7 7 7 6 6 7 7 7 7 8 8 7 6 6 6 6 6 6 6 7 4 9 27 45 42 39 64 58 55 58 65 66 35 44 41 42 56 60 62 51
6 6 6 7 8 9 9 9 9 8 7 7 7 7 7 7 7 6 6 7 8 9 9 9 8 7 8 7 7 8 8 7 24 45 48 51 79 72 70 65 78 66 60 62 56 58 69 84 79
8 9 11 14 15 15 14 13 12 12 11 8 8 7 7 7 8 8 7 7 8 9 10 12 12 12 12 10 9 8 8 10 8 14 28 38 39 67 77 82 86 84 85 80 74 74 61 73 80
18 19 20 18 16 16 16 19 18 16 14 12 11 11 11 12 11 10 13 15 15 15 14 13 13 13 13 13 12 11 10 9 9 11 7 8 30 30 64 99 94 96 94 88 86 84 80 82 92
26 24 22 24 24 26 28 26 24 22 19 19 20 20 21 21 18 16 13 12 11 10 10 9 10 10 11 11 12 12 13 11 10 10 11 9 8 30 92 88 86 88 84 90 90 90 82 74 88
30 29 32 27 29 29 29 27 29 26 24 26 24 19 14 11 10 8 7 6 6 6 6 6 6 6 7 8 9 10 10 12 15 14 33 29 12 14 38 94 97 99 92 91 88 87 82 78 90
35 37 36 34 32 32 31 30 37 31 23 16 12 10 8 8 8 10 13 16 20 19 18 15 14 15 14 7 7 8 20 12 18 20 17 20 15 15 17 40 95 97 96 95 99 90 82 84 93
42 40 42 40 36 36 40 35 24 16 13 10 8 8 9 12 13 15 14 14 17 21 22 20 20 24 26 21 17 17 11 19 18 26 20 20 22 20 15 24 44 96 95 94 87 65 97 90 95
63 52 47 46 44 38 28 18 14 9 8 10 12 14 15 15 18 21 26 29 27 31 32 30 35 37 40 33 34 31 46 25 17 27 21 34 24 24 19 15 32 91 96 97 99 90 94 96 100
62 66 60 46 33 22 15 10 9 12 20 25 24 19 19 22 28 29 38 37 37 37 34 42 51 70 66 57 47 35 64 48 36 32 35 42 45 45 32 35 36 48 97 99 97 97 97 96 93
66 52 40 28 22 13 10 9 14 23 28 32 32 28 26 38 44 45 52 52 42 34 34 46 66 75 76 58 40 43 69 46 43 36 59 45 42 34 32 37 49 45 52 94 97 95 96 96 97
43 36 29 20 11 8 10 14 24 30 43 45 40 42 41 43 49 57 61 50 58 57 55 81 73 83 95 99 38 50 67 69 50 71 89 76 32 34 41 36 42 45 50 75 94 95 96 96 98
34 26 18 10 9 12 18 25 32 39 44 47 50 44 46 41 42 61 64 70 55 65 87 70 59 69 97 98 74 72 72 53 68 98 99 79 59 60 49 32 48 53 44 56 70 88 94 95 95
22 14 11 13 20 23 28 30 39 41 44 44 46 44 53 46 55 55 47 59 58 63 90 95 70 65 85 88 97 100 81 91 98 99 98 100 69 64 82 63 47 50 44 56 68 70 74 88 88
13 18 24 33 38 31 36 42 43 39 45 39 30 34 56 50 56 63 43 62 60 60 72 100 86 67 98 100 100 100 99 100 100 99 95 83 79 94 85 84 59 50 56 61 63 64 50 62 63
42 46 48 46 42 37 37 36 32 28 28 17 17 14 39 58 54 64 70 54 67 59 71 80 99 100 97 100 100 100 97 100 100 99 95 87 54 48 56 59 54 66 75 62 47 51 45 46 57
43 36 33 29 27 21 21 22 19 16 13 10 9 9 10 35 62 64 69 60 65 64 66 75 87 98 96 97 100 96 90 83 81 62 49 49 46 61 67 75 98 93 83 62 38 36 39 37 39
15 15 14 14 13 13 12 12 11 10 9 8 7 8 7 8 25 66 72 74 73 63 63 61 64 71 81 88 94 98 99 100 99 84 78 78 98 100 100 96 97 83 76 71 80 73 74 64 59
7 7 7 7 7 7 7 7 7 7 7 5 5 5 5 6 6 11 36 63 76 76 75 57 68 78 76 75 82 88 86 83 81 82 81 91 97 94 81 98 92 87 84 84 80 72 86 77 80

GFSSGP_500_rhum_114.txt.gz
RH
6 6 6 7 8 8 10 9 10 12 9 10 10 11 11 11 12 13 14 12 10 10 9 9 9 10 10 10 8 11 8 6 8 17 23 21 19 18 24 17 14 13 15 14 14 14 15 14 11
6 6 6 8 9 9 12 9 11 10 12 10 10 10 9 10 10 11 12 13 12 12 11 11 10 10 14 15 28 20 15 11 10 16 18 12 11 14 17 24 18 13 13 14 15 14 15 15 13
7 7 7 8 9 10 10 10 10 15 13 12 11 10 10 10 10 9 9 10 11 12 13 17 21 18 27 17 16 31 29 22 23 13 11 12 7 8 11 16 19 19 14 12 15 17 14 15 15
8 8 8 10 14 16 15 14 14 14 13 13 13 12 12 11 12 10 9 9 9 9 10 12 32 26 19 20 14 17 29 33 30 24 18 13 11 15 9 7 7 14 19 18 14 14 17 16 15
13 14 16 18 19 15 14 18 14 12 13 14 13 10 12 11 11 11 11 10 8 8 9 9 11 26 23 15 16 13 16 27 34 33 31 32 29 27 27 28 15 22 24 21 22 16 17 19 17
20 19 19 20 18 16 18 20 22 25 26 22 17 14 13 13 11 10 10 11 10 9 9 9 10 11 11 11 12 13 13 17 28 31 32 31 31 33 37 42 33 24 24 42 40 38 38 23 20
29 29 28 28 25 27 31 34 36 36 33 31 25 22 19 18 20 17 15 12 12 12 11 11 11 14 10 11 11 11 12 16 22 30 29 29 32 32 30 34 41 42 35 36 46 49 46 52 38
43 45 45 43 39 36 37 35 32 30 25 19 16 15 16 13 14 13 12 13 13 13 14 14 14 14 15 17 17 17 24 16 18 21 30 29 26 24 26 25 26 27 35 40 39 46 48 46 40
17 14 13 14 12 13 13 10 7 7 7 7 7 7 7 5 5 5 5 5 5 5 5 6 7 9 13 16 18 20 21 24 24 20 40 46 30 23 20 20 19 21 23 23 24 37 45 52 57
5 4 5 6 6 6 6 7 8 7 7 6 5 6 6 6 5 5 5 6 6 6 7 7 5 5 5 6 7 10 16 24 26 27 26 27 51 44 24 34 27 20 20 23 24 31 32 42 61
5 5 6 6 6 6 6 6 8 8 7 6 7 7 7 6 6 6 6 6 6 6 6 6 6 7 6 6 6 6 5 5 10 21 29 30 25 45 60 45 30 26 26 31 24 25 28 27 46
6 6 6 6 6 6 6 7 7 7 7 7 7 7 6 6 6 6 6 5 6 6 6 6 6 5 5 5 5 5 5 6 5 5 5 27 39 32 29 47 57 46 43 51 53 31 33 41 41
7 7 8 8 7 7 6 6 7 7 7 7 7 6 6 6 6 6 6 6 6 5 5 5 6 6 7 7 6 6 5 6 6 6 5 6 15 40 49 40 50 72 64 60 64 71 52 64 62
8 8 7 6 6 7 10 13 12 10 9 8 7 7 6 6 6 6 5 5 5 5 6 6 6 5 5 6 8 8 9 8 8 7 8 7 6 7 23 46 48 69 76 68 73 77 79 81 82
7 7 6 7 10 14 15 14 13 13 12 14 12 11 12 11 11 11 11 12 12 13 12 12 12 11 11 11 10 11 11 11 10 16 20 40 26 8 6 7 18 48 62 79 83 94 94 94 93
6 7 8 14 18 19 19 23 21 24 22 21 19 18 17 16 16 16 18 18 16 15 13 12 12 11 11 11 11 11 11 12 13 16 19 31 33 11 8 7 5 8 47 82 92 96 98 100 96
8 11 18 21 21 23 25 26 30 26 26 25 26 25 24 23 20 14 12 11 10 8 6 6 6 6 6 5 6 7 8 8 9 11 16 31 36 32 16 10 8 12 39 58 81 90 98 98 97
22 27 24 21 22 28 28 30 34 31 30 31 29 22 16 12 9 7 6 6 7 9 10 10 11 13 13 14 13 12 13 10 7 8 10 32 44 51 64 79 56 14 8 42 87 98 98 98 93
30 28 26 28 27 34 36 36 38 38 33 21 15 11 8 7 7 9 10 11 15 17 18 15 16 17 18 20 22 22 20 21 18 16 17 18 61 59 53 58 50 40 13 12 40 94 96 96 99
35 38 37 39 45 54 49 44 39 26 17 12 9 7 10 12 16 17 24 28 29 32 40 43 37 38 35 28 27 26 28 28 20 19 18 32 38 58 55 41 25 22 19 14 11 26 96 96 97
41 46 53 58 55 53 48 31 22 14 10 8 9 12 18 23 26 30 31 31 34 36 48 50 44 35 31 32 30 34 37 42 46 47 43 24 53 54 64 54 48 24 18 18 16 15 26 82 94
54 57 62 64 56 40 24 16 11 9 9 14 20 30 34 36 29 30 29 31 33 42 39 34 37 51 53 45 47 53 58 51 60 58 60 63 42 49 98 97 94 30 28 30 24 15 27 64 97
72 66 52 38 26 21 16 10 9 11 18 23 33 31 37 30 28 31 31 36 32 36 39 46 61 49 48 44 79 74 74 63 61 68 77 88 72 76 51 59 52 47 38 36 44 59 55 71 92
44 34 28 24 19 13 10 10 13 18 27 31 32 34 23 16 28 35 40 41 40 36 41 57 62 55 60 72 86 78 88 100 96 75 79 84 93 81 96 96 92 77 65 54 52 50 56 64 75
27 26 21 15 11 10 17 16 23 24 33 31 30 17 10 9 16 34 46 45 48 35 48 62 67 56 71 73 69 66 67 82 99 98 100 100 98 97 96 99 97 99 91 64 68 69 60 50 53
22 16 11 11 17 22 27 21 26 28 26 20 13 8 7 6 7 16 53 46 54 42 45 55 70 46 59 94 96 100 100 100 99 99 98 100 99 99 99 98 89 99 75 62 65 64 58 46 39
15 13 26 35 33 27 27 22 23 20 14 10 9 7 6 6 6 8 44 53 50 48 38 53 60 68 36 69 87 99 99 100 100 95 100 100 100 98 93 62 65 59 53 48 61 76 58 49 46
33 35 30 27 24 21 17 15 13 10 9 7 6 5 4 5 5 6 11 19 50 58 54 42 50 55 66 78 82 82 90 83 89 98 99 98 96 74 57 58 68 67 60 69 73 70 88 90 79
12 11 10 10 10 9 9 8 7 6 6 5 5 4 5 6 7 8 7 8 9 40 62 60 43 46 55 55 62 68 71 75 79 61 56 61 62 59 51 47 48 56 65 70 68 89 91 94 67
6 6 6 7 7 7 7 7 6 5 5 5 5 5 6 9 9 9 10 11 11 8 12 53 68 64 58 52 50 55 60 58 66 72 71 73 75 73 72 84 92 92 78 75 90 98 77 68 70

GFSSGP_500_rhum_117.txt.gz
RH
6 6 6 6 6 7 7 7 7 8 9 12 10 9 10 10 11 12 11 12 13 11 10 10 9 9 9 10 12 11 9 12 13 11 16 26 29 25 22 17 17 16 14 13 15 15 14 15 15
7 5 5 5 6 7 7 7 7 9 10 10 11 10 10 10 10 9 9 10 11 12 13 12 12 12 12 10 12 14 26 19 16 11 9 19 24 17 17 17 16 16 16 14 14 15 16 14 15
7 5 5 5 6 6 6 7 8 11 14 12 11 11 11 12 10 9 9 9 9 9 10 11 12 27 28 24 23 23 17 24 29 26 23 12 10 12 6 8 10 13 17 18 15 13 15 15 14
6 5 5 6 6 6 7 7 8 10 13 15 13 12 12 12 11 10 10 9 9 9 9 9 9 10 32 41 30 22 20 19 26 31 30 26 16 13 12 16 11 8 6 6 14 15 15 17 18
6 6 7 8 7 7 8 10 13 12 13 12 12 12 12 11 10 10 10 10 9 10 10 10 10 10 9 12 21 28 24 22 16 18 28 35 32 33 30 29 26 28 21 14 20 22 19 18 18
9 8 9 10 10 11 14 15 14 13 14 16 16 17 17 17 14 12 12 11 10 10 10 10 10 10 9 10 10 13 14 11 13 14 17 28 33 35 33 34 34 38 41 28 30 42 38 35 30
18 18 20 17 15 15 16 16 18 19 21 24 22 25 30 29 24 20 18 17 15 13 12 12 12 12 11 10 10 11 11 13 14 10 13 15 29 34 33 34 35 31 35 38 39 42 43 41 42
29 28 25 23 23 23 25 27 30 32 36 35 34 31 29 24 23 21 19 18 17 17 16 16 15 14 13 12 12 12 13 14 14 14 17 12 15 18 29 30 32 32 28 28 28 31 39 38 37
34 33 29 26 26 36 39 38 36 34 31 24 16 14 11 8 8 7 7 6 5 6 6 6 6 6 7 9 10 12 13 13 14 16 16 23 20 19 27 34 30 24 20 20 21 26 23 24 30
26 25 24 27 25 21 14 15 12 9 7 7 7 7 7 6 6 5 5 4 5 5 6 7 6 7 7 6 5 5 6 7 9 12 16 19 21 24 23 33 49 42 25 30 26 21 21 24 25
18 16 7 6 6 6 7 7 7 7 7 7 7 7 6 7 7 6 6 6 6 6 6 6 6 6 6 6 6 6 6 6 5 6 6 6 11 21 27 29 28 35 51 34 33 29 24 23 23
8 5 5 5 6 6 6 7 7 7 7 7 7 7 7 7 7 6 6 6 6 6 5 5 5 5 6 6 6 6 6 5 5 5 5 5 5 5 5 15 32 32 27 48 56 48 36 37 45
5 5 5 6 6 6 6 7 7 7 7 6 7 6 6 6 6 6 5 6 6 6 5 5 5 5 5 5 5 5 6 6 6 6 5 5 6 21 12 6 7 21 42 36 32 44 55 48 52
5 6 6 6 6 7 8 7 6 8 11 10 9 8 7 6 6 5 5 6 6 6 6 7 8 8 7 7 6 6 5 5 5 5 7 8 21 26 26 27 8 6 14 45 50 48 59 66 62
6 6 7 7 8 7 6 7 8 11 13 12 12 11 12 10 8 11 13 12 11 13 14 14 13 13 13 12 11 11 10 10 10 8 6 7 8 17 22 44 46 23 31 11 14 37 76 80 75
7 7 7 7 6 6 8 15 18 17 16 18 17 18 16 16 20 21 21 22 21 20 19 18 16 15 14 14 14 13 12 12 12 12 12 12 11 12 23 38 56 50 38 10 7 8 36 74 90
7 7 7 6 7 9 14 19 19 20 21 24 27 26 27 28 26 24 21 16 13 10 8 7 6 6 6 6 6 6 7 6 6 7 7 9 10 13 43 42 42 44 40 18 31 14 14 28 79
7 6 6 7 10 18 19 21 25 22 24 30 32 31 30 25 19 13 9 6 6 6 8 9 9 9 9 10 10 10 10 12 13 11 10 14 10 10 24 59 37 46 52 40 32 24 13 16 60
7 8 10 16 19 21 21 21 32 37 41 42 33 26 18 11 8 6 7 9 8 14 21 18 15 16 16 18 23 22 26 26 24 26 21 20 18 16 23 41 56 62 67 69 72 91 16 21 28
16 20 23 22 22 24 30 34 42 48 44 33 20 13 10 7 7 12 13 16 20 23 21 17 23 19 13 15 40 44 49 47 40 35 27 27 27 27 30 27 43 54 91 92 95 99 59 26 12
25 24 25 26 31 34 36 43 46 40 26 16 10 8 7 12 18 28 24 18 20 25 25 25 24 16 20 27 37 37 34 30 29 28 27 27 29 25 25 45 33 39 42 80 85 94 79 61 21
33 33 37 40 43 45 46 35 30 20 14 9 8 9 16 23 24 20 13 13 28 32 31 28 19 24 42 39 48 27 28 32 36 31 43 46 41 40 36 40 57 73 67 60 65 75 82 53 52
44 42 42 48 51 44 30 19 13 11 9 8 11 17 20 21 14 7 7 9 22 37 32 24 24 34 36 48 59 65 57 64 71 69 69 63 57 52 50 47 72 93 88 91 97 96 94 71 42
48 51 48 37 25 17 16 13 10 9 11 16 18 22 19 11 7 6 5 7 27 36 33 25 27 38 29 28 41 50 83 86 71 76 97 88 74 65 76 63 98 95 96 97 98 98 98 98 74
35 28 21 17 16 13 11 10 10 14 19 19 22 14 8 6 5 5 5 6 22 24 39 34 32 44 38 27 49 71 62 60 95 98 100 91 98 94 100 77 98 98 96 99 98 98 98 97 83
18 17 16 14 12 11 11 13 20 19 24 20 12 7 6 5 4 4 5 7 7 13 45 47 34 42 58 52 44 65 78 86 89 92 92 98 100 99 95 99 99 97 98 97 97 97 96 94 84
11 11 11 14 20 19 18 19 17 14 11 9 7 6 5 4 5 6 6 7 7 7 16 49 50 41 48 54 68 63 72 91 87 54 64 80 95 100 100 100 99 96 99 98 95 74 80 76 53
23 24 24 23 17 15 13 11 10 8 7 6 5 4 4 4 5 6 6 7 8 9 8 12 50 57 55 54 49 52 57 65 64 66 68 81 91 98 96 97 97 94 84 57 51 60 62 55 64
10 9 8 8 9 8 7 7 8 8 7 5 4 4 4 4 5 8 8 9 10 11 12 12 10 16 44 64 65 54 49 51 54 60 61 61 62 70 69 61 51 42 38 38 37 41 50 56 67
6 6 6 6 7 6 6 5 8 7 6 5 6 7 8 10 13 15 15 14 12 12 14 15 15 14 11 12 47 70 78 60 81 79 73 81 77 76 72 67 62 56 58 77 82 82 79 71 73

GFSSGP_500_rhum_120.txt.gz
RH
9 9 7 7 7 6 6 6 7 8 8 9 9 11 11 11 10 10 10 10 11 12 12 11 10 10 10 9 9 10 13 14 10 12 13 16 20 26 28 27 25 20 16 15 14 13 14 14 13
9 8 7 6 5 5 6 6 6 8 8 9 9 11 11 11 10 10 9 9 9 9 10 12 12 16 22 21 21 13 14 15 27 20 16 9 11 18 22 18 16 19 18 17 15 13 13 13 14
9 9 8 7 5 5 5 5 6 7 8 9 9 10 10 11 10 10 10 10 10 9 9 10 17 19 12 19 34 33 24 26 22 26 33 27 20 13 12 12 8 8 9 10 13 17 16 13 14
9 9 8 7 6 5 5 6 6 7 8 8 10 11 12 11 10 10 10 10 10 10 10 9 9 16 10 14 10 34 41 33 22 21 24 31 33 25 18 14 12 15 14 10 8 6 11 16 14
9 8 7 6 5 5 6 6 6 7 8 11 13 13 12 12 12 11 11 10 10 10 10 10 10 20 9 9 9 9 12 20 24 24 21 18 20 34 35 32 30 28 25 24 25 26 24 18 18
7 7 6 5 6 6 6 6 8 9 11 12 12 13 14 15 15 16 18 13 11 10 10 10 9 10 9 9 9 8 9 9 14 17 13 11 14 16 28 36 37 33 32 33 35 36 27 30 35
7 7 6 6 6 8 10 12 14 16 14 12 12 15 20 23 22 24 24 24 22 18 14 14 14 13 11 10 10 10 14 10 9 10 11 14 11 12 15 19 31 34 34 35 34 34 37 35 35
13 13 10 10 13 15 17 16 17 18 19 18 22 28 34 33 28 29 27 25 23 22 19 17 16 16 16 16 16 14 12 11 16 14 16 11 12 12 12 14 17 21 28 29 34 34 36 46 45
28 26 23 22 23 25 25 25 25 27 31 32 32 33 31 27 23 19 17 13 10 9 9 7 7 7 7 6 6 7 8 8 23 20 12 20 16 13 14 19 18 17 22 32 32 26 28 27 24
26 23 24 29 31 33 32 34 34 34 29 21 14 10 8 8 8 7 6 6 6 5 5 5 6 6 6 6 6 6 6 7 6 6 6 7 9 10 13 15 18 21 22 21 37 43 30 31 28
24 20 20 27 33 34 35 22 14 10 8 7 7 7 7 6 6 6 5 7 7 7 7 6 6 6 6 6 6 6 6 6 6 6 6 6 5 6 6 8 11 18 23 25 24 28 42 45 33
19 18 24 25 19 10 8 8 7 7 7 7 7 7 7 7 7 6 7 7 7 6 6 6 6 6 5 5 5 5 5 5 5 5 6 6 6 6 6 6 6 5 7 12 20 27 27 31 50
14 15 16 10 5 6 7 6 7 6 6 7 7 6 6 6 6 6 6 6 6 6 6 5 5 5 5 5 5 5 5 4 4 5 5 5 6 6 6 6 6 7 6 4 6 12 31 33 30
8 9 8 6 5 6 6 6 6 7 7 6 6 6 6 6 7 8 8 7 6 7 8 8 8 9 9 9 9 9 9 9 8 7 7 7 5 5 6 7 7 7 28 33 17 15 22 27 44
6 6 6 5 5 6 6 6 7 7 6 6 7 8 7 9 11 10 11 12 14 14 16 16 16 17 17 17 17 16 16 14 13 13 12 11 11 10 8 7 8 24 25 28 30 22 14 57 45
5 5 5 6 6 6 7 8 6 6 7 10 12 12 13 14 14 17 21 22 21 21 21 18 14 11 10 9 8 9 9 10 10 12 12 13 13 14 13 14 12 26 44 35 40 52 50 54 49
6 6 6 6 7 7 6 6 6 8 11 15 15 15 18 20 26 29 28 25 18 13 10 7 6 6 8 9 9 9 9 10 9 9 9 7 7 8 10 11 13 15 36 46 40 49 63 57 55
6 6 6 7 7 6 6 7 10 14 15 17 20 23 27 34 35 27 20 13 9 6 6 6 8 9 11 15 16 15 15 15 14 15 14 15 17 14 11 8 8 9 24 39 51 52 62 69 64
7 7 7 7 7 7 8 12 19 18 22 29 33 41 41 37 23 14 10 7 6 7 9 11 11 14 14 17 18 18 17 17 16 14 13 14 24 32 32 18 17 17 12 20 48 65 66 70 66
7 7 7 7 8 11 16 19 23 29 32 34 42 39 31 19 12 9 7 8 12 13 10 11 14 17 20 17 19 18 20 23 21 21 21 21 21 35 53 41 31 24 18 18 30 66 77 77 84
10 9 10 14 18 20 26 31 33 35 35 40 36 24 15 10 8 9 14 18 14 8 6 8 11 23 24 21 21 22 24 27 31 36 36 34 36 34 40 50 43 35 30 25 32 36 64 84 95
20 21 23 22 28 34 35 27 34 36 33 26 16 11 9 7 9 16 18 8 5 4 6 7 14 25 24 24 23 22 32 41 45 31 46 54 67 55 49 49 39 37 35 32 33 41 51 84 92
31 32 35 36 36 33 34 30 28 26 18 13 10 8 9 13 17 13 6 5 4 5 6 8 25 28 27 26 25 24 31 50 51 68 57 82 88 69 70 52 58 42 34 29 41 44 62 59 70
39 38 36 34 38 40 33 22 15 12 11 9 8 14 14 15 7 6 4 4 4 5 5 8 21 29 32 29 30 30 29 48 65 56 69 94 98 94 91 92 71 63 41 28 27 98 95 98 80
37 42 42 35 23 16 13 11 10 8 9 14 16 16 11 6 5 4 4 5 6 6 7 7 7 16 36 39 39 37 39 45 58 46 55 92 100 95 88 76 83 80 67 38 34 97 98 98 97
25 16 12 11 10 9 10 8 11 16 16 15 17 8 6 5 4 5 5 6 6 7 8 9 10 8 17 45 48 46 42 44 63 62 60 71 89 100 100 100 99 99 80 62 95 96 98 97 98
8 11 11 14 18 15 15 15 16 16 11 8 7 6 5 4 4 4 5 5 7 8 9 10 12 12 10 11 34 63 66 46 55 64 75 74 84 99 100 100 100 100 97 96 99 99 100 99 98
14 12 12 12 10 10 10 10 10 8 8 8 7 6 4 4 4 4 7 12 14 14 13 12 13 14 15 15 12 18 35 63 66 61 63 68 77 74 95 97 95 98 89 97 98 98 98 97 93
6 6 6 7 7 6 6 6 7 6 7 6 6 4 6 8 11 14 16 17 18 18 18 17 18 17 16 16 16 17 16 13 40 76 77 80 80 88 88 79 62 54 65 75 83 90 85 59 49
10 10 10 11 11 10 8 8 10 8 6 5 6 10 13 14 15 15 16 16 16 17 18 19 19 20 21 21 20 19 20 20 19 16 30 78 92 81 84 91 90 80 77 74 62 64 63 60 51